Darstellungsparameter: Aktuell verwendete Einstellungen:
Skalierung der Graphiken ... ?
xyx+y,   Skalierungsfaktor:      Skalierung: Modus: x, Faktor: 1
Darstellungszeitraum ... ?
Vom - - bis: - -   Zeitraum: 08.11.2008 - 28.11.2008
Min/Max/Avg-Anzeige ... ?
Zeige MMA aktuell
Zeige MMA Monat
Zeige MMA alles
Zeige --A aktuell
Zeige --A Monat
Zeige --A alles
Keine MMA-Anzeige
MMA:
Average (ber die Originaldaten)
MMA-Basis: 17.04.2019 - 19.05.2019
Quicknavigation für Darstellung... ?
Tage:      1T, 2T, 3T, 5T -1T -2T -3T -5T +1T +2T +3T +5T
Wochen: 1W, 2W, 3W -1W -2W -3W +1W +2W +3W
Monate: 1M, 3M, 6M -1M -3M -6M +1M +3M +6M
Jahre:    1J, 3J, 5J, 10J -1J -3J -5J -10J +1J +3J +5J +10J
Nutze für die Darstellung ... ?
Originaldaten oder Mittelwerte auf ...
Stundenbasis Tagesbasis Wochenbasis
Monatsbasis Jahresbasis      Datenbasis: Original-Daten
Darstellen als:
Statistik (Auto) Statistik J:M      Darstellung:
Zur Graphik,    zurück zur Übersicht aller Sensoren.
 
Tabellarische Datenbersicht: ?
 
Sensor: Nr:Datum:Temp:Abs-Feuchte:Windchill:Wind:
Aussen-T/F 1 08-11-2008 00:06:40 7.3 C 7.19 g/m*3 7.3 C 0 km/h
2 08-11-2008 00:31:40 6.9 C 7.08 g/m*3 6.9 C 0 km/h
3 08-11-2008 00:56:40 7.1 C 7.18 g/m*3 7.1 C 0 km/h
4 08-11-2008 01:21:40 7 C 7.13 g/m*3 7 C 0 km/h
5 08-11-2008 01:46:40 7.2 C 7.3 g/m*3 7.2 C 0 km/h
6 08-11-2008 02:11:40 7.3 C 7.35 g/m*3 7.3 C 0 km/h
7 08-11-2008 02:36:40 7.5 C 7.44 g/m*3 7.5 C 0 km/h
8 08-11-2008 03:01:40 7.8 C 7.59 g/m*3 7.8 C 0 km/h
9 08-11-2008 03:26:40 7.9 C 7.56 g/m*3 7.9 C 0 km/h
10 08-11-2008 03:51:40 8.1 C 7.57 g/m*3 8.1 C 0 km/h
11 08-11-2008 04:16:40 8.2 C 7.62 g/m*3 8.2 C 0 km/h
12 08-11-2008 04:41:40 8.3 C 7.67 g/m*3 8.3 C 0 km/h
13 08-11-2008 05:06:40 8.3 C 7.59 g/m*3 8.3 C 0 km/h
14 08-11-2008 05:31:40 8 C 7.44 g/m*3 8 C 0 km/h
15 08-11-2008 05:56:40 8.6 C 7.82 g/m*3 8.6 C 0 km/h
16 08-11-2008 06:21:40 8.6 C 7.65 g/m*3 8.6 C 0 km/h
17 08-11-2008 06:46:40 8.5 C 7.6 g/m*3 8.5 C 0 km/h
18 08-11-2008 07:11:40 8.5 C 7.77 g/m*3 8.5 C 0 km/h
19 08-11-2008 07:36:41 8 C 7.52 g/m*3 8 C 0 km/h
20 08-11-2008 08:01:41 7.9 C 7.64 g/m*3 7.9 C 0 km/h
21 08-11-2008 08:26:41 7.3 C 7.27 g/m*3 7.3 C 0 km/h
22 08-11-2008 08:51:41 7.2 C 7.3 g/m*3 7.2 C 0 km/h
23 08-11-2008 09:16:41 7.6 C 7.57 g/m*3 7.6 C 0 km/h
24 08-11-2008 09:41:41 8.2 C 7.87 g/m*3 8.2 C 0 km/h
25 08-11-2008 10:06:41 8.7 C 8.13 g/m*3 8.7 C 0 km/h
Sensor: Nr:Datum:Temp:Abs-Feuchte:Windchill:Wind:
Aussen-T/F 26 08-11-2008 10:31:41 8.9 C 7.88 g/m*3 8.9 C 0 km/h
27 08-11-2008 10:56:41 9.3 C 7.28 g/m*3 9.3 C 0 km/h
28 08-11-2008 11:21:41 9.7 C 6.36 g/m*3 9.7 C 0 km/h
29 08-11-2008 11:46:41 10.3 C 6.03 g/m*3 10.3 C 0 km/h
30 08-11-2008 12:11:41 10.9 C 5.97 g/m*3 10.9 C 0 km/h
31 08-11-2008 12:36:41 11.7 C 5.86 g/m*3 11.7 C 0 km/h
32 08-11-2008 13:01:41 12.2 C 5.4 g/m*3 12.2 C 0 km/h
33 08-11-2008 13:26:41 12.4 C 5.14 g/m*3 12.4 C 0 km/h
34 08-11-2008 13:51:01 12 C 5.33 g/m*3 12 C 0 km/h
35 08-11-2008 14:16:01 11.9 C 5.51 g/m*3 11.9 C 0 km/h
36 08-11-2008 14:41:01 12 C 5.44 g/m*3 12 C 0 km/h
37 08-11-2008 15:06:02 11.8 C 5.79 g/m*3 11.8 C 0 km/h
38 08-11-2008 15:31:02 12 C 5.86 g/m*3 12 C 0 km/h
39 08-11-2008 15:56:02 11.2 C 5.98 g/m*3 11.2 C 0 km/h
40 08-11-2008 16:21:02 10.2 C 5.8 g/m*3 10.2 C 0 km/h
41 08-11-2008 16:46:02 9.5 C 6.01 g/m*3 9.5 C 0 km/h
42 08-11-2008 17:11:02 8.8 C 6.09 g/m*3 8.8 C 0 km/h
43 08-11-2008 17:36:02 8.2 C 6.03 g/m*3 8.2 C 0 km/h
44 08-11-2008 18:01:02 7.7 C 6.08 g/m*3 7.7 C 0 km/h
45 08-11-2008 18:26:01 7.4 C 6.04 g/m*3 7.4 C 0 km/h
46 08-11-2008 18:51:01 7.2 C 6.12 g/m*3 7.2 C 0 km/h
47 08-11-2008 19:16:02 6.8 C 6.12 g/m*3 6.8 C 0 km/h
48 08-11-2008 19:41:02 6.5 C 6.15 g/m*3 6.5 C 0 km/h
49 08-11-2008 20:06:02 6.1 C 5.99 g/m*3 6.1 C 0 km/h
50 08-11-2008 20:31:02 5.8 C 6.02 g/m*3 5.8 C 0 km/h
Sensor: Nr:Datum:Temp:Abs-Feuchte:Windchill:Wind:
Aussen-T/F 51 08-11-2008 20:56:02 5.6 C 6.08 g/m*3 5.6 C 0 km/h
52 08-11-2008 21:21:02 5.3 C 5.96 g/m*3 5.3 C 0 km/h
53 08-11-2008 21:46:02 5.2 C 6.06 g/m*3 5.2 C 0 km/h
54 08-11-2008 22:11:03 5.1 C 6.02 g/m*3 5.1 C 0 km/h
55 08-11-2008 22:36:03 4.7 C 6 g/m*3 4.7 C 0 km/h
56 08-11-2008 23:01:02 4.9 C 6.14 g/m*3 4.9 C 0 km/h
57 08-11-2008 23:26:02 5.3 C 6.38 g/m*3 5.3 C 0 km/h
58 08-11-2008 23:50:02 5.8 C 6.66 g/m*3 5.8 C 0 km/h
59 09-11-2008 00:02:03 6.4 C 6.85 g/m*3 6.4 C 0 km/h
60 09-11-2008 00:14:03 6.7 C 6.84 g/m*3 6.7 C 0 km/h
61 09-11-2008 00:26:03 6.7 C 6.76 g/m*3 6.7 C 0 km/h
62 09-11-2008 00:38:03 7 C 6.74 g/m*3 7 C 0 km/h
63 09-11-2008 00:50:02 7 C 6.59 g/m*3 7 C 0 km/h
64 09-11-2008 01:02:03 6.6 C 6.42 g/m*3 6.6 C 0 km/h
65 09-11-2008 01:14:03 6.7 C 6.53 g/m*3 6.7 C 0 km/h
66 09-11-2008 01:26:02 6.5 C 6.37 g/m*3 6.5 C 0 km/h
67 09-11-2008 01:38:03 6.5 C 6.45 g/m*3 6.5 C 0 km/h
68 09-11-2008 01:50:02 6.4 C 6.41 g/m*3 6.4 C 0 km/h
69 09-11-2008 02:02:01 7.1 C 6.63 g/m*3 7.1 C 0 km/h
70 09-11-2008 02:14:01 7.5 C 6.56 g/m*3 7.5 C 0 km/h
71 09-11-2008 02:26:02 7.3 C 6.4 g/m*3 7.3 C 0 km/h
72 09-11-2008 02:38:01 7.6 C 6.53 g/m*3 7.6 C 0 km/h
73 09-11-2008 02:50:01 7.5 C 6.32 g/m*3 7.5 C 0 km/h
74 09-11-2008 03:02:01 7.7 C 6.49 g/m*3 7.7 C 0 km/h
75 09-11-2008 03:14:02 8 C 6.45 g/m*3 8 C 0 km/h
Sensor: Nr:Datum:Temp:Abs-Feuchte:Windchill:Wind:
Aussen-T/F 76 09-11-2008 03:26:02 8 C 6.45 g/m*3 8 C 0 km/h
77 09-11-2008 03:38:01 8.2 C 6.53 g/m*3 8.2 C 0 km/h
78 09-11-2008 03:50:01 8.8 C 6.61 g/m*3 8.8 C 0 km/h
79 09-11-2008 04:02:01 9.3 C 6.56 g/m*3 9.3 C 0 km/h
80 09-11-2008 04:14:01 9.4 C 6.51 g/m*3 9.4 C 0 km/h
81 09-11-2008 04:26:01 9.6 C 6.5 g/m*3 9.6 C 0 km/h
82 09-11-2008 04:38:01 9.3 C 6.47 g/m*3 9.3 C 0 km/h
83 09-11-2008 04:50:02 9.3 C 6.56 g/m*3 9.3 C 0 km/h
84 09-11-2008 05:02:01 9.2 C 6.52 g/m*3 9.2 C 0 km/h
85 09-11-2008 05:14:01 9.6 C 6.6 g/m*3 9.6 C 0 km/h
86 09-11-2008 05:26:02 9.7 C 6.64 g/m*3 9.7 C 0 km/h
87 09-11-2008 05:38:01 9.7 C 6.64 g/m*3 9.7 C 0 km/h
88 09-11-2008 05:50:02 9.6 C 6.6 g/m*3 9.6 C 0 km/h
89 09-11-2008 06:02:01 9.6 C 6.69 g/m*3 9.6 C 0 km/h
90 09-11-2008 06:14:01 9.6 C 6.6 g/m*3 9.6 C 0 km/h
91 09-11-2008 06:26:02 9.8 C 6.68 g/m*3 9.8 C 0 km/h
92 09-11-2008 06:38:01 9.7 C 6.64 g/m*3 9.7 C 0 km/h
93 09-11-2008 06:50:02 9.7 C 6.64 g/m*3 9.7 C 0 km/h
94 09-11-2008 07:02:01 9.9 C 6.82 g/m*3 9.9 C 0 km/h
95 09-11-2008 07:14:01 10 C 6.77 g/m*3 10 C 0 km/h
96 09-11-2008 07:26:02 9.8 C 6.87 g/m*3 9.8 C 0 km/h
97 09-11-2008 07:38:01 9.4 C 7.15 g/m*3 9.4 C 0 km/h
98 09-11-2008 07:50:01 9.2 C 7.41 g/m*3 9.2 C 0 km/h
99 09-11-2008 08:02:01 9.3 C 7.64 g/m*3 9.3 C 0 km/h
100 09-11-2008 08:14:01 9.1 C 7.72 g/m*3 9.1 C 0 km/h
Sensor: Nr:Datum:Temp:Abs-Feuchte:Windchill:Wind:
Aussen-T/F 101 09-11-2008 08:26:01 9.3 C 7.82 g/m*3 9.3 C 0 km/h
102 09-11-2008 08:38:01 9.4 C 7.96 g/m*3 9.4 C 0 km/h
103 09-11-2008 08:50:01 9.4 C 7.96 g/m*3 9.4 C 0 km/h
104 09-11-2008 09:02:02 9.6 C 8.15 g/m*3 9.6 C 0 km/h
105 09-11-2008 09:14:02 9.6 C 8.15 g/m*3 9.6 C 0 km/h
106 09-11-2008 09:26:01 9.7 C 8.2 g/m*3 9.7 C 0 km/h
107 09-11-2008 09:38:01 9.7 C 8.2 g/m*3 9.7 C 0 km/h
108 09-11-2008 09:50:01 9.8 C 8.35 g/m*3 9.8 C 0 km/h
109 09-11-2008 10:02:02 9.7 C 8.3 g/m*3 9.7 C 0 km/h
110 09-11-2008 10:14:02 9.7 C 8.3 g/m*3 9.7 C 0 km/h
111 09-11-2008 10:26:01 9.7 C 8.39 g/m*3 9.7 C 0 km/h
112 09-11-2008 10:38:02 9.8 C 8.44 g/m*3 9.8 C 0 km/h
113 09-11-2008 10:50:01 9.8 C 8.54 g/m*3 9.8 C 0 km/h
114 09-11-2008 11:02:02 9.8 C 8.54 g/m*3 9.8 C 0 km/h
115 09-11-2008 11:14:02 9.9 C 8.59 g/m*3 9.9 C 0 km/h
116 09-11-2008 11:26:01 10.1 C 8.7 g/m*3 10.1 C 0 km/h
117 09-11-2008 11:38:02 10.3 C 8.81 g/m*3 10.3 C 0 km/h
118 09-11-2008 11:50:02 10.3 C 8.81 g/m*3 10.3 C 0 km/h
119 09-11-2008 12:02:02 10.4 C 8.87 g/m*3 10.4 C 0 km/h
120 09-11-2008 12:14:02 10.7 C 9.04 g/m*3 10.7 C 0 km/h
121 09-11-2008 12:26:02 11 C 9.11 g/m*3 11 C 0 km/h
122 09-11-2008 12:38:02 10.8 C 8.99 g/m*3 10.8 C 0 km/h
123 09-11-2008 12:50:02 10.9 C 9.05 g/m*3 10.9 C 0 km/h
124 09-11-2008 13:02:02 10.6 C 8.69 g/m*3 10.6 C 0 km/h
125 09-11-2008 13:14:02 10.5 C 8.44 g/m*3 10.5 C 0 km/h
Sensor: Nr:Datum:Temp:Abs-Feuchte:Windchill:Wind:
Aussen-T/F 126 09-11-2008 13:26:02 10.6 C 8.39 g/m*3 10.6 C 0 km/h
127 09-11-2008 13:38:02 10.3 C 8.24 g/m*3 10.3 C 0 km/h
128 09-11-2008 13:50:02 9.8 C 7.61 g/m*3 9.8 C 0 km/h
129 09-11-2008 14:02:02 9.5 C 7.1 g/m*3 9.5 C 0 km/h
130 09-11-2008 14:14:02 9.7 C 7.19 g/m*3 9.7 C 0 km/h
131 09-11-2008 14:26:01 9.5 C 7.28 g/m*3 9.5 C 0 km/h
132 09-11-2008 14:38:02 9.6 C 7.51 g/m*3 9.6 C 0 km/h
133 09-11-2008 14:50:01 9.7 C 7.56 g/m*3 9.7 C 0 km/h
134 09-11-2008 15:02:01 9.8 C 7.24 g/m*3 9.8 C 0 km/h
135 09-11-2008 15:14:01 10.1 C 6.9 g/m*3 10.1 C 0 km/h
136 09-11-2008 15:26:02 10 C 6.95 g/m*3 10 C 0 km/h
137 09-11-2008 15:38:02 10.1 C 6.9 g/m*3 10.1 C 0 km/h
138 09-11-2008 15:50:01 9.9 C 7 g/m*3 9.9 C 0 km/h
139 09-11-2008 16:02:03 9.8 C 7.14 g/m*3 9.8 C 0 km/h
140 09-11-2008 16:14:03 9.6 C 7.15 g/m*3 9.6 C 0 km/h
141 09-11-2008 16:26:01 9.4 C 7.15 g/m*3 9.4 C 0 km/h
142 09-11-2008 16:38:02 9.2 C 7.23 g/m*3 9.2 C 0 km/h
143 09-11-2008 16:50:02 9.1 C 7.19 g/m*3 9.1 C 0 km/h
144 09-11-2008 17:02:02 9.1 C 7.19 g/m*3 9.1 C 0 km/h
145 09-11-2008 17:14:02 9 C 7.14 g/m*3 9 C 0 km/h
146 09-11-2008 17:26:02 8.8 C 7.22 g/m*3 8.8 C 0 km/h
147 09-11-2008 17:38:03 8.7 C 7.26 g/m*3 8.7 C 0 km/h
148 09-11-2008 17:50:02 8.7 C 7.26 g/m*3 8.7 C 0 km/h
149 09-11-2008 18:02:02 8.6 C 7.22 g/m*3 8.6 C 0 km/h
150 09-11-2008 18:14:02 8.5 C 7 g/m*3 8.5 C 0 km/h
Sensor: Nr:Datum:Temp:Abs-Feuchte:Windchill:Wind:
Aussen-T/F 151 09-11-2008 18:26:02 8.1 C 6.82 g/m*3 8.1 C 0 km/h
152 09-11-2008 18:38:02 7.9 C 6.82 g/m*3 7.9 C 0 km/h
153 09-11-2008 18:50:01 7.8 C 6.77 g/m*3 7.8 C 0 km/h
154 09-11-2008 19:02:02 7.6 C 6.69 g/m*3 7.6 C 0 km/h
155 09-11-2008 19:14:02 7.4 C 6.68 g/m*3 7.4 C 0 km/h
156 09-11-2008 19:26:03 7.4 C 6.76 g/m*3 7.4 C 0 km/h
157 09-11-2008 19:38:03 7.3 C 6.72 g/m*3 7.3 C 0 km/h
158 09-11-2008 19:50:02 7.4 C 6.84 g/m*3 7.4 C 0 km/h
159 09-11-2008 20:02:02 7.5 C 6.8 g/m*3 7.5 C 0 km/h
160 09-11-2008 20:14:02 7.4 C 6.76 g/m*3 7.4 C 0 km/h
161 09-11-2008 20:26:01 7.6 C 6.93 g/m*3 7.6 C 0 km/h
162 09-11-2008 20:38:02 7.4 C 6.76 g/m*3 7.4 C 0 km/h
163 09-11-2008 20:50:02 7.4 C 6.92 g/m*3 7.4 C 0 km/h
164 09-11-2008 21:02:01 7.6 C 7.01 g/m*3 7.6 C 0 km/h
165 09-11-2008 21:14:01 7.7 C 7.14 g/m*3 7.7 C 0 km/h
166 09-11-2008 21:26:02 7.9 C 7.23 g/m*3 7.9 C 0 km/h
167 09-11-2008 21:38:01 7.9 C 7.23 g/m*3 7.9 C 0 km/h
168 09-11-2008 21:50:02 7.9 C 7.31 g/m*3 7.9 C 0 km/h
169 09-11-2008 22:02:01 7.9 C 7.31 g/m*3 7.9 C 0 km/h
170 09-11-2008 22:14:01 7.8 C 7.35 g/m*3 7.8 C 0 km/h
171 09-11-2008 22:26:02 8 C 7.44 g/m*3 8 C 0 km/h
172 09-11-2008 22:38:01 8.3 C 7.67 g/m*3 8.3 C 0 km/h
173 09-11-2008 22:50:01 8.5 C 7.77 g/m*3 8.5 C 0 km/h
174 09-11-2008 23:02:01 8.5 C 7.77 g/m*3 8.5 C 0 km/h
175 09-11-2008 23:14:01 8.9 C 8.06 g/m*3 8.9 C 0 km/h
Sensor: Nr:Datum:Temp:Abs-Feuchte:Windchill:Wind:
Aussen-T/F 176 09-11-2008 23:26:01 9.3 C 8.27 g/m*3 9.3 C 0 km/h
177 09-11-2008 23:38:01 10.1 C 8.7 g/m*3 10.1 C 0 km/h
178 09-11-2008 23:50:01 11.4 C 9.34 g/m*3 11.4 C 0 km/h
179 10-11-2008 00:02:02 12 C 8.95 g/m*3 12 C 0 km/h
180 10-11-2008 00:14:02 12.1 C 8.69 g/m*3 12.1 C 0 km/h
181 10-11-2008 00:26:02 12.3 C 8.58 g/m*3 12.3 C 0 km/h
182 10-11-2008 00:38:02 12.3 C 8.58 g/m*3 12.3 C 0 km/h
183 10-11-2008 00:50:01 12.6 C 8.41 g/m*3 12.6 C 0 km/h
184 10-11-2008 01:02:02 12.9 C 8.34 g/m*3 12.9 C 0 km/h
185 10-11-2008 01:14:02 13 C 8.05 g/m*3 13 C 0 km/h
186 10-11-2008 01:26:01 13 C 7.94 g/m*3 13 C 0 km/h
187 10-11-2008 01:38:02 13 C 7.83 g/m*3 13 C 0 km/h
188 10-11-2008 01:50:02 13.1 C 7.53 g/m*3 13.1 C 0 km/h
189 10-11-2008 02:02:01 13 C 7.48 g/m*3 13 C 0 km/h
190 10-11-2008 02:14:01 13 C 7.48 g/m*3 13 C 0 km/h
191 10-11-2008 02:26:02 12.9 C 7.55 g/m*3 12.9 C 0 km/h
192 10-11-2008 02:38:01 12.5 C 7.81 g/m*3 12.5 C 0 km/h
193 10-11-2008 02:51:05 12 C 7.99 g/m*3 12 C 0 km/h
194 10-11-2008 03:03:05 11.8 C 8.21 g/m*3 11.8 C 0 km/h
195 10-11-2008 03:15:05 11.2 C 8.51 g/m*3 11.2 C 0 km/h
196 10-11-2008 03:27:05 11.1 C 8.66 g/m*3 11.1 C 0 km/h
197 10-11-2008 03:39:02 11.3 C 8.67 g/m*3 11.3 C 0 km/h
198 10-11-2008 03:51:02 11.6 C 8.52 g/m*3 11.6 C 0 km/h
199 10-11-2008 04:03:03 11.8 C 8.31 g/m*3 11.8 C 0 km/h
200 10-11-2008 04:15:02 11.9 C 8.26 g/m*3 11.9 C 0 km/h
Sensor: Nr:Datum:Temp:Abs-Feuchte:Windchill:Wind:
Aussen-T/F 201 10-11-2008 04:27:02 12 C 8.21 g/m*3 12 C 0 km/h
202 10-11-2008 04:39:03 12.3 C 8.25 g/m*3 12.3 C 0 km/h
203 10-11-2008 04:51:02 12.5 C 8.14 g/m*3 12.5 C 0 km/h
204 10-11-2008 05:03:02 12.5 C 8.14 g/m*3 12.5 C 0 km/h
205 10-11-2008 05:15:02 12.6 C 8.08 g/m*3 12.6 C 0 km/h
206 10-11-2008 05:27:02 12.8 C 8.06 g/m*3 12.8 C 0 km/h
207 10-11-2008 05:39:02 12.9 C 8 g/m*3 12.9 C 0 km/h
208 10-11-2008 05:51:01 13 C 7.83 g/m*3 13 C 0 km/h
209 10-11-2008 06:03:02 13 C 7.83 g/m*3 13 C 0 km/h
210 10-11-2008 06:15:02 13 C 7.83 g/m*3 13 C 0 km/h
211 10-11-2008 06:27:02 13 C 7.83 g/m*3 13 C 0 km/h
212 10-11-2008 06:39:02 13.1 C 7.76 g/m*3 13.1 C 0 km/h
213 10-11-2008 06:51:02 13 C 7.71 g/m*3 13 C 0 km/h
214 10-11-2008 07:03:02 13.1 C 7.76 g/m*3 13.1 C 0 km/h
215 10-11-2008 07:15:02 13.3 C 7.74 g/m*3 13.3 C 0 km/h
216 10-11-2008 07:27:02 13.2 C 7.69 g/m*3 13.2 C 0 km/h
217 10-11-2008 07:39:02 13.1 C 7.87 g/m*3 13.1 C 0 km/h
218 10-11-2008 07:51:02 12.8 C 8.18 g/m*3 12.8 C 0 km/h
219 10-11-2008 08:03:03 12.7 C 8.24 g/m*3 12.7 C 0 km/h
220 10-11-2008 08:15:02 13 C 8.28 g/m*3 13 C 0 km/h
221 10-11-2008 08:27:02 13 C 8.28 g/m*3 13 C 0 km/h
222 10-11-2008 08:39:03 12.8 C 8.4 g/m*3 12.8 C 0 km/h
223 10-11-2008 08:51:02 13 C 8.39 g/m*3 13 C 0 km/h
224 10-11-2008 09:03:01 13 C 8.28 g/m*3 13 C 0 km/h
225 10-11-2008 09:15:02 13 C 8.28 g/m*3 13 C 0 km/h
Sensor: Nr:Datum:Temp:Abs-Feuchte:Windchill:Wind:
Aussen-T/F 226 10-11-2008 09:27:03 13.2 C 8.27 g/m*3 13.2 C 0 km/h
227 10-11-2008 09:39:01 13.4 C 8.14 g/m*3 13.4 C 0 km/h
228 10-11-2008 09:51:02 13.5 C 8.07 g/m*3 13.5 C 0 km/h
229 10-11-2008 10:03:01 13.7 C 8.05 g/m*3 13.7 C 0 km/h
230 10-11-2008 10:15:02 13.7 C 7.93 g/m*3 13.7 C 0 km/h
231 10-11-2008 10:27:02 13.7 C 7.93 g/m*3 13.7 C 0 km/h
232 10-11-2008 10:39:01 13.8 C 7.98 g/m*3 13.8 C 0 km/h
233 10-11-2008 10:51:01 14 C 7.96 g/m*3 14 C 0 km/h
234 10-11-2008 11:03:01 14 C 8.08 g/m*3 14 C 0 km/h
235 10-11-2008 11:15:01 13.8 C 8.22 g/m*3 13.8 C 0 km/h
236 10-11-2008 11:27:01 14 C 8.2 g/m*3 14 C 0 km/h
237 10-11-2008 11:39:01 14.2 C 8.06 g/m*3 14.2 C 0 km/h
238 10-11-2008 11:51:01 14.4 C 8.03 g/m*3 14.4 C 0 km/h
239 10-11-2008 12:03:02 14.7 C 7.93 g/m*3 14.7 C 0 km/h
240 10-11-2008 12:15:02 15.2 C 7.92 g/m*3 15.2 C 0 km/h
241 10-11-2008 12:27:02 15 C 7.82 g/m*3 15 C 0 km/h
242 10-11-2008 12:39:02 15.1 C 7.87 g/m*3 15.1 C 0 km/h
243 10-11-2008 12:51:02 14.9 C 7.9 g/m*3 14.9 C 0 km/h
244 10-11-2008 13:03:01 14.9 C 7.77 g/m*3 14.9 C 0 km/h
245 10-11-2008 13:15:02 15 C 7.69 g/m*3 15 C 0 km/h
246 10-11-2008 13:27:02 14.7 C 7.81 g/m*3 14.7 C 0 km/h
247 10-11-2008 13:39:02 14.8 C 7.85 g/m*3 14.8 C 0 km/h
248 10-11-2008 13:51:02 14.9 C 7.77 g/m*3 14.9 C 0 km/h
249 10-11-2008 14:03:02 15.3 C 7.84 g/m*3 15.3 C 0 km/h
250 10-11-2008 14:15:02 15.3 C 7.57 g/m*3 15.3 C 0 km/h
Sensor: Nr:Datum:Temp:Abs-Feuchte:Windchill:Wind:
Aussen-T/F 251 10-11-2008 14:27:02 15.1 C 7.74 g/m*3 15.1 C 0 km/h
252 10-11-2008 14:39:02 15 C 7.82 g/m*3 15 C 0 km/h
253 10-11-2008 14:51:02 14.8 C 7.85 g/m*3 14.8 C 0 km/h
254 10-11-2008 15:03:01 14.8 C 7.73 g/m*3 14.8 C 0 km/h
255 10-11-2008 15:15:02 14.8 C 7.73 g/m*3 14.8 C 0 km/h
256 10-11-2008 15:27:03 14.8 C 7.73 g/m*3 14.8 C 0 km/h
257 10-11-2008 15:39:01 14.9 C 7.77 g/m*3 14.9 C 0 km/h
258 10-11-2008 15:51:03 14.8 C 7.73 g/m*3 14.8 C 0 km/h
259 10-11-2008 16:03:02 14.8 C 7.73 g/m*3 14.8 C 0 km/h
260 10-11-2008 16:15:03 14.8 C 7.73 g/m*3 14.8 C 0 km/h
261 10-11-2008 16:27:03 14.7 C 7.81 g/m*3 14.7 C 0 km/h
262 10-11-2008 16:39:02 14.6 C 7.76 g/m*3 14.6 C 0 km/h
263 10-11-2008 16:51:02 14.5 C 7.84 g/m*3 14.5 C 0 km/h
264 10-11-2008 17:03:02 14.5 C 7.71 g/m*3 14.5 C 0 km/h
265 10-11-2008 17:15:02 14.6 C 7.63 g/m*3 14.6 C 0 km/h
266 10-11-2008 17:27:02 14.7 C 7.55 g/m*3 14.7 C 0 km/h
267 10-11-2008 17:39:02 14.7 C 7.55 g/m*3 14.7 C 0 km/h
268 10-11-2008 17:51:01 14.9 C 7.65 g/m*3 14.9 C 0 km/h
269 10-11-2008 18:03:02 15.1 C 7.48 g/m*3 15.1 C 0 km/h
270 10-11-2008 18:15:01 15.2 C 7.4 g/m*3 15.2 C 0 km/h
271 10-11-2008 18:27:01 15.2 C 7.4 g/m*3 15.2 C 0 km/h
272 10-11-2008 18:39:02 14.9 C 7.39 g/m*3 14.9 C 0 km/h
273 10-11-2008 18:51:02 15.1 C 7.22 g/m*3 15.1 C 0 km/h
274 10-11-2008 19:03:03 15.1 C 7.1 g/m*3 15.1 C 0 km/h
275 10-11-2008 19:15:02 15.2 C 7.14 g/m*3 15.2 C 0 km/h
Sensor: Nr:Datum:Temp:Abs-Feuchte:Windchill:Wind:
Aussen-T/F 276 10-11-2008 19:27:02 15 C 7.05 g/m*3 15 C 0 km/h
277 10-11-2008 19:39:03 15.1 C 7.1 g/m*3 15.1 C 0 km/h
278 10-11-2008 19:51:02 15.2 C 7.14 g/m*3 15.2 C 0 km/h
279 10-11-2008 20:03:02 15.1 C 7.22 g/m*3 15.1 C 0 km/h
280 10-11-2008 20:15:02 15.3 C 7.31 g/m*3 15.3 C 0 km/h
281 10-11-2008 20:27:02 15.3 C 7.31 g/m*3 15.3 C 0 km/h
282 10-11-2008 20:39:02 15.3 C 7.31 g/m*3 15.3 C 0 km/h
283 10-11-2008 20:51:02 15.4 C 7.36 g/m*3 15.4 C 0 km/h
284 10-11-2008 21:03:02 15.5 C 7.53 g/m*3 15.5 C 0 km/h
285 10-11-2008 21:15:02 15.5 C 7.53 g/m*3 15.5 C 0 km/h
286 10-11-2008 21:27:02 15.6 C 7.58 g/m*3 15.6 C 0 km/h
287 10-11-2008 21:39:02 15.4 C 7.75 g/m*3 15.4 C 0 km/h
288 10-11-2008 21:51:01 15.2 C 8.05 g/m*3 15.2 C 0 km/h
289 10-11-2008 22:03:02 15.3 C 7.97 g/m*3 15.3 C 0 km/h
290 10-11-2008 22:15:02 15.2 C 8.05 g/m*3 15.2 C 0 km/h
291 10-11-2008 22:27:02 15.5 C 7.93 g/m*3 15.5 C 0 km/h
292 10-11-2008 22:39:02 15.7 C 7.63 g/m*3 15.7 C 0 km/h
293 10-11-2008 22:52:02 15.8 C 7.67 g/m*3 15.8 C 0 km/h
294 10-11-2008 23:04:02 15.8 C 7.54 g/m*3 15.8 C 0 km/h
295 10-11-2008 23:16:02 15.9 C 7.58 g/m*3 15.9 C 0 km/h
296 10-11-2008 23:28:02 15.8 C 7.54 g/m*3 15.8 C 0 km/h
297 10-11-2008 23:40:02 15.8 C 7.54 g/m*3 15.8 C 0 km/h
298 10-11-2008 23:52:02 16 C 7.49 g/m*3 16 C 0 km/h
299 11-11-2008 00:04:02 16 C 7.49 g/m*3 16 C 0 km/h
300 11-11-2008 00:16:02 16 C 7.49 g/m*3 16 C 0 km/h
Sensor: Nr:Datum:Temp:Abs-Feuchte:Windchill:Wind:
Aussen-T/F 301 11-11-2008 00:28:02 15.8 C 7.67 g/m*3 15.8 C 0 km/h
302 11-11-2008 00:40:02 15.9 C 7.58 g/m*3 15.9 C 0 km/h
303 11-11-2008 00:52:02 16 C 7.49 g/m*3 16 C 0 km/h
304 11-11-2008 01:04:02 16.1 C 7.4 g/m*3 16.1 C 0 km/h
305 11-11-2008 01:16:02 16.1 C 7.4 g/m*3 16.1 C 0 km/h
306 11-11-2008 01:28:02 15.9 C 7.45 g/m*3 15.9 C 0 km/h
307 11-11-2008 01:40:02 15.7 C 7.49 g/m*3 15.7 C 0 km/h
308 11-11-2008 01:52:02 15.7 C 7.49 g/m*3 15.7 C 0 km/h
309 11-11-2008 02:04:02 15.4 C 7.36 g/m*3 15.4 C 0 km/h
310 11-11-2008 02:16:02 15.2 C 7.4 g/m*3 15.2 C 0 km/h
311 11-11-2008 02:28:02 15.2 C 7.4 g/m*3 15.2 C 0 km/h
312 11-11-2008 02:40:03 15.3 C 7.31 g/m*3 15.3 C 0 km/h
313 11-11-2008 02:52:03 15.2 C 7.27 g/m*3 15.2 C 0 km/h
314 11-11-2008 03:04:03 15.3 C 7.18 g/m*3 15.3 C 0 km/h
315 11-11-2008 03:16:03 15.1 C 7.1 g/m*3 15.1 C 0 km/h
316 11-11-2008 03:28:03 14.9 C 7.14 g/m*3 14.9 C 0 km/h
317 11-11-2008 03:40:03 14.7 C 7.05 g/m*3 14.7 C 0 km/h
318 11-11-2008 03:52:03 14.6 C 7.01 g/m*3 14.6 C 0 km/h
319 11-11-2008 04:04:03 14.4 C 6.92 g/m*3 14.4 C 0 km/h
320 11-11-2008 04:16:03 14.1 C 6.92 g/m*3 14.1 C 0 km/h
321 11-11-2008 04:28:03 14.1 C 6.92 g/m*3 14.1 C 0 km/h
322 11-11-2008 04:40:03 14 C 6.88 g/m*3 14 C 0 km/h
323 11-11-2008 04:52:03 13.6 C 6.94 g/m*3 13.6 C 0 km/h
324 11-11-2008 05:04:03 13.4 C 6.86 g/m*3 13.4 C 0 km/h
325 11-11-2008 05:16:03 13.3 C 6.93 g/m*3 13.3 C 0 km/h
Sensor: Nr:Datum:Temp:Abs-Feuchte:Windchill:Wind:
Aussen-T/F 326 11-11-2008 05:28:03 13.4 C 6.97 g/m*3 13.4 C 0 km/h
327 11-11-2008 05:40:03 13.5 C 6.9 g/m*3 13.5 C 0 km/h
328 11-11-2008 05:52:03 13.5 C 6.9 g/m*3 13.5 C 0 km/h
329 11-11-2008 06:04:03 13.4 C 7.09 g/m*3 13.4 C 0 km/h
330 11-11-2008 06:16:03 13.3 C 7.16 g/m*3 13.3 C 0 km/h
331 11-11-2008 06:28:03 13 C 7.37 g/m*3 13 C 0 km/h
332 11-11-2008 06:40:04 12.7 C 7.57 g/m*3 12.7 C 0 km/h
333 11-11-2008 06:52:04 12.2 C 7.66 g/m*3 12.2 C 0 km/h
334 11-11-2008 07:04:02 12 C 8.1 g/m*3 12 C 0 km/h
335 11-11-2008 07:16:02 12 C 8.21 g/m*3 12 C 0 km/h
336 11-11-2008 07:28:02 12.1 C 8.26 g/m*3 12.1 C 0 km/h
337 11-11-2008 07:40:03 13 C 8.17 g/m*3 13 C 0 km/h
338 11-11-2008 07:52:02 13.3 C 8.09 g/m*3 13.3 C 0 km/h
339 11-11-2008 08:04:01 13.2 C 8.04 g/m*3 13.2 C 0 km/h
340 11-11-2008 08:16:02 13.7 C 7.93 g/m*3 13.7 C 0 km/h
341 11-11-2008 08:28:03 14 C 7.72 g/m*3 14 C 0 km/h
342 11-11-2008 08:40:01 13.7 C 7.82 g/m*3 13.7 C 0 km/h
343 11-11-2008 08:52:02 13.8 C 7.98 g/m*3 13.8 C 0 km/h
344 11-11-2008 09:04:01 13.9 C 8.15 g/m*3 13.9 C 0 km/h
345 11-11-2008 09:16:02 13.5 C 8.19 g/m*3 13.5 C 0 km/h
346 11-11-2008 09:28:02 13.5 C 8.42 g/m*3 13.5 C 0 km/h
347 11-11-2008 09:40:01 13.4 C 8.49 g/m*3 13.4 C 0 km/h
348 11-11-2008 09:52:02 13.7 C 8.41 g/m*3 13.7 C 0 km/h
349 11-11-2008 10:04:01 13.8 C 8.22 g/m*3 13.8 C 0 km/h
350 11-11-2008 10:16:02 13.4 C 7.9 g/m*3 13.4 C 0 km/h
Sensor: Nr:Datum:Temp:Abs-Feuchte:Windchill:Wind:
Aussen-T/F 351 11-11-2008 10:28:02 13.4 C 7.79 g/m*3 13.4 C 0 km/h
352 11-11-2008 10:40:01 13.4 C 7.56 g/m*3 13.4 C 0 km/h
353 11-11-2008 10:52:02 13.5 C 7.6 g/m*3 13.5 C 0 km/h
354 11-11-2008 11:04:01 13.2 C 6.54 g/m*3 13.2 C 0 km/h
355 11-11-2008 11:16:02 12 C 6.5 g/m*3 12 C 0 km/h
356 11-11-2008 11:28:02 11.8 C 6.63 g/m*3 11.8 C 0 km/h
357 11-11-2008 11:40:02 11.6 C 6.55 g/m*3 11.6 C 0 km/h
358 11-11-2008 11:52:02 11.8 C 6.31 g/m*3 11.8 C 0 km/h
359 11-11-2008 12:04:01 11.8 C 6.31 g/m*3 11.8 C 0 km/h
360 11-11-2008 12:16:02 12 C 6.07 g/m*3 12 C 0 km/h
361 11-11-2008 12:28:02 12.3 C 5.86 g/m*3 12.3 C 0 km/h
362 11-11-2008 12:40:01 12.7 C 6.01 g/m*3 12.7 C 0 km/h
363 11-11-2008 12:52:01 13.1 C 5.93 g/m*3 13.1 C 0 km/h
364 11-11-2008 13:04:01 13 C 5.56 g/m*3 13 C 0 km/h
365 11-11-2008 13:16:01 12.9 C 5.75 g/m*3 12.9 C 0 km/h
366 11-11-2008 13:28:01 13.4 C 5.23 g/m*3 13.4 C 0 km/h
367 11-11-2008 13:40:01 13.5 C 5.03 g/m*3 13.5 C 0 km/h
368 11-11-2008 13:52:01 14.1 C 4.73 g/m*3 14.1 C 0 km/h
369 11-11-2008 14:04:02 13.8 C 4.89 g/m*3 13.8 C 0 km/h
370 11-11-2008 14:16:01 14.1 C 4.85 g/m*3 14.1 C 0 km/h
371 11-11-2008 14:28:01 14 C 4.95 g/m*3 14 C 0 km/h
372 11-11-2008 14:40:02 13.5 C 4.68 g/m*3 13.5 C 0 km/h
373 11-11-2008 14:52:02 13.1 C 4.56 g/m*3 13.1 C 0 km/h
374 11-11-2008 15:04:02 13 C 4.54 g/m*3 13 C 0 km/h
375 11-11-2008 15:16:02 12.8 C 4.7 g/m*3 12.8 C 0 km/h
Sensor: Nr:Datum:Temp:Abs-Feuchte:Windchill:Wind:
Aussen-T/F 376 11-11-2008 15:28:02 12.5 C 4.73 g/m*3 12.5 C 0 km/h
377 11-11-2008 15:40:02 12.2 C 4.96 g/m*3 12.2 C 0 km/h
378 11-11-2008 15:52:02 12.1 C 4.93 g/m*3 12.1 C 0 km/h
379 11-11-2008 16:04:01 12.1 C 4.93 g/m*3 12.1 C 0 km/h
380 11-11-2008 16:16:02 12.1 C 4.93 g/m*3 12.1 C 0 km/h
381 11-11-2008 16:28:03 12.1 C 5.15 g/m*3 12.1 C 0 km/h
382 11-11-2008 16:40:01 12 C 5.12 g/m*3 12 C 0 km/h
383 11-11-2008 16:52:01 11.9 C 5.08 g/m*3 11.9 C 0 km/h
384 11-11-2008 17:04:02 11.9 C 4.98 g/m*3 11.9 C 0 km/h
385 11-11-2008 17:16:02 11.9 C 4.87 g/m*3 11.9 C 0 km/h
386 11-11-2008 17:28:03 11.9 C 4.87 g/m*3 11.9 C 0 km/h
387 11-11-2008 17:40:01 11.7 C 4.92 g/m*3 11.7 C 0 km/h
388 11-11-2008 17:52:02 11.3 C 4.79 g/m*3 11.3 C 0 km/h
389 11-11-2008 18:04:01 11.1 C 4.83 g/m*3 11.1 C 0 km/h
390 11-11-2008 18:16:02 11.3 C 4.79 g/m*3 11.3 C 0 km/h
391 11-11-2008 18:28:02 11.4 C 4.82 g/m*3 11.4 C 0 km/h
392 11-11-2008 18:40:01 11.1 C 4.83 g/m*3 11.1 C 0 km/h
393 11-11-2008 18:52:01 11.2 C 4.87 g/m*3 11.2 C 0 km/h
394 11-11-2008 19:04:02 11.1 C 4.94 g/m*3 11.1 C 0 km/h
395 11-11-2008 19:16:01 11.1 C 5.04 g/m*3 11.1 C 0 km/h
396 11-11-2008 19:28:01 11.1 C 5.14 g/m*3 11.1 C 0 km/h
397 11-11-2008 19:40:01 11.1 C 5.14 g/m*3 11.1 C 0 km/h
398 11-11-2008 19:52:01 11.1 C 5.24 g/m*3 11.1 C 0 km/h
399 11-11-2008 20:04:02 11.1 C 5.24 g/m*3 11.1 C 0 km/h
400 11-11-2008 20:16:01 11.1 C 5.24 g/m*3 11.1 C 0 km/h
Sensor: Nr:Datum:Temp:Abs-Feuchte:Windchill:Wind:
Aussen-T/F 401 11-11-2008 20:28:01 11 C 5.31 g/m*3 11 C 0 km/h
402 11-11-2008 20:40:02 11 C 5.41 g/m*3 11 C 0 km/h
403 11-11-2008 20:52:02 11 C 5.51 g/m*3 11 C 0 km/h
404 11-11-2008 21:04:02 10.9 C 5.67 g/m*3 10.9 C 0 km/h
405 11-11-2008 21:16:02 10.8 C 5.63 g/m*3 10.8 C 0 km/h
406 11-11-2008 21:28:02 10.8 C 5.73 g/m*3 10.8 C 0 km/h
407 11-11-2008 21:40:02 10.8 C 5.73 g/m*3 10.8 C 0 km/h
408 11-11-2008 21:52:02 10.8 C 5.73 g/m*3 10.8 C 0 km/h
409 11-11-2008 22:04:01 10.7 C 5.8 g/m*3 10.7 C 0 km/h
410 11-11-2008 22:16:02 10.7 C 5.89 g/m*3 10.7 C 0 km/h
411 11-11-2008 22:28:02 9.5 C 6.64 g/m*3 9.5 C 0 km/h
412 11-11-2008 22:40:02 8.9 C 7.1 g/m*3 8.9 C 0 km/h
413 11-11-2008 22:52:02 8.7 C 7.26 g/m*3 8.7 C 0 km/h
414 11-11-2008 23:04:01 8.5 C 7.26 g/m*3 8.5 C 0 km/h
415 11-11-2008 23:16:02 8.4 C 7.21 g/m*3 8.4 C 0 km/h
416 11-11-2008 23:28:02 8.3 C 7.25 g/m*3 8.3 C 0 km/h
417 11-11-2008 23:40:01 8.3 C 7.33 g/m*3 8.3 C 0 km/h
418 11-11-2008 23:52:02 8.3 C 7.33 g/m*3 8.3 C 0 km/h
419 12-11-2008 00:04:02 8.3 C 7.33 g/m*3 8.3 C 0 km/h
420 12-11-2008 00:16:03 8.2 C 7.37 g/m*3 8.2 C 0 km/h
421 12-11-2008 00:28:03 8.1 C 7.32 g/m*3 8.1 C 0 km/h
422 12-11-2008 00:40:02 8.2 C 7.45 g/m*3 8.2 C 0 km/h
423 12-11-2008 00:52:01 8.1 C 7.41 g/m*3 8.1 C 0 km/h
424 12-11-2008 01:04:02 8.3 C 7.5 g/m*3 8.3 C 0 km/h
425 12-11-2008 01:16:01 8.3 C 7.5 g/m*3 8.3 C 0 km/h
Sensor: Nr:Datum:Temp:Abs-Feuchte:Windchill:Wind:
Aussen-T/F 426 12-11-2008 01:28:01 8.4 C 7.55 g/m*3 8.4 C 0 km/h
427 12-11-2008 01:40:02 8.5 C 7.51 g/m*3 8.5 C 0 km/h
428 12-11-2008 01:52:02 8.5 C 7.51 g/m*3 8.5 C 0 km/h
429 12-11-2008 02:04:02 8.2 C 7.2 g/m*3 8.2 C 0 km/h
430 12-11-2008 02:16:02 8.1 C 7.16 g/m*3 8.1 C 0 km/h
431 12-11-2008 02:28:02 8.1 C 7.16 g/m*3 8.1 C 0 km/h
432 12-11-2008 02:40:02 8 C 7.03 g/m*3 8 C 0 km/h
433 12-11-2008 02:53:03 8.1 C 6.99 g/m*3 8.1 C 0 km/h
434 12-11-2008 03:05:04 8 C 6.94 g/m*3 8 C 0 km/h
435 12-11-2008 03:17:03 7.6 C 6.85 g/m*3 7.6 C 0 km/h
436 12-11-2008 03:29:03 7.5 C 6.88 g/m*3 7.5 C 0 km/h
437 12-11-2008 03:41:01 7.3 C 6.79 g/m*3 7.3 C 0 km/h
438 12-11-2008 03:53:01 7.1 C 6.79 g/m*3 7.1 C 0 km/h
439 12-11-2008 04:05:02 7.3 C 6.95 g/m*3 7.3 C 0 km/h
440 12-11-2008 04:17:02 7.4 C 7 g/m*3 7.4 C 0 km/h
441 12-11-2008 04:29:02 7.2 C 6.91 g/m*3 7.2 C 0 km/h
442 12-11-2008 04:41:02 7.5 C 7.04 g/m*3 7.5 C 0 km/h
443 12-11-2008 04:53:02 7.7 C 7.14 g/m*3 7.7 C 0 km/h
444 12-11-2008 05:05:02 7.9 C 7.15 g/m*3 7.9 C 0 km/h
445 12-11-2008 05:17:01 7.9 C 7.15 g/m*3 7.9 C 0 km/h
446 12-11-2008 05:29:01 7.8 C 7.1 g/m*3 7.8 C 0 km/h
447 12-11-2008 05:41:02 7.6 C 7.01 g/m*3 7.6 C 0 km/h
448 12-11-2008 05:53:02 7.4 C 6.92 g/m*3 7.4 C 0 km/h
449 12-11-2008 06:05:02 7.4 C 6.92 g/m*3 7.4 C 0 km/h
450 12-11-2008 06:17:02 7.5 C 6.96 g/m*3 7.5 C 0 km/h
Sensor: Nr:Datum:Temp:Abs-Feuchte:Windchill:Wind:
Aussen-T/F 451 12-11-2008 06:29:02 7.8 C 6.94 g/m*3 7.8 C 0 km/h
452 12-11-2008 06:41:02 8 C 6.7 g/m*3 8 C 0 km/h
453 12-11-2008 06:53:01 8 C 6.7 g/m*3 8 C 0 km/h
454 12-11-2008 07:05:02 7.8 C 6.69 g/m*3 7.8 C 0 km/h
455 12-11-2008 07:17:01 7.5 C 6.56 g/m*3 7.5 C 0 km/h
456 12-11-2008 07:29:01 7.4 C 6.44 g/m*3 7.4 C 0 km/h
457 12-11-2008 07:41:01 7.2 C 6.44 g/m*3 7.2 C 0 km/h
458 12-11-2008 07:53:02 7.6 C 6.69 g/m*3 7.6 C 0 km/h
459 12-11-2008 08:05:02 7.8 C 6.61 g/m*3 7.8 C 0 km/h
460 12-11-2008 08:17:02 7.9 C 6.49 g/m*3 7.9 C 0 km/h
461 12-11-2008 08:29:02 8 C 6.45 g/m*3 8 C 0 km/h
462 12-11-2008 08:41:02 8.1 C 6.41 g/m*3 8.1 C 0 km/h
463 12-11-2008 08:53:02 7.9 C 6.49 g/m*3 7.9 C 0 km/h
464 12-11-2008 09:05:02 7.8 C 6.45 g/m*3 7.8 C 0 km/h
465 12-11-2008 09:17:02 7.6 C 6.44 g/m*3 7.6 C 0 km/h
466 12-11-2008 09:29:02 7.7 C 6.57 g/m*3 7.7 C 0 km/h
467 12-11-2008 09:41:02 8.2 C 6.7 g/m*3 8.2 C 0 km/h
468 12-11-2008 09:53:02 8.2 C 6.53 g/m*3 8.2 C 0 km/h
469 12-11-2008 10:05:01 8.2 C 6.53 g/m*3 8.2 C 0 km/h
470 12-11-2008 10:17:02 8.9 C 6.57 g/m*3 8.9 C 0 km/h
471 12-11-2008 10:29:02 9.3 C 6.38 g/m*3 9.3 C 0 km/h
472 12-11-2008 10:41:01 9.4 C 6.15 g/m*3 9.4 C 0 km/h
473 12-11-2008 10:53:02 9.6 C 6.32 g/m*3 9.6 C 0 km/h
474 12-11-2008 11:05:01 9.8 C 6.31 g/m*3 9.8 C 0 km/h
475 12-11-2008 11:17:02 10.2 C 6.38 g/m*3 10.2 C 0 km/h
Sensor: Nr:Datum:Temp:Abs-Feuchte:Windchill:Wind:
Aussen-T/F 476 12-11-2008 11:29:02 10.7 C 6.48 g/m*3 10.7 C 0 km/h
477 12-11-2008 11:41:01 10.6 C 6.44 g/m*3 10.6 C 0 km/h
478 12-11-2008 11:53:01 9.9 C 6.63 g/m*3 9.9 C 0 km/h
479 12-11-2008 12:05:01 10.4 C 6.84 g/m*3 10.4 C 0 km/h
480 12-11-2008 12:17:02 10.5 C 6.89 g/m*3 10.5 C 0 km/h
481 12-11-2008 12:29:02 10.4 C 6.65 g/m*3 10.4 C 0 km/h
482 12-11-2008 12:41:01 10.9 C 6.76 g/m*3 10.9 C 0 km/h
483 12-11-2008 12:53:01 11.2 C 6.39 g/m*3 11.2 C 0 km/h
484 12-11-2008 13:05:01 11.8 C 6.31 g/m*3 11.8 C 0 km/h
485 12-11-2008 13:17:01 11.7 C 6.38 g/m*3 11.7 C 0 km/h
486 12-11-2008 13:29:01 11.1 C 6.04 g/m*3 11.1 C 0 km/h
487 12-11-2008 13:41:01 11.5 C 6.09 g/m*3 11.5 C 0 km/h
488 12-11-2008 13:53:01 11.5 C 5.89 g/m*3 11.5 C 0 km/h
489 12-11-2008 14:05:02 11.2 C 5.88 g/m*3 11.2 C 0 km/h
490 12-11-2008 14:17:01 11.9 C 5.93 g/m*3 11.9 C 0 km/h
491 12-11-2008 14:29:01 11.7 C 5.75 g/m*3 11.7 C 0 km/h
492 12-11-2008 14:41:02 11.2 C 5.78 g/m*3 11.2 C 0 km/h
493 12-11-2008 14:53:02 10.9 C 5.97 g/m*3 10.9 C 0 km/h
494 12-11-2008 15:05:02 12 C 5.97 g/m*3 12 C 0 km/h
495 12-11-2008 15:17:01 12.3 C 5.86 g/m*3 12.3 C 0 km/h
496 12-11-2008 15:29:01 11.8 C 5.79 g/m*3 11.8 C 0 km/h
497 12-11-2008 15:41:02 11.1 C 5.84 g/m*3 11.1 C 0 km/h
498 12-11-2008 15:53:02 10.7 C 5.89 g/m*3 10.7 C 0 km/h
499 12-11-2008 16:05:02 10.8 C 5.93 g/m*3 10.8 C 0 km/h
500 12-11-2008 16:17:02 10.8 C 5.93 g/m*3 10.8 C 0 km/h
Sensor: Nr:Datum:Temp:Abs-Feuchte:Windchill:Wind:
Aussen-T/F 501 12-11-2008 16:29:02 10.4 C 5.88 g/m*3 10.4 C 0 km/h
502 12-11-2008 16:41:02 9.9 C 5.98 g/m*3 9.9 C 0 km/h
503 12-11-2008 16:53:02 9.6 C 5.95 g/m*3 9.6 C 0 km/h
504 12-11-2008 17:05:01 9.5 C 6.01 g/m*3 9.5 C 0 km/h
505 12-11-2008 17:17:02 9.2 C 6.07 g/m*3 9.2 C 0 km/h
506 12-11-2008 17:29:02 8.7 C 6.05 g/m*3 8.7 C 0 km/h
507 12-11-2008 17:41:01 8.3 C 5.98 g/m*3 8.3 C 0 km/h
508 12-11-2008 17:53:03 8.1 C 6.07 g/m*3 8.1 C 0 km/h
509 12-11-2008 18:05:02 7.8 C 6.04 g/m*3 7.8 C 0 km/h
510 12-11-2008 18:17:02 7.8 C 6.2 g/m*3 7.8 C 0 km/h
511 12-11-2008 18:29:02 7.6 C 6.2 g/m*3 7.6 C 0 km/h
512 12-11-2008 18:41:02 7.6 C 6.2 g/m*3 7.6 C 0 km/h
513 12-11-2008 18:53:03 7.8 C 6.28 g/m*3 7.8 C 0 km/h
514 12-11-2008 19:05:02 7.7 C 6.24 g/m*3 7.7 C 0 km/h
515 12-11-2008 19:17:02 7.6 C 6.2 g/m*3 7.6 C 0 km/h
516 12-11-2008 19:29:02 7.8 C 6.37 g/m*3 7.8 C 0 km/h
517 12-11-2008 19:41:02 7.7 C 6.32 g/m*3 7.7 C 0 km/h
518 12-11-2008 19:53:02 7.8 C 6.45 g/m*3 7.8 C 0 km/h
519 12-11-2008 20:05:01 7.9 C 6.41 g/m*3 7.9 C 0 km/h
520 12-11-2008 20:17:02 7.9 C 6.41 g/m*3 7.9 C 0 km/h
521 12-11-2008 20:29:02 7.8 C 6.45 g/m*3 7.8 C 0 km/h
522 12-11-2008 20:41:01 7.7 C 6.41 g/m*3 7.7 C 0 km/h
523 12-11-2008 20:53:02 7.4 C 6.28 g/m*3 7.4 C 0 km/h
524 12-11-2008 21:05:01 7.1 C 6.24 g/m*3 7.1 C 0 km/h
525 12-11-2008 21:17:02 7.1 C 6.32 g/m*3 7.1 C 0 km/h
Sensor: Nr:Datum:Temp:Abs-Feuchte:Windchill:Wind:
Aussen-T/F 526 12-11-2008 21:29:02 7.1 C 6.32 g/m*3 7.1 C 0 km/h
527 12-11-2008 21:41:01 7.1 C 6.32 g/m*3 7.1 C 0 km/h
528 12-11-2008 21:53:01 7.1 C 6.4 g/m*3 7.1 C 0 km/h
529 12-11-2008 22:05:02 7.2 C 6.44 g/m*3 7.2 C 0 km/h
530 12-11-2008 22:17:02 7.1 C 6.32 g/m*3 7.1 C 0 km/h
531 12-11-2008 22:29:02 6.8 C 6.27 g/m*3 6.8 C 0 km/h
532 12-11-2008 22:41:01 6.3 C 6.14 g/m*3 6.3 C 0 km/h
533 12-11-2008 22:53:01 6.2 C 6.18 g/m*3 6.2 C 0 km/h
534 12-11-2008 23:05:02 6 C 6.1 g/m*3 6 C 0 km/h
535 12-11-2008 23:17:01 5.7 C 6.05 g/m*3 5.7 C 0 km/h
536 12-11-2008 23:29:01 5.5 C 6.04 g/m*3 5.5 C 0 km/h
537 12-11-2008 23:41:02 5.2 C 5.92 g/m*3 5.2 C 0 km/h
538 12-11-2008 23:53:02 5 C 5.84 g/m*3 5 C 0 km/h
539 13-11-2008 00:05:02 5 C 5.91 g/m*3 5 C 0 km/h
540 13-11-2008 00:17:02 4.8 C 5.9 g/m*3 4.8 C 0 km/h
541 13-11-2008 00:29:02 4.7 C 5.93 g/m*3 4.7 C 0 km/h
542 13-11-2008 00:41:02 4.8 C 6.04 g/m*3 4.8 C 0 km/h
543 13-11-2008 00:53:02 4.8 C 6.04 g/m*3 4.8 C 0 km/h
544 13-11-2008 01:05:02 4.7 C 6.06 g/m*3 4.7 C 0 km/h
545 13-11-2008 01:17:02 4.9 C 6.21 g/m*3 4.9 C 0 km/h
546 13-11-2008 01:29:02 4.8 C 6.17 g/m*3 4.8 C 0 km/h
547 13-11-2008 01:41:02 4.7 C 6.06 g/m*3 4.7 C 0 km/h
548 13-11-2008 01:53:02 4.5 C 5.98 g/m*3 4.5 C 0 km/h
549 13-11-2008 02:05:03 4.2 C 5.86 g/m*3 4.2 C 0 km/h
550 13-11-2008 02:17:02 4 C 5.79 g/m*3 4 C 0 km/h
Sensor: Nr:Datum:Temp:Abs-Feuchte:Windchill:Wind:
Aussen-T/F 551 13-11-2008 02:29:02 3.7 C 5.8 g/m*3 3.7 C 0 km/h
552 13-11-2008 02:41:03 3.7 C 5.8 g/m*3 3.7 C 0 km/h
553 13-11-2008 02:53:01 3.6 C 5.82 g/m*3 3.6 C 0 km/h
554 13-11-2008 03:05:01 3.6 C 5.82 g/m*3 3.6 C 0 km/h
555 13-11-2008 03:17:02 3.6 C 5.88 g/m*3 3.6 C 0 km/h
556 13-11-2008 03:29:02 3.7 C 5.92 g/m*3 3.7 C 0 km/h
557 13-11-2008 03:41:02 3.6 C 5.88 g/m*3 3.6 C 0 km/h
558 13-11-2008 03:53:02 3.5 C 5.84 g/m*3 3.5 C 0 km/h
559 13-11-2008 04:05:01 3.8 C 5.96 g/m*3 3.8 C 0 km/h
560 13-11-2008 04:17:02 3.9 C 6 g/m*3 3.9 C 0 km/h
561 13-11-2008 04:29:02 3.8 C 5.96 g/m*3 3.8 C 0 km/h
562 13-11-2008 04:41:01 4 C 6.04 g/m*3 4 C 0 km/h
563 13-11-2008 04:53:02 4.2 C 6.06 g/m*3 4.2 C 0 km/h
564 13-11-2008 05:05:01 4.3 C 6.1 g/m*3 4.3 C 0 km/h
565 13-11-2008 05:17:02 4.5 C 6.18 g/m*3 4.5 C 0 km/h
566 13-11-2008 05:29:02 4.5 C 6.11 g/m*3 4.5 C 0 km/h
567 13-11-2008 05:41:01 4.6 C 6.15 g/m*3 4.6 C 0 km/h
568 13-11-2008 05:53:02 4.8 C 6.17 g/m*3 4.8 C 0 km/h
569 13-11-2008 06:05:01 4.7 C 6.13 g/m*3 4.7 C 0 km/h
570 13-11-2008 06:17:02 4.7 C 6.13 g/m*3 4.7 C 0 km/h
571 13-11-2008 06:29:02 4.8 C 6.17 g/m*3 4.8 C 0 km/h
572 13-11-2008 06:41:01 4.8 C 6.17 g/m*3 4.8 C 0 km/h
573 13-11-2008 06:53:01 4.8 C 6.17 g/m*3 4.8 C 0 km/h
574 13-11-2008 07:05:01 4.8 C 6.1 g/m*3 4.8 C 0 km/h
575 13-11-2008 07:17:02 4.8 C 6.1 g/m*3 4.8 C 0 km/h
Sensor: Nr:Datum:Temp:Abs-Feuchte:Windchill:Wind:
Aussen-T/F 576 13-11-2008 07:29:02 5 C 6.18 g/m*3 5 C 0 km/h
577 13-11-2008 07:41:01 5.1 C 6.22 g/m*3 5.1 C 0 km/h
578 13-11-2008 07:53:01 5.1 C 6.16 g/m*3 5.1 C 0 km/h
579 13-11-2008 08:05:05 5 C 6.12 g/m*3 5 C 0 km/h
580 13-11-2008 08:17:02 5.1 C 6.16 g/m*3 5.1 C 0 km/h
581 13-11-2008 08:29:02 5.3 C 6.24 g/m*3 5.3 C 0 km/h
582 13-11-2008 08:41:01 5.4 C 6.28 g/m*3 5.4 C 0 km/h
583 13-11-2008 08:53:01 5.6 C 6.36 g/m*3 5.6 C 0 km/h
584 13-11-2008 09:05:01 5.7 C 6.33 g/m*3 5.7 C 0 km/h
585 13-11-2008 09:17:02 5.8 C 6.3 g/m*3 5.8 C 0 km/h
586 13-11-2008 09:29:02 6 C 6.31 g/m*3 6 C 0 km/h
587 13-11-2008 09:41:01 6.3 C 6.37 g/m*3 6.3 C 0 km/h
588 13-11-2008 09:53:01 6.6 C 6.49 g/m*3 6.6 C 0 km/h
589 13-11-2008 10:05:02 6.9 C 6.54 g/m*3 6.9 C 0 km/h
590 13-11-2008 10:17:01 7 C 6.35 g/m*3 7 C 0 km/h
591 13-11-2008 10:29:01 7.2 C 6.2 g/m*3 7.2 C 0 km/h
592 13-11-2008 10:41:02 7.3 C 6.24 g/m*3 7.3 C 0 km/h
593 13-11-2008 10:53:01 7.1 C 6.16 g/m*3 7.1 C 0 km/h
594 13-11-2008 11:05:02 7 C 6.12 g/m*3 7 C 0 km/h
595 13-11-2008 11:17:01 7.5 C 6.32 g/m*3 7.5 C 0 km/h
596 13-11-2008 11:29:01 8.1 C 6.24 g/m*3 8.1 C 0 km/h
597 13-11-2008 11:41:02 8.3 C 6.15 g/m*3 8.3 C 0 km/h
598 13-11-2008 11:53:01 8.7 C 6.23 g/m*3 8.7 C 0 km/h
599 13-11-2008 12:05:02 8.6 C 6.1 g/m*3 8.6 C 0 km/h
600 13-11-2008 12:17:02 8.8 C 6.18 g/m*3 8.8 C 0 km/h
Sensor: Nr:Datum:Temp:Abs-Feuchte:Windchill:Wind:
Aussen-T/F 601 13-11-2008 12:29:02 9 C 6.08 g/m*3 9 C 0 km/h
602 13-11-2008 12:41:02 9.2 C 6.07 g/m*3 9.2 C 0 km/h
603 13-11-2008 12:53:01 9.3 C 6.02 g/m*3 9.3 C 0 km/h
604 13-11-2008 13:05:02 9.4 C 5.97 g/m*3 9.4 C 0 km/h
605 13-11-2008 13:17:01 9.5 C 5.92 g/m*3 9.5 C 0 km/h
606 13-11-2008 13:29:01 9.6 C 5.95 g/m*3 9.6 C 0 km/h
607 13-11-2008 13:41:02 9.6 C 5.86 g/m*3 9.6 C 0 km/h
608 13-11-2008 13:53:01 9.8 C 5.85 g/m*3 9.8 C 0 km/h
609 13-11-2008 14:05:02 9.9 C 5.79 g/m*3 9.9 C 0 km/h
610 13-11-2008 14:17:01 9.9 C 5.79 g/m*3 9.9 C 0 km/h
611 13-11-2008 14:29:01 10 C 5.83 g/m*3 10 C 0 km/h
612 13-11-2008 14:41:02 10 C 5.83 g/m*3 10 C 0 km/h
613 13-11-2008 14:53:01 10 C 5.83 g/m*3 10 C 0 km/h
614 13-11-2008 15:05:01 9.8 C 5.85 g/m*3 9.8 C 0 km/h
615 13-11-2008 15:17:01 9.8 C 5.94 g/m*3 9.8 C 0 km/h
616 13-11-2008 15:29:01 9.8 C 5.94 g/m*3 9.8 C 0 km/h
617 13-11-2008 15:41:02 9.7 C 5.9 g/m*3 9.7 C 0 km/h
618 13-11-2008 15:53:02 9.6 C 5.95 g/m*3 9.6 C 0 km/h
619 13-11-2008 16:05:01 9.5 C 5.92 g/m*3 9.5 C 0 km/h
620 13-11-2008 16:17:02 9.4 C 6.06 g/m*3 9.4 C 0 km/h
621 13-11-2008 16:29:02 9.2 C 6.16 g/m*3 9.2 C 0 km/h
622 13-11-2008 16:41:01 8.9 C 6.22 g/m*3 8.9 C 0 km/h
623 13-11-2008 16:53:01 8.7 C 6.23 g/m*3 8.7 C 0 km/h
624 13-11-2008 17:05:01 8.5 C 6.23 g/m*3 8.5 C 0 km/h
625 13-11-2008 17:17:01 8.4 C 6.28 g/m*3 8.4 C 0 km/h
Sensor: Nr:Datum:Temp:Abs-Feuchte:Windchill:Wind:
Aussen-T/F 626 13-11-2008 17:29:01 8.2 C 6.28 g/m*3 8.2 C 0 km/h
627 13-11-2008 17:41:01 8.2 C 6.2 g/m*3 8.2 C 0 km/h
628 13-11-2008 17:53:01 8.1 C 6.16 g/m*3 8.1 C 0 km/h
629 13-11-2008 18:05:02 8.1 C 6.16 g/m*3 8.1 C 0 km/h
630 13-11-2008 18:17:01 7.9 C 6.08 g/m*3 7.9 C 0 km/h
631 13-11-2008 18:29:01 7.7 C 6 g/m*3 7.7 C 0 km/h
632 13-11-2008 18:41:02 7.7 C 6 g/m*3 7.7 C 0 km/h
633 13-11-2008 18:53:01 7.6 C 6.04 g/m*3 7.6 C 0 km/h
634 13-11-2008 19:05:02 7.7 C 6.08 g/m*3 7.7 C 0 km/h
635 13-11-2008 19:17:01 7.6 C 6.04 g/m*3 7.6 C 0 km/h
636 13-11-2008 19:29:01 7.5 C 6 g/m*3 7.5 C 0 km/h
637 13-11-2008 19:41:02 7.3 C 5.93 g/m*3 7.3 C 0 km/h
638 13-11-2008 19:53:02 7.3 C 6 g/m*3 7.3 C 0 km/h
639 13-11-2008 20:05:01 7.1 C 5.93 g/m*3 7.1 C 0 km/h
640 13-11-2008 20:17:01 7.1 C 6.01 g/m*3 7.1 C 0 km/h
641 13-11-2008 20:29:01 7 C 5.97 g/m*3 7 C 0 km/h
642 13-11-2008 20:41:01 6.9 C 6 g/m*3 6.9 C 0 km/h
643 13-11-2008 20:53:02 6.5 C 5.85 g/m*3 6.5 C 0 km/h
644 13-11-2008 21:05:01 6.1 C 5.7 g/m*3 6.1 C 0 km/h
645 13-11-2008 21:17:02 5.9 C 5.77 g/m*3 5.9 C 0 km/h
646 13-11-2008 21:29:02 5.8 C 5.73 g/m*3 5.8 C 0 km/h
647 13-11-2008 21:41:01 5.6 C 5.73 g/m*3 5.6 C 0 km/h
648 13-11-2008 21:53:01 5.4 C 5.65 g/m*3 5.4 C 0 km/h
649 13-11-2008 22:05:02 5.1 C 5.61 g/m*3 5.1 C 0 km/h
650 13-11-2008 22:17:01 4.8 C 5.63 g/m*3 4.8 C 0 km/h
Sensor: Nr:Datum:Temp:Abs-Feuchte:Windchill:Wind:
Aussen-T/F 651 13-11-2008 22:29:01 4.6 C 5.56 g/m*3 4.6 C 0 km/h
652 13-11-2008 22:41:02 4.4 C 5.55 g/m*3 4.4 C 0 km/h
653 13-11-2008 22:53:01 4.3 C 5.51 g/m*3 4.3 C 0 km/h
654 13-11-2008 23:05:01 4.4 C 5.62 g/m*3 4.4 C 0 km/h
655 13-11-2008 23:17:02 4.2 C 5.61 g/m*3 4.2 C 0 km/h
656 13-11-2008 23:29:02 3.8 C 5.46 g/m*3 3.8 C 0 km/h
657 13-11-2008 23:41:02 3.7 C 5.48 g/m*3 3.7 C 0 km/h
658 13-11-2008 23:53:01 3.5 C 5.41 g/m*3 3.5 C 0 km/h
659 14-11-2008 00:05:02 3.5 C 5.47 g/m*3 3.5 C 0 km/h
660 14-11-2008 00:17:02 3.5 C 5.47 g/m*3 3.5 C 0 km/h
661 14-11-2008 00:29:02 3.6 C 5.57 g/m*3 3.6 C 0 km/h
662 14-11-2008 00:41:02 3.6 C 5.57 g/m*3 3.6 C 0 km/h
663 14-11-2008 00:53:02 3.4 C 5.5 g/m*3 3.4 C 0 km/h
664 14-11-2008 01:05:02 3.1 C 5.39 g/m*3 3.1 C 0 km/h
665 14-11-2008 01:17:02 2.7 C 5.24 g/m*3 2.7 C 0 km/h
666 14-11-2008 01:29:02 2.6 C 5.27 g/m*3 2.6 C 0 km/h
667 14-11-2008 01:41:01 2.6 C 5.27 g/m*3 2.6 C 0 km/h
668 14-11-2008 01:53:01 2.5 C 5.23 g/m*3 2.5 C 0 km/h
669 14-11-2008 02:05:01 2.2 C 5.13 g/m*3 2.2 C 0 km/h
670 14-11-2008 02:17:01 2.2 C 5.13 g/m*3 2.2 C 0 km/h
671 14-11-2008 02:29:01 2.1 C 5.09 g/m*3 2.1 C 0 km/h
672 14-11-2008 02:41:01 2.5 C 5.29 g/m*3 2.5 C 0 km/h
673 14-11-2008 02:54:06 2.3 C 5.22 g/m*3 2.3 C 0 km/h
674 14-11-2008 03:06:06 2.5 C 5.29 g/m*3 2.5 C 0 km/h
675 14-11-2008 03:18:07 2.3 C 5.22 g/m*3 2.3 C 0 km/h
Sensor: Nr:Datum:Temp:Abs-Feuchte:Windchill:Wind:
Aussen-T/F 676 14-11-2008 03:30:07 2 C 5.11 g/m*3 2 C 0 km/h
677 14-11-2008 03:42:02 1.9 C 5.13 g/m*3 1.9 C 0 km/h
678 14-11-2008 03:54:02 1.7 C 5.06 g/m*3 1.7 C 0 km/h
679 14-11-2008 04:06:02 1.9 C 5.19 g/m*3 1.9 C 0 km/h
680 14-11-2008 04:18:02 1.8 C 5.15 g/m*3 1.8 C 0 km/h
681 14-11-2008 04:30:02 1.9 C 5.19 g/m*3 1.9 C 0 km/h
682 14-11-2008 04:42:02 2 C 5.22 g/m*3 2 C 0 km/h
683 14-11-2008 04:54:02 2 C 5.22 g/m*3 2 C 0 km/h
684 14-11-2008 05:06:02 2 C 5.28 g/m*3 2 C 0 km/h
685 14-11-2008 05:18:02 2.1 C 5.31 g/m*3 2.1 C 0 km/h
686 14-11-2008 05:30:02 2.2 C 5.35 g/m*3 2.2 C 0 km/h
687 14-11-2008 05:42:02 2.2 C 5.35 g/m*3 2.2 C 0 km/h
688 14-11-2008 05:54:01 2.2 C 5.35 g/m*3 2.2 C 0 km/h
689 14-11-2008 06:06:02 2.3 C 5.39 g/m*3 2.3 C 0 km/h
690 14-11-2008 06:18:02 2.2 C 5.29 g/m*3 2.2 C 0 km/h
691 14-11-2008 06:30:02 2.1 C 5.26 g/m*3 2.1 C 0 km/h
692 14-11-2008 06:42:01 2 C 5.22 g/m*3 2 C 0 km/h
693 14-11-2008 06:54:01 1.8 C 5.15 g/m*3 1.8 C 0 km/h
694 14-11-2008 07:06:02 1.7 C 5.06 g/m*3 1.7 C 0 km/h
695 14-11-2008 07:18:02 1.5 C 4.99 g/m*3 1.5 C 0 km/h
696 14-11-2008 07:30:02 1.4 C 4.91 g/m*3 1.4 C 0 km/h
697 14-11-2008 07:42:02 1.6 C 5.03 g/m*3 1.6 C 0 km/h
698 14-11-2008 07:54:02 1.9 C 5.13 g/m*3 1.9 C 0 km/h
699 14-11-2008 08:06:02 2 C 5.11 g/m*3 2 C 0 km/h
700 14-11-2008 08:18:01 2.2 C 5.18 g/m*3 2.2 C 0 km/h
Sensor: Nr:Datum:Temp:Abs-Feuchte:Windchill:Wind:
Aussen-T/F 701 14-11-2008 08:30:01 2.1 C 5.09 g/m*3 2.1 C 0 km/h
702 14-11-2008 08:42:02 2.2 C 5.13 g/m*3 2.2 C 0 km/h
703 14-11-2008 08:54:02 2.5 C 5.17 g/m*3 2.5 C 0 km/h
704 14-11-2008 09:06:02 2.9 C 5.26 g/m*3 2.9 C 0 km/h
705 14-11-2008 09:18:02 3.3 C 5.34 g/m*3 3.3 C 0 km/h
706 14-11-2008 09:30:02 3.6 C 5.45 g/m*3 3.6 C 0 km/h
707 14-11-2008 09:42:02 3.9 C 5.49 g/m*3 3.9 C 0 km/h
708 14-11-2008 09:54:02 4.2 C 5.48 g/m*3 4.2 C 0 km/h
709 14-11-2008 10:06:01 4.5 C 5.52 g/m*3 4.5 C 0 km/h
710 14-11-2008 10:18:02 4.7 C 5.53 g/m*3 4.7 C 0 km/h
711 14-11-2008 10:30:02 4.6 C 5.29 g/m*3 4.6 C 0 km/h
712 14-11-2008 10:42:01 5.1 C 5.27 g/m*3 5.1 C 0 km/h
713 14-11-2008 10:54:03 5.6 C 5.16 g/m*3 5.6 C 0 km/h
714 14-11-2008 11:06:02 5.7 C 5.12 g/m*3 5.7 C 0 km/h
715 14-11-2008 11:18:02 6 C 5.23 g/m*3 6 C 0 km/h
716 14-11-2008 11:30:02 6.8 C 4.97 g/m*3 6.8 C 0 km/h
717 14-11-2008 11:42:02 7.5 C 4.72 g/m*3 7.5 C 0 km/h
718 14-11-2008 11:54:02 8.2 C 4.61 g/m*3 8.2 C 0 km/h
719 14-11-2008 12:06:02 8.8 C 4.44 g/m*3 8.8 C 0 km/h
720 14-11-2008 12:18:02 9 C 4.32 g/m*3 9 C 0 km/h
721 14-11-2008 12:30:02 9 C 4.32 g/m*3 9 C 0 km/h
722 14-11-2008 12:42:02 8.9 C 4.38 g/m*3 8.9 C 0 km/h
723 14-11-2008 12:54:02 9 C 4.41 g/m*3 9 C 0 km/h
724 14-11-2008 13:06:02 8.9 C 4.38 g/m*3 8.9 C 0 km/h
725 14-11-2008 13:18:02 9.1 C 4.35 g/m*3 9.1 C 0 km/h
Sensor: Nr:Datum:Temp:Abs-Feuchte:Windchill:Wind:
Aussen-T/F 726 14-11-2008 13:30:02 9.1 C 4.35 g/m*3 9.1 C 0 km/h
727 14-11-2008 13:42:02 8.9 C 4.38 g/m*3 8.9 C 0 km/h
728 14-11-2008 13:54:01 8.8 C 4.44 g/m*3 8.8 C 0 km/h
729 14-11-2008 14:06:02 8.8 C 4.61 g/m*3 8.8 C 0 km/h
730 14-11-2008 14:18:02 8.7 C 4.84 g/m*3 8.7 C 0 km/h
731 14-11-2008 14:30:02 8.6 C 4.81 g/m*3 8.6 C 0 km/h
732 14-11-2008 14:42:02 8.5 C 4.87 g/m*3 8.5 C 0 km/h
733 14-11-2008 14:54:02 8.5 C 4.95 g/m*3 8.5 C 0 km/h
734 14-11-2008 15:06:02 8.2 C 5.19 g/m*3 8.2 C 0 km/h
735 14-11-2008 15:18:01 7.9 C 5.5 g/m*3 7.9 C 0 km/h
736 14-11-2008 15:30:01 7.8 C 5.63 g/m*3 7.8 C 0 km/h
737 14-11-2008 15:42:02 7.6 C 5.64 g/m*3 7.6 C 0 km/h
738 14-11-2008 15:54:02 7.5 C 5.76 g/m*3 7.5 C 0 km/h
739 14-11-2008 16:06:02 7.8 C 5.79 g/m*3 7.8 C 0 km/h
740 14-11-2008 16:18:02 7.9 C 5.83 g/m*3 7.9 C 0 km/h
741 14-11-2008 16:30:02 8 C 5.87 g/m*3 8 C 0 km/h
742 14-11-2008 16:42:02 8.1 C 5.82 g/m*3 8.1 C 0 km/h
743 14-11-2008 16:54:02 8.1 C 5.74 g/m*3 8.1 C 0 km/h
744 14-11-2008 17:06:02 8.1 C 5.82 g/m*3 8.1 C 0 km/h
745 14-11-2008 17:18:01 8.1 C 5.82 g/m*3 8.1 C 0 km/h
746 14-11-2008 17:30:01 8.1 C 5.82 g/m*3 8.1 C 0 km/h
747 14-11-2008 17:42:02 8.1 C 5.74 g/m*3 8.1 C 0 km/h
748 14-11-2008 17:54:02 8.1 C 5.82 g/m*3 8.1 C 0 km/h
749 14-11-2008 18:06:02 8.1 C 5.82 g/m*3 8.1 C 0 km/h
750 14-11-2008 18:18:02 8.1 C 5.74 g/m*3 8.1 C 0 km/h
Sensor: Nr:Datum:Temp:Abs-Feuchte:Windchill:Wind:
Aussen-T/F 751 14-11-2008 18:30:02 8.1 C 5.74 g/m*3 8.1 C 0 km/h
752 14-11-2008 18:42:02 8.1 C 5.74 g/m*3 8.1 C 0 km/h
753 14-11-2008 18:54:02 8.1 C 5.74 g/m*3 8.1 C 0 km/h
754 14-11-2008 19:06:02 8.2 C 5.86 g/m*3 8.2 C 0 km/h
755 14-11-2008 19:18:02 8.1 C 5.74 g/m*3 8.1 C 0 km/h
756 14-11-2008 19:30:03 8.1 C 5.82 g/m*3 8.1 C 0 km/h
757 14-11-2008 19:42:02 8.1 C 5.82 g/m*3 8.1 C 0 km/h
758 14-11-2008 19:54:01 8.1 C 5.82 g/m*3 8.1 C 0 km/h
759 14-11-2008 20:06:02 8.1 C 5.82 g/m*3 8.1 C 0 km/h
760 14-11-2008 20:18:01 8.1 C 5.91 g/m*3 8.1 C 0 km/h
761 14-11-2008 20:30:01 8 C 5.95 g/m*3 8 C 0 km/h
762 14-11-2008 20:42:02 8 C 5.95 g/m*3 8 C 0 km/h
763 14-11-2008 20:54:02 8 C 5.95 g/m*3 8 C 0 km/h
764 14-11-2008 21:06:02 8 C 5.95 g/m*3 8 C 0 km/h
765 14-11-2008 21:18:02 8 C 5.95 g/m*3 8 C 0 km/h
766 14-11-2008 21:30:02 8 C 5.95 g/m*3 8 C 0 km/h
767 14-11-2008 21:42:02 7.9 C 6 g/m*3 7.9 C 0 km/h
768 14-11-2008 21:54:02 7.9 C 6 g/m*3 7.9 C 0 km/h
769 14-11-2008 22:06:01 8 C 5.95 g/m*3 8 C 0 km/h
770 14-11-2008 22:18:02 8 C 5.95 g/m*3 8 C 0 km/h
771 14-11-2008 22:30:02 8 C 5.95 g/m*3 8 C 0 km/h
772 14-11-2008 22:43:01 8 C 6.04 g/m*3 8 C 0 km/h
773 14-11-2008 22:55:01 8 C 6.12 g/m*3 8 C 0 km/h
774 14-11-2008 23:07:01 8.1 C 6.16 g/m*3 8.1 C 0 km/h
775 14-11-2008 23:19:01 8.2 C 6.28 g/m*3 8.2 C 0 km/h
Sensor: Nr:Datum:Temp:Abs-Feuchte:Windchill:Wind:
Aussen-T/F 776 14-11-2008 23:31:01 8.2 C 6.28 g/m*3 8.2 C 0 km/h
777 14-11-2008 23:43:01 8.1 C 6.24 g/m*3 8.1 C 0 km/h
778 14-11-2008 23:55:01 8.1 C 6.32 g/m*3 8.1 C 0 km/h
779 15-11-2008 00:07:01 8.1 C 6.32 g/m*3 8.1 C 0 km/h
780 15-11-2008 00:19:01 8.1 C 6.32 g/m*3 8.1 C 0 km/h
781 15-11-2008 00:31:01 8.1 C 6.41 g/m*3 8.1 C 0 km/h
782 15-11-2008 00:43:02 8.1 C 6.41 g/m*3 8.1 C 0 km/h
783 15-11-2008 00:55:02 8.1 C 6.49 g/m*3 8.1 C 0 km/h
784 15-11-2008 01:07:02 8.1 C 6.49 g/m*3 8.1 C 0 km/h
785 15-11-2008 01:19:02 8 C 6.45 g/m*3 8 C 0 km/h
786 15-11-2008 01:31:02 8 C 6.53 g/m*3 8 C 0 km/h
787 15-11-2008 01:43:02 8.1 C 6.57 g/m*3 8.1 C 0 km/h
788 15-11-2008 01:55:02 8.1 C 6.57 g/m*3 8.1 C 0 km/h
789 15-11-2008 02:07:02 8.2 C 6.62 g/m*3 8.2 C 0 km/h
790 15-11-2008 02:19:02 8.2 C 6.62 g/m*3 8.2 C 0 km/h
791 15-11-2008 02:31:02 8.2 C 6.62 g/m*3 8.2 C 0 km/h
792 15-11-2008 02:43:02 8.2 C 6.62 g/m*3 8.2 C 0 km/h
793 15-11-2008 02:55:02 8.2 C 6.62 g/m*3 8.2 C 0 km/h
794 15-11-2008 03:07:02 8.2 C 6.62 g/m*3 8.2 C 0 km/h
795 15-11-2008 03:19:02 8.2 C 6.62 g/m*3 8.2 C 0 km/h
796 15-11-2008 03:31:02 8.2 C 6.62 g/m*3 8.2 C 0 km/h
797 15-11-2008 03:43:02 8.2 C 6.7 g/m*3 8.2 C 0 km/h
798 15-11-2008 03:55:02 8.2 C 6.7 g/m*3 8.2 C 0 km/h
799 15-11-2008 04:07:02 8.2 C 6.7 g/m*3 8.2 C 0 km/h
800 15-11-2008 04:19:02 8.2 C 6.7 g/m*3 8.2 C 0 km/h
Sensor: Nr:Datum:Temp:Abs-Feuchte:Windchill:Wind:
Aussen-T/F 801 15-11-2008 04:31:03 8.3 C 6.83 g/m*3 8.3 C 0 km/h
802 15-11-2008 04:43:03 8.4 C 6.87 g/m*3 8.4 C 0 km/h
803 15-11-2008 04:55:03 8.5 C 6.92 g/m*3 8.5 C 0 km/h
804 15-11-2008 05:07:03 8.5 C 6.92 g/m*3 8.5 C 0 km/h
805 15-11-2008 05:19:03 8.6 C 6.96 g/m*3 8.6 C 0 km/h
806 15-11-2008 05:31:03 8.7 C 7.01 g/m*3 8.7 C 0 km/h
807 15-11-2008 05:43:03 8.8 C 6.96 g/m*3 8.8 C 0 km/h
808 15-11-2008 05:55:03 8.8 C 6.96 g/m*3 8.8 C 0 km/h
809 15-11-2008 06:07:03 8.8 C 6.96 g/m*3 8.8 C 0 km/h
810 15-11-2008 06:19:03 8.8 C 6.96 g/m*3 8.8 C 0 km/h
811 15-11-2008 06:31:03 8.8 C 6.96 g/m*3 8.8 C 0 km/h
812 15-11-2008 06:43:03 8.9 C 7.01 g/m*3 8.9 C 0 km/h
813 15-11-2008 06:55:03 8.9 C 7.01 g/m*3 8.9 C 0 km/h
814 15-11-2008 07:07:03 9 C 6.96 g/m*3 9 C 0 km/h
815 15-11-2008 07:19:03 9 C 6.96 g/m*3 9 C 0 km/h
816 15-11-2008 07:31:03 9 C 6.96 g/m*3 9 C 0 km/h
817 15-11-2008 07:43:03 9 C 7.05 g/m*3 9 C 0 km/h
818 15-11-2008 07:55:03 9.4 C 7.15 g/m*3 9.4 C 0 km/h
819 15-11-2008 08:07:03 9.1 C 7.01 g/m*3 9.1 C 0 km/h
820 15-11-2008 08:19:01 9.3 C 7.1 g/m*3 9.3 C 0 km/h
821 15-11-2008 08:31:01 9.3 C 7.1 g/m*3 9.3 C 0 km/h
822 15-11-2008 08:43:01 9.3 C 7.01 g/m*3 9.3 C 0 km/h
823 15-11-2008 08:55:02 9.3 C 7.01 g/m*3 9.3 C 0 km/h
824 15-11-2008 09:07:02 9.4 C 7.05 g/m*3 9.4 C 0 km/h
825 15-11-2008 09:19:03 9.5 C 7.1 g/m*3 9.5 C 0 km/h
Sensor: Nr:Datum:Temp:Abs-Feuchte:Windchill:Wind:
Aussen-T/F 826 15-11-2008 09:31:02 9.5 C 7.01 g/m*3 9.5 C 0 km/h
827 15-11-2008 09:43:02 9.6 C 7.05 g/m*3 9.6 C 0 km/h
828 15-11-2008 09:55:02 9.6 C 7.05 g/m*3 9.6 C 0 km/h
829 15-11-2008 10:07:02 9.6 C 7.05 g/m*3 9.6 C 0 km/h
830 15-11-2008 10:19:02 9.7 C 7.01 g/m*3 9.7 C 0 km/h
831 15-11-2008 10:31:02 9.7 C 7.01 g/m*3 9.7 C 0 km/h
832 15-11-2008 10:43:03 9.8 C 7.05 g/m*3 9.8 C 0 km/h
833 15-11-2008 10:55:01 9.8 C 7.05 g/m*3 9.8 C 0 km/h
834 15-11-2008 11:07:02 9.8 C 7.05 g/m*3 9.8 C 0 km/h
835 15-11-2008 11:19:01 9.9 C 7.1 g/m*3 9.9 C 0 km/h
836 15-11-2008 11:31:02 10.1 C 7.09 g/m*3 10.1 C 0 km/h
837 15-11-2008 11:43:02 10.2 C 7.04 g/m*3 10.2 C 0 km/h
838 15-11-2008 11:55:02 10.4 C 7.13 g/m*3 10.4 C 0 km/h
839 15-11-2008 12:07:02 10.4 C 7.04 g/m*3 10.4 C 0 km/h
840 15-11-2008 12:19:02 10.6 C 7.03 g/m*3 10.6 C 0 km/h
841 15-11-2008 12:31:02 10.6 C 7.03 g/m*3 10.6 C 0 km/h
842 15-11-2008 12:43:02 10.7 C 7.07 g/m*3 10.7 C 0 km/h
843 15-11-2008 12:55:02 10.8 C 7.02 g/m*3 10.8 C 0 km/h
844 15-11-2008 13:07:01 11 C 6.91 g/m*3 11 C 0 km/h
845 15-11-2008 13:19:02 11 C 6.81 g/m*3 11 C 0 km/h
846 15-11-2008 13:31:02 11.1 C 6.85 g/m*3 11.1 C 0 km/h
847 15-11-2008 13:43:02 11.2 C 6.79 g/m*3 11.2 C 0 km/h
848 15-11-2008 13:55:02 11.3 C 6.83 g/m*3 11.3 C 0 km/h
849 15-11-2008 14:07:02 11.3 C 6.83 g/m*3 11.3 C 0 km/h
850 15-11-2008 14:19:02 11.3 C 6.83 g/m*3 11.3 C 0 km/h
Sensor: Nr:Datum:Temp:Abs-Feuchte:Windchill:Wind:
Aussen-T/F 851 15-11-2008 14:31:02 11.4 C 6.88 g/m*3 11.4 C 0 km/h
852 15-11-2008 14:43:02 11.4 C 6.88 g/m*3 11.4 C 0 km/h
853 15-11-2008 14:55:02 11.4 C 6.88 g/m*3 11.4 C 0 km/h
854 15-11-2008 15:07:02 11.3 C 6.94 g/m*3 11.3 C 0 km/h
855 15-11-2008 15:19:02 11.3 C 6.94 g/m*3 11.3 C 0 km/h
856 15-11-2008 15:31:02 11.3 C 6.94 g/m*3 11.3 C 0 km/h
857 15-11-2008 15:43:02 11.2 C 6.99 g/m*3 11.2 C 0 km/h
858 15-11-2008 15:55:02 11.2 C 6.99 g/m*3 11.2 C 0 km/h
859 15-11-2008 16:07:02 11.1 C 7.05 g/m*3 11.1 C 0 km/h
860 15-11-2008 16:19:02 11 C 7.01 g/m*3 11 C 0 km/h
861 15-11-2008 16:31:02 11 C 7.11 g/m*3 11 C 0 km/h
862 15-11-2008 16:43:02 11 C 7.11 g/m*3 11 C 0 km/h
863 15-11-2008 16:55:01 11 C 7.11 g/m*3 11 C 0 km/h
864 15-11-2008 17:07:02 10.9 C 7.16 g/m*3 10.9 C 0 km/h
865 15-11-2008 17:19:02 10.9 C 7.26 g/m*3 10.9 C 0 km/h
866 15-11-2008 17:31:02 10.9 C 7.26 g/m*3 10.9 C 0 km/h
867 15-11-2008 17:43:02 10.8 C 7.22 g/m*3 10.8 C 0 km/h
868 15-11-2008 17:55:02 10.8 C 7.31 g/m*3 10.8 C 0 km/h
869 15-11-2008 18:07:03 10.8 C 7.31 g/m*3 10.8 C 0 km/h
870 15-11-2008 18:19:02 10.7 C 7.27 g/m*3 10.7 C 0 km/h
871 15-11-2008 18:31:03 10.8 C 7.31 g/m*3 10.8 C 0 km/h
872 15-11-2008 18:43:03 10.7 C 7.27 g/m*3 10.7 C 0 km/h
873 15-11-2008 18:55:02 10.7 C 7.27 g/m*3 10.7 C 0 km/h
874 15-11-2008 19:07:02 10.7 C 7.27 g/m*3 10.7 C 0 km/h
875 15-11-2008 19:19:02 10.7 C 7.27 g/m*3 10.7 C 0 km/h
Sensor: Nr:Datum:Temp:Abs-Feuchte:Windchill:Wind:
Aussen-T/F 876 15-11-2008 19:31:02 10.7 C 7.27 g/m*3 10.7 C 0 km/h
877 15-11-2008 19:43:02 10.7 C 7.27 g/m*3 10.7 C 0 km/h
878 15-11-2008 19:55:01 10.7 C 7.37 g/m*3 10.7 C 0 km/h
879 15-11-2008 20:07:02 10.7 C 7.37 g/m*3 10.7 C 0 km/h
880 15-11-2008 20:19:01 10.6 C 7.32 g/m*3 10.6 C 0 km/h
881 15-11-2008 20:31:01 10.6 C 7.32 g/m*3 10.6 C 0 km/h
882 15-11-2008 20:43:01 10.6 C 7.42 g/m*3 10.6 C 0 km/h
883 15-11-2008 20:55:02 10.6 C 7.42 g/m*3 10.6 C 0 km/h
884 15-11-2008 21:07:02 10.5 C 7.47 g/m*3 10.5 C 0 km/h
885 15-11-2008 21:19:02 10.5 C 7.47 g/m*3 10.5 C 0 km/h
886 15-11-2008 21:31:02 10.5 C 7.47 g/m*3 10.5 C 0 km/h
887 15-11-2008 21:43:02 10.5 C 7.57 g/m*3 10.5 C 0 km/h
888 15-11-2008 21:55:02 10.5 C 7.57 g/m*3 10.5 C 0 km/h
889 15-11-2008 22:07:01 10.5 C 7.57 g/m*3 10.5 C 0 km/h
890 15-11-2008 22:19:02 10.5 C 7.57 g/m*3 10.5 C 0 km/h
891 15-11-2008 22:31:01 10.5 C 7.57 g/m*3 10.5 C 0 km/h
892 15-11-2008 22:43:01 10.4 C 7.52 g/m*3 10.4 C 0 km/h
893 15-11-2008 22:55:02 10.4 C 7.61 g/m*3 10.4 C 0 km/h
894 15-11-2008 23:07:01 10.4 C 7.61 g/m*3 10.4 C 0 km/h
895 15-11-2008 23:20:02 10.4 C 7.61 g/m*3 10.4 C 0 km/h
896 15-11-2008 23:32:02 10.4 C 7.61 g/m*3 10.4 C 0 km/h
897 15-11-2008 23:44:02 10.4 C 7.61 g/m*3 10.4 C 0 km/h
898 15-11-2008 23:56:03 10.3 C 7.66 g/m*3 10.3 C 0 km/h
899 16-11-2008 00:08:03 10.2 C 7.71 g/m*3 10.2 C 0 km/h
900 16-11-2008 00:20:03 10.1 C 7.85 g/m*3 10.1 C 0 km/h
Sensor: Nr:Datum:Temp:Abs-Feuchte:Windchill:Wind:
Aussen-T/F 901 16-11-2008 00:32:03 10 C 7.8 g/m*3 10 C 0 km/h
902 16-11-2008 00:44:03 10.1 C 7.94 g/m*3 10.1 C 0 km/h
903 16-11-2008 00:56:03 10 C 7.89 g/m*3 10 C 0 km/h
904 16-11-2008 01:08:03 10.1 C 7.94 g/m*3 10.1 C 0 km/h
905 16-11-2008 01:20:03 10.1 C 7.94 g/m*3 10.1 C 0 km/h
906 16-11-2008 01:32:03 10.1 C 7.94 g/m*3 10.1 C 0 km/h
907 16-11-2008 01:44:03 10.1 C 7.94 g/m*3 10.1 C 0 km/h
908 16-11-2008 01:56:03 10 C 7.99 g/m*3 10 C 0 km/h
909 16-11-2008 02:08:03 9.9 C 8.12 g/m*3 9.9 C 0 km/h
910 16-11-2008 02:20:03 10 C 8.08 g/m*3 10 C 0 km/h
911 16-11-2008 02:32:03 10.1 C 8.13 g/m*3 10.1 C 0 km/h
912 16-11-2008 02:44:03 10.2 C 8.18 g/m*3 10.2 C 0 km/h
913 16-11-2008 02:56:03 10.3 C 8.14 g/m*3 10.3 C 0 km/h
914 16-11-2008 03:08:03 10.3 C 8.04 g/m*3 10.3 C 0 km/h
915 16-11-2008 03:20:03 10.4 C 8 g/m*3 10.4 C 0 km/h
916 16-11-2008 03:32:03 10.4 C 8 g/m*3 10.4 C 0 km/h
917 16-11-2008 03:44:04 10.4 C 7.9 g/m*3 10.4 C 0 km/h
918 16-11-2008 03:56:04 10.4 C 7.9 g/m*3 10.4 C 0 km/h
919 16-11-2008 04:08:04 10.4 C 7.9 g/m*3 10.4 C 0 km/h
920 16-11-2008 04:20:04 10.5 C 7.95 g/m*3 10.5 C 0 km/h
921 16-11-2008 04:32:04 10.4 C 7.9 g/m*3 10.4 C 0 km/h
922 16-11-2008 04:44:04 10.5 C 7.95 g/m*3 10.5 C 0 km/h
923 16-11-2008 04:56:04 10.6 C 7.91 g/m*3 10.6 C 0 km/h
924 16-11-2008 05:08:04 10.7 C 7.86 g/m*3 10.7 C 0 km/h
925 16-11-2008 05:20:04 10.7 C 7.86 g/m*3 10.7 C 0 km/h
Sensor: Nr:Datum:Temp:Abs-Feuchte:Windchill:Wind:
Aussen-T/F 926 16-11-2008 05:32:04 10.7 C 7.86 g/m*3 10.7 C 0 km/h
927 16-11-2008 05:44:04 10.8 C 7.91 g/m*3 10.8 C 0 km/h
928 16-11-2008 05:56:04 10.8 C 7.81 g/m*3 10.8 C 0 km/h
929 16-11-2008 06:08:04 10.7 C 7.86 g/m*3 10.7 C 0 km/h
930 16-11-2008 06:20:04 10.5 C 7.86 g/m*3 10.5 C 0 km/h
931 16-11-2008 06:32:04 10.2 C 7.99 g/m*3 10.2 C 0 km/h
932 16-11-2008 06:44:04 10.3 C 8.14 g/m*3 10.3 C 0 km/h
933 16-11-2008 06:56:04 10.4 C 8.1 g/m*3 10.4 C 0 km/h
934 16-11-2008 07:08:04 10.5 C 8.15 g/m*3 10.5 C 0 km/h
935 16-11-2008 07:20:04 10.6 C 8.1 g/m*3 10.6 C 0 km/h
936 16-11-2008 07:32:04 10.7 C 8.05 g/m*3 10.7 C 0 km/h
937 16-11-2008 07:44:05 10.7 C 8.05 g/m*3 10.7 C 0 km/h
938 16-11-2008 07:56:05 10.8 C 8.11 g/m*3 10.8 C 0 km/h
939 16-11-2008 08:08:05 10.9 C 8.06 g/m*3 10.9 C 0 km/h
940 16-11-2008 08:20:01 11 C 8.01 g/m*3 11 C 0 km/h
941 16-11-2008 08:32:01 11.1 C 8.06 g/m*3 11.1 C 0 km/h
942 16-11-2008 08:44:01 11.2 C 8.01 g/m*3 11.2 C 0 km/h
943 16-11-2008 08:56:01 11.2 C 8.01 g/m*3 11.2 C 0 km/h
944 16-11-2008 09:08:01 11.2 C 8.01 g/m*3 11.2 C 0 km/h
945 16-11-2008 09:20:01 11.4 C 8.01 g/m*3 11.4 C 0 km/h
946 16-11-2008 09:32:01 11.7 C 8.16 g/m*3 11.7 C 0 km/h
947 16-11-2008 09:44:01 11.6 C 8.11 g/m*3 11.6 C 0 km/h
948 16-11-2008 09:56:02 11.6 C 8.21 g/m*3 11.6 C 0 km/h
949 16-11-2008 10:08:02 11.4 C 8.21 g/m*3 11.4 C 0 km/h
950 16-11-2008 10:20:02 11.2 C 8.21 g/m*3 11.2 C 0 km/h
Sensor: Nr:Datum:Temp:Abs-Feuchte:Windchill:Wind:
Aussen-T/F 951 16-11-2008 10:32:02 10.9 C 8.45 g/m*3 10.9 C 0 km/h
952 16-11-2008 10:44:02 10.7 C 8.64 g/m*3 10.7 C 0 km/h
953 16-11-2008 10:56:03 10.7 C 8.74 g/m*3 10.7 C 0 km/h
954 16-11-2008 11:08:03 10.8 C 8.9 g/m*3 10.8 C 0 km/h
955 16-11-2008 11:20:02 10.9 C 8.95 g/m*3 10.9 C 0 km/h
956 16-11-2008 11:32:02 11.1 C 9.07 g/m*3 11.1 C 0 km/h
957 16-11-2008 11:44:02 11.6 C 9.46 g/m*3 11.6 C 0 km/h
958 16-11-2008 11:56:02 12.2 C 9.71 g/m*3 12.2 C 0 km/h
959 16-11-2008 12:08:02 12.4 C 9.62 g/m*3 12.4 C 0 km/h
960 16-11-2008 12:20:02 12.5 C 9.46 g/m*3 12.5 C 0 km/h
961 16-11-2008 12:32:02 12.7 C 9.35 g/m*3 12.7 C 0 km/h
962 16-11-2008 12:44:02 12.7 C 9.35 g/m*3 12.7 C 0 km/h
963 16-11-2008 12:56:01 12.7 C 9.24 g/m*3 12.7 C 0 km/h
964 16-11-2008 13:08:02 12.7 C 9.13 g/m*3 12.7 C 0 km/h
965 16-11-2008 13:20:01 12.7 C 9.02 g/m*3 12.7 C 0 km/h
966 16-11-2008 13:32:02 12.4 C 8.85 g/m*3 12.4 C 0 km/h
967 16-11-2008 13:44:02 12.3 C 8.8 g/m*3 12.3 C 0 km/h
968 16-11-2008 13:56:01 12.1 C 8.79 g/m*3 12.1 C 0 km/h
969 16-11-2008 14:08:02 11.5 C 8.88 g/m*3 11.5 C 0 km/h
970 16-11-2008 14:20:01 10.9 C 8.65 g/m*3 10.9 C 0 km/h
971 16-11-2008 14:32:01 10.7 C 8.64 g/m*3 10.7 C 0 km/h
972 16-11-2008 14:44:01 10.4 C 8.58 g/m*3 10.4 C 0 km/h
973 16-11-2008 14:56:01 10.4 C 8.58 g/m*3 10.4 C 0 km/h
974 16-11-2008 15:08:02 10.3 C 8.62 g/m*3 10.3 C 0 km/h
975 16-11-2008 15:20:01 10.1 C 8.51 g/m*3 10.1 C 0 km/h
Sensor: Nr:Datum:Temp:Abs-Feuchte:Windchill:Wind:
Aussen-T/F 976 16-11-2008 15:32:02 10.1 C 8.61 g/m*3 10.1 C 0 km/h
977 16-11-2008 15:44:02 10 C 8.55 g/m*3 10 C 0 km/h
978 16-11-2008 15:56:02 9.9 C 8.68 g/m*3 9.9 C 0 km/h
979 16-11-2008 16:08:02 9.7 C 8.57 g/m*3 9.7 C 0 km/h
980 16-11-2008 16:20:02 9.6 C 8.43 g/m*3 9.6 C 0 km/h
981 16-11-2008 16:32:02 9.6 C 8.52 g/m*3 9.6 C 0 km/h
982 16-11-2008 16:44:02 9.5 C 8.37 g/m*3 9.5 C 0 km/h
983 16-11-2008 16:56:02 9.4 C 8.32 g/m*3 9.4 C 0 km/h
984 16-11-2008 17:08:02 9.1 C 7.99 g/m*3 9.1 C 0 km/h
985 16-11-2008 17:20:02 9.2 C 8.04 g/m*3 9.2 C 0 km/h
986 16-11-2008 17:32:02 9.2 C 7.95 g/m*3 9.2 C 0 km/h
987 16-11-2008 17:44:02 9.3 C 7.91 g/m*3 9.3 C 0 km/h
988 16-11-2008 17:56:02 9.1 C 7.72 g/m*3 9.1 C 0 km/h
989 16-11-2008 18:08:02 8.9 C 7.62 g/m*3 8.9 C 0 km/h
990 16-11-2008 18:20:02 8.8 C 7.66 g/m*3 8.8 C 0 km/h
991 16-11-2008 18:32:02 8.9 C 7.71 g/m*3 8.9 C 0 km/h
992 16-11-2008 18:44:02 8.9 C 7.71 g/m*3 8.9 C 0 km/h
993 16-11-2008 18:56:02 8.8 C 7.66 g/m*3 8.8 C 0 km/h
994 16-11-2008 19:08:03 8.5 C 7.43 g/m*3 8.5 C 0 km/h
995 16-11-2008 19:20:02 8.3 C 7.25 g/m*3 8.3 C 0 km/h
996 16-11-2008 19:32:02 8.2 C 7.29 g/m*3 8.2 C 0 km/h
997 16-11-2008 19:44:02 8.3 C 7.42 g/m*3 8.3 C 0 km/h
998 16-11-2008 19:56:02 8.6 C 7.39 g/m*3 8.6 C 0 km/h
999 16-11-2008 20:08:01 8.8 C 7.22 g/m*3 8.8 C 0 km/h
1000 16-11-2008 20:20:02 8.9 C 7.01 g/m*3 8.9 C 0 km/h
Sensor: Nr:Datum:Temp:Abs-Feuchte:Windchill:Wind:
Aussen-T/F 1001 16-11-2008 20:32:02 8.7 C 6.92 g/m*3 8.7 C 0 km/h
1002 16-11-2008 20:44:02 8.7 C 6.83 g/m*3 8.7 C 0 km/h
1003 16-11-2008 20:56:02 8.8 C 6.88 g/m*3 8.8 C 0 km/h
1004 16-11-2008 21:08:02 8.8 C 6.79 g/m*3 8.8 C 0 km/h
1005 16-11-2008 21:20:02 8.1 C 5.91 g/m*3 8.1 C 0 km/h
1006 16-11-2008 21:32:02 7.6 C 5.8 g/m*3 7.6 C 0 km/h
1007 16-11-2008 21:44:03 7.3 C 5.77 g/m*3 7.3 C 0 km/h
1008 16-11-2008 21:56:02 7 C 5.81 g/m*3 7 C 0 km/h
1009 16-11-2008 22:08:01 6.8 C 5.81 g/m*3 6.8 C 0 km/h
1010 16-11-2008 22:20:01 6.7 C 5.77 g/m*3 6.7 C 0 km/h
1011 16-11-2008 22:32:01 6.5 C 5.7 g/m*3 6.5 C 0 km/h
1012 16-11-2008 22:44:01 6.3 C 5.7 g/m*3 6.3 C 0 km/h
1013 16-11-2008 22:56:01 6.1 C 5.63 g/m*3 6.1 C 0 km/h
1014 16-11-2008 23:08:01 5.8 C 5.73 g/m*3 5.8 C 0 km/h
1015 16-11-2008 23:20:01 5.8 C 5.73 g/m*3 5.8 C 0 km/h
1016 16-11-2008 23:32:01 5.9 C 5.7 g/m*3 5.9 C 0 km/h
1017 16-11-2008 23:44:01 5.8 C 5.66 g/m*3 5.8 C 0 km/h
1018 16-11-2008 23:56:01 5.6 C 5.59 g/m*3 5.6 C 0 km/h
1019 17-11-2008 00:08:02 5.5 C 5.55 g/m*3 5.5 C 0 km/h
1020 17-11-2008 00:20:02 5.1 C 5.47 g/m*3 5.1 C 0 km/h
1021 17-11-2008 00:32:02 4.9 C 5.54 g/m*3 4.9 C 0 km/h
1022 17-11-2008 00:44:02 5 C 5.57 g/m*3 5 C 0 km/h
1023 17-11-2008 00:56:02 4.9 C 5.6 g/m*3 4.9 C 0 km/h
1024 17-11-2008 01:08:02 4.7 C 5.66 g/m*3 4.7 C 0 km/h
1025 17-11-2008 01:20:02 4.6 C 5.62 g/m*3 4.6 C 0 km/h
Sensor: Nr:Datum:Temp:Abs-Feuchte:Windchill:Wind:
Aussen-T/F 1026 17-11-2008 01:32:02 4.3 C 5.58 g/m*3 4.3 C 0 km/h
1027 17-11-2008 01:44:02 4.1 C 5.5 g/m*3 4.1 C 0 km/h
1028 17-11-2008 01:56:02 3.9 C 5.56 g/m*3 3.9 C 0 km/h
1029 17-11-2008 02:08:02 3.7 C 5.48 g/m*3 3.7 C 0 km/h
1030 17-11-2008 02:20:02 3.5 C 5.41 g/m*3 3.5 C 0 km/h
1031 17-11-2008 02:32:02 3.3 C 5.4 g/m*3 3.3 C 0 km/h
1032 17-11-2008 02:44:02 3 C 5.29 g/m*3 3 C 0 km/h
1033 17-11-2008 02:56:02 3 C 5.35 g/m*3 3 C 0 km/h
1034 17-11-2008 03:08:02 2.7 C 5.3 g/m*3 2.7 C 0 km/h
1035 17-11-2008 03:20:02 2.6 C 5.27 g/m*3 2.6 C 0 km/h
1036 17-11-2008 03:32:02 2.4 C 5.2 g/m*3 2.4 C 0 km/h
1037 17-11-2008 03:44:02 2.2 C 5.18 g/m*3 2.2 C 0 km/h
1038 17-11-2008 03:56:03 2.3 C 5.22 g/m*3 2.3 C 0 km/h
1039 17-11-2008 04:08:03 2.2 C 5.18 g/m*3 2.2 C 0 km/h
1040 17-11-2008 04:20:03 2.2 C 5.18 g/m*3 2.2 C 0 km/h
1041 17-11-2008 04:32:03 2.1 C 5.15 g/m*3 2.1 C 0 km/h
1042 17-11-2008 04:44:03 1.9 C 5.13 g/m*3 1.9 C 0 km/h
1043 17-11-2008 04:56:03 1.7 C 5.06 g/m*3 1.7 C 0 km/h
1044 17-11-2008 05:08:03 1.5 C 4.99 g/m*3 1.5 C 0 km/h
1045 17-11-2008 05:20:03 1.6 C 5.03 g/m*3 1.6 C 0 km/h
1046 17-11-2008 05:32:03 1.4 C 4.96 g/m*3 1.4 C 0 km/h
1047 17-11-2008 05:44:03 1.4 C 5.01 g/m*3 1.4 C 0 km/h
1048 17-11-2008 05:56:03 1.5 C 5.05 g/m*3 1.5 C 0 km/h
1049 17-11-2008 06:08:03 1.5 C 5.1 g/m*3 1.5 C 0 km/h
1050 17-11-2008 06:20:03 1.5 C 5.1 g/m*3 1.5 C 0 km/h
Sensor: Nr:Datum:Temp:Abs-Feuchte:Windchill:Wind:
Aussen-T/F 1051 17-11-2008 06:32:03 1.5 C 5.1 g/m*3 1.5 C 0 km/h
1052 17-11-2008 06:44:03 1.4 C 5.07 g/m*3 1.4 C 0 km/h
1053 17-11-2008 06:56:03 1.3 C 5.03 g/m*3 1.3 C 0 km/h
1054 17-11-2008 07:08:02 1.1 C 4.96 g/m*3 1.1 C 0 km/h
1055 17-11-2008 07:20:02 1.3 C 5.03 g/m*3 1.3 C 0 km/h
1056 17-11-2008 07:32:01 1.4 C 5.07 g/m*3 1.4 C 0 km/h
1057 17-11-2008 07:44:01 1.4 C 5.07 g/m*3 1.4 C 0 km/h
1058 17-11-2008 07:56:01 1.4 C 5.07 g/m*3 1.4 C 0 km/h
1059 17-11-2008 08:08:02 1.4 C 5.07 g/m*3 1.4 C 0 km/h
1060 17-11-2008 08:20:02 1.5 C 5.1 g/m*3 1.5 C 0 km/h
1061 17-11-2008 08:32:02 1.4 C 5.07 g/m*3 1.4 C 0 km/h
1062 17-11-2008 08:44:02 1.5 C 5.1 g/m*3 1.5 C 0 km/h
1063 17-11-2008 08:56:01 1.6 C 5.14 g/m*3 1.6 C 0 km/h
1064 17-11-2008 09:08:01 1.7 C 5.17 g/m*3 1.7 C 0 km/h
1065 17-11-2008 09:20:02 1.8 C 5.21 g/m*3 1.8 C 0 km/h
1066 17-11-2008 09:32:01 1.9 C 5.24 g/m*3 1.9 C 0 km/h
1067 17-11-2008 09:44:01 2 C 5.28 g/m*3 2 C 0 km/h
1068 17-11-2008 09:56:02 2 C 5.28 g/m*3 2 C 0 km/h
1069 17-11-2008 10:08:01 1.9 C 5.24 g/m*3 1.9 C 0 km/h
1070 17-11-2008 10:20:02 2 C 5.28 g/m*3 2 C 0 km/h
1071 17-11-2008 10:32:01 2.2 C 5.35 g/m*3 2.2 C 0 km/h
1072 17-11-2008 10:44:01 2.5 C 5.46 g/m*3 2.5 C 0 km/h
1073 17-11-2008 10:56:01 2.4 C 5.42 g/m*3 2.4 C 0 km/h
1074 17-11-2008 11:08:01 2.5 C 5.46 g/m*3 2.5 C 0 km/h
1075 17-11-2008 11:20:02 2.7 C 5.54 g/m*3 2.7 C 0 km/h
Sensor: Nr:Datum:Temp:Abs-Feuchte:Windchill:Wind:
Aussen-T/F 1076 17-11-2008 11:32:01 3.1 C 5.69 g/m*3 3.1 C 0 km/h
1077 17-11-2008 11:44:01 3.5 C 5.84 g/m*3 3.5 C 0 km/h
1078 17-11-2008 11:56:01 4 C 6.04 g/m*3 4 C 0 km/h
1079 17-11-2008 12:08:01 4.8 C 6.37 g/m*3 4.8 C 0 km/h
1080 17-11-2008 12:20:01 6.1 C 6.79 g/m*3 6.1 C 0 km/h
1081 17-11-2008 12:32:01 7 C 6.43 g/m*3 7 C 0 km/h
1082 17-11-2008 12:44:01 7.6 C 5.96 g/m*3 7.6 C 0 km/h
1083 17-11-2008 12:56:01 8 C 5.95 g/m*3 8 C 0 km/h
1084 17-11-2008 13:08:02 8.1 C 5.66 g/m*3 8.1 C 0 km/h
1085 17-11-2008 13:20:01 8.7 C 5.97 g/m*3 8.7 C 0 km/h
1086 17-11-2008 13:32:01 8.5 C 5.89 g/m*3 8.5 C 0 km/h
1087 17-11-2008 13:44:01 8.7 C 5.88 g/m*3 8.7 C 0 km/h
1088 17-11-2008 13:56:01 8.7 C 5.62 g/m*3 8.7 C 0 km/h
1089 17-11-2008 14:08:02 8.9 C 5.69 g/m*3 8.9 C 0 km/h
1090 17-11-2008 14:20:01 8.9 C 5.69 g/m*3 8.9 C 0 km/h
1091 17-11-2008 14:32:02 8.9 C 5.69 g/m*3 8.9 C 0 km/h
1092 17-11-2008 14:44:02 8.7 C 5.53 g/m*3 8.7 C 0 km/h
1093 17-11-2008 14:56:01 8.5 C 5.55 g/m*3 8.5 C 0 km/h
1094 17-11-2008 15:08:02 8.4 C 5.43 g/m*3 8.4 C 0 km/h
1095 17-11-2008 15:20:01 8.3 C 5.48 g/m*3 8.3 C 0 km/h
1096 17-11-2008 15:32:02 8.1 C 5.49 g/m*3 8.1 C 0 km/h
1097 17-11-2008 15:44:02 8 C 5.54 g/m*3 8 C 0 km/h
1098 17-11-2008 15:56:01 7.8 C 5.55 g/m*3 7.8 C 0 km/h
1099 17-11-2008 16:08:02 7.4 C 5.49 g/m*3 7.4 C 0 km/h
1100 17-11-2008 16:20:01 7 C 5.5 g/m*3 7 C 0 km/h
Sensor: Nr:Datum:Temp:Abs-Feuchte:Windchill:Wind:
Aussen-T/F 1101 17-11-2008 16:32:02 6.6 C 5.59 g/m*3 6.6 C 0 km/h
1102 17-11-2008 16:44:02 6.3 C 5.55 g/m*3 6.3 C 0 km/h
1103 17-11-2008 16:56:01 6.2 C 5.66 g/m*3 6.2 C 0 km/h
1104 17-11-2008 17:08:01 6.1 C 5.7 g/m*3 6.1 C 0 km/h
1105 17-11-2008 17:20:01 6 C 5.73 g/m*3 6 C 0 km/h
1106 17-11-2008 17:32:02 6 C 5.73 g/m*3 6 C 0 km/h
1107 17-11-2008 17:44:02 5.9 C 5.7 g/m*3 5.9 C 0 km/h
1108 17-11-2008 17:56:01 5.8 C 5.66 g/m*3 5.8 C 0 km/h
1109 17-11-2008 18:08:02 5.6 C 5.51 g/m*3 5.6 C 0 km/h
1110 17-11-2008 18:20:01 5.3 C 5.41 g/m*3 5.3 C 0 km/h
1111 17-11-2008 18:32:02 4.9 C 5.4 g/m*3 4.9 C 0 km/h
1112 17-11-2008 18:44:02 4.6 C 5.36 g/m*3 4.6 C 0 km/h
1113 17-11-2008 18:56:01 4.5 C 5.39 g/m*3 4.5 C 0 km/h
1114 17-11-2008 19:08:01 4.3 C 5.38 g/m*3 4.3 C 0 km/h
1115 17-11-2008 19:20:01 4.1 C 5.31 g/m*3 4.1 C 0 km/h
1116 17-11-2008 19:32:02 4 C 5.28 g/m*3 4 C 0 km/h
1117 17-11-2008 19:44:02 3.9 C 5.37 g/m*3 3.9 C 0 km/h
1118 17-11-2008 19:56:02 3.8 C 5.4 g/m*3 3.8 C 0 km/h
1119 17-11-2008 20:08:01 3.6 C 5.32 g/m*3 3.6 C 0 km/h
1120 17-11-2008 20:20:02 3.6 C 5.39 g/m*3 3.6 C 0 km/h
1121 17-11-2008 20:32:01 3.3 C 5.28 g/m*3 3.3 C 0 km/h
1122 17-11-2008 20:44:01 3.1 C 5.21 g/m*3 3.1 C 0 km/h
1123 17-11-2008 20:56:01 3.1 C 5.27 g/m*3 3.1 C 0 km/h
1124 17-11-2008 21:08:02 3 C 5.23 g/m*3 3 C 0 km/h
1125 17-11-2008 21:20:01 3 C 5.29 g/m*3 3 C 0 km/h
Sensor: Nr:Datum:Temp:Abs-Feuchte:Windchill:Wind:
Aussen-T/F 1126 17-11-2008 21:32:02 3.1 C 5.33 g/m*3 3.1 C 0 km/h
1127 17-11-2008 21:44:02 3.2 C 5.42 g/m*3 3.2 C 0 km/h
1128 17-11-2008 21:56:01 3.4 C 5.5 g/m*3 3.4 C 0 km/h
1129 17-11-2008 22:08:02 3.3 C 5.46 g/m*3 3.3 C 0 km/h
1130 17-11-2008 22:20:01 3.3 C 5.46 g/m*3 3.3 C 0 km/h
1131 17-11-2008 22:32:02 3.3 C 5.4 g/m*3 3.3 C 0 km/h
1132 17-11-2008 22:44:02 3.3 C 5.4 g/m*3 3.3 C 0 km/h
1133 17-11-2008 22:57:03 3.2 C 5.36 g/m*3 3.2 C 0 km/h
1134 17-11-2008 23:09:03 3.2 C 5.36 g/m*3 3.2 C 0 km/h
1135 17-11-2008 23:21:03 3.1 C 5.33 g/m*3 3.1 C 0 km/h
1136 17-11-2008 23:33:03 3.1 C 5.33 g/m*3 3.1 C 0 km/h
1137 17-11-2008 23:45:03 3 C 5.29 g/m*3 3 C 0 km/h
1138 17-11-2008 23:57:03 3 C 5.29 g/m*3 3 C 0 km/h
1139 18-11-2008 00:09:03 3 C 5.29 g/m*3 3 C 0 km/h
1140 18-11-2008 00:21:03 2.8 C 5.22 g/m*3 2.8 C 0 km/h
1141 18-11-2008 00:33:03 2.7 C 5.19 g/m*3 2.7 C 0 km/h
1142 18-11-2008 00:45:03 2.6 C 5.15 g/m*3 2.6 C 0 km/h
1143 18-11-2008 00:57:03 2.6 C 5.15 g/m*3 2.6 C 0 km/h
1144 18-11-2008 01:09:03 2.8 C 5.22 g/m*3 2.8 C 0 km/h
1145 18-11-2008 01:21:03 2.7 C 5.13 g/m*3 2.7 C 0 km/h
1146 18-11-2008 01:33:03 2.6 C 5.03 g/m*3 2.6 C 0 km/h
1147 18-11-2008 01:45:03 2.6 C 5.03 g/m*3 2.6 C 0 km/h
1148 18-11-2008 01:57:03 2.7 C 5.07 g/m*3 2.7 C 0 km/h
1149 18-11-2008 02:09:03 2.7 C 5.07 g/m*3 2.7 C 0 km/h
1150 18-11-2008 02:21:03 2.7 C 5.07 g/m*3 2.7 C 0 km/h
Sensor: Nr:Datum:Temp:Abs-Feuchte:Windchill:Wind:
Aussen-T/F 1151 18-11-2008 02:33:03 2.7 C 5.07 g/m*3 2.7 C 0 km/h
1152 18-11-2008 02:45:03 2.7 C 5.07 g/m*3 2.7 C 0 km/h
1153 18-11-2008 02:57:04 2.7 C 5.07 g/m*3 2.7 C 0 km/h
1154 18-11-2008 03:09:04 2.5 C 5 g/m*3 2.5 C 0 km/h
1155 18-11-2008 03:21:04 2.3 C 4.93 g/m*3 2.3 C 0 km/h
1156 18-11-2008 03:33:04 2.2 C 4.9 g/m*3 2.2 C 0 km/h
1157 18-11-2008 03:45:04 2.2 C 4.9 g/m*3 2.2 C 0 km/h
1158 18-11-2008 03:57:04 2.1 C 4.92 g/m*3 2.1 C 0 km/h
1159 18-11-2008 04:09:04 1.9 C 4.86 g/m*3 1.9 C 0 km/h
1160 18-11-2008 04:21:04 1.9 C 4.91 g/m*3 1.9 C 0 km/h
1161 18-11-2008 04:33:04 1.7 C 4.85 g/m*3 1.7 C 0 km/h
1162 18-11-2008 04:45:04 1.6 C 4.81 g/m*3 1.6 C 0 km/h
1163 18-11-2008 04:57:04 1.5 C 4.78 g/m*3 1.5 C 0 km/h
1164 18-11-2008 05:09:04 1.5 C 4.78 g/m*3 1.5 C 0 km/h
1165 18-11-2008 05:21:04 1.4 C 4.75 g/m*3 1.4 C 0 km/h
1166 18-11-2008 05:33:04 1.4 C 4.8 g/m*3 1.4 C 0 km/h
1167 18-11-2008 05:45:04 1.5 C 4.83 g/m*3 1.5 C 0 km/h
1168 18-11-2008 05:57:04 1.4 C 4.8 g/m*3 1.4 C 0 km/h
1169 18-11-2008 06:09:04 1.4 C 4.8 g/m*3 1.4 C 0 km/h
1170 18-11-2008 06:21:04 1.6 C 4.92 g/m*3 1.6 C 0 km/h
1171 18-11-2008 06:33:04 1.8 C 4.99 g/m*3 1.8 C 0 km/h
1172 18-11-2008 06:45:05 2 C 5.06 g/m*3 2 C 0 km/h
1173 18-11-2008 06:57:05 2 C 5.06 g/m*3 2 C 0 km/h
1174 18-11-2008 07:09:02 2 C 5 g/m*3 2 C 0 km/h
1175 18-11-2008 07:21:02 2.2 C 5.07 g/m*3 2.2 C 0 km/h
Sensor: Nr:Datum:Temp:Abs-Feuchte:Windchill:Wind:
Aussen-T/F 1176 18-11-2008 07:33:02 2.2 C 5.07 g/m*3 2.2 C 0 km/h
1177 18-11-2008 07:45:01 2.2 C 5.07 g/m*3 2.2 C 0 km/h
1178 18-11-2008 07:57:01 2.3 C 5.1 g/m*3 2.3 C 0 km/h
1179 18-11-2008 08:09:02 2.4 C 5.14 g/m*3 2.4 C 0 km/h
1180 18-11-2008 08:21:02 2.5 C 5.17 g/m*3 2.5 C 0 km/h
1181 18-11-2008 08:33:01 2.5 C 5.12 g/m*3 2.5 C 0 km/h
1182 18-11-2008 08:45:01 2.6 C 5.15 g/m*3 2.6 C 0 km/h
1183 18-11-2008 08:57:01 3 C 5.23 g/m*3 3 C 0 km/h
1184 18-11-2008 09:09:02 3.2 C 5.24 g/m*3 3.2 C 0 km/h
1185 18-11-2008 09:21:01 3.9 C 5.24 g/m*3 3.9 C 0 km/h
1186 18-11-2008 09:33:02 4.2 C 5.03 g/m*3 4.2 C 0 km/h
1187 18-11-2008 09:45:02 4.5 C 4.93 g/m*3 4.5 C 0 km/h
1188 18-11-2008 09:57:02 4.8 C 4.9 g/m*3 4.8 C 0 km/h
1189 18-11-2008 10:09:02 5 C 4.82 g/m*3 5 C 0 km/h
1190 18-11-2008 10:21:01 5.1 C 4.79 g/m*3 5.1 C 0 km/h
1191 18-11-2008 10:33:02 5.1 C 4.79 g/m*3 5.1 C 0 km/h
1192 18-11-2008 10:45:02 5 C 4.69 g/m*3 5 C 0 km/h
1193 18-11-2008 10:57:02 5 C 4.76 g/m*3 5 C 0 km/h
1194 18-11-2008 11:09:02 5.1 C 4.86 g/m*3 5.1 C 0 km/h
1195 18-11-2008 11:21:02 4.8 C 5.03 g/m*3 4.8 C 0 km/h
1196 18-11-2008 11:33:02 4.8 C 5.23 g/m*3 4.8 C 0 km/h
1197 18-11-2008 11:45:02 4.9 C 5.33 g/m*3 4.9 C 0 km/h
1198 18-11-2008 11:57:02 5.3 C 5.27 g/m*3 5.3 C 0 km/h
1199 18-11-2008 12:09:03 5.5 C 5.34 g/m*3 5.5 C 0 km/h
1200 18-11-2008 12:21:01 5.7 C 5.34 g/m*3 5.7 C 0 km/h
Sensor: Nr:Datum:Temp:Abs-Feuchte:Windchill:Wind:
Aussen-T/F 1201 18-11-2008 12:33:02 5.9 C 5.41 g/m*3 5.9 C 0 km/h
1202 18-11-2008 12:45:02 5.9 C 5.41 g/m*3 5.9 C 0 km/h
1203 18-11-2008 12:57:02 5.9 C 5.41 g/m*3 5.9 C 0 km/h
1204 18-11-2008 13:09:03 6.1 C 5.41 g/m*3 6.1 C 0 km/h
1205 18-11-2008 13:21:02 6.3 C 5.4 g/m*3 6.3 C 0 km/h
1206 18-11-2008 13:33:02 6.4 C 5.44 g/m*3 6.4 C 0 km/h
1207 18-11-2008 13:45:03 6.7 C 5.55 g/m*3 6.7 C 0 km/h
1208 18-11-2008 13:57:03 7.3 C 5.61 g/m*3 7.3 C 0 km/h
1209 18-11-2008 14:09:02 7.6 C 5.72 g/m*3 7.6 C 0 km/h
1210 18-11-2008 14:21:02 8.1 C 5.57 g/m*3 8.1 C 0 km/h
1211 18-11-2008 14:33:02 7.6 C 5.64 g/m*3 7.6 C 0 km/h
1212 18-11-2008 14:45:02 7.3 C 5.61 g/m*3 7.3 C 0 km/h
1213 18-11-2008 14:57:02 7.3 C 5.77 g/m*3 7.3 C 0 km/h
1214 18-11-2008 15:09:02 7.3 C 5.77 g/m*3 7.3 C 0 km/h
1215 18-11-2008 15:21:02 7.2 C 5.73 g/m*3 7.2 C 0 km/h
1216 18-11-2008 15:33:02 7.1 C 5.77 g/m*3 7.1 C 0 km/h
1217 18-11-2008 15:45:02 7 C 5.81 g/m*3 7 C 0 km/h
1218 18-11-2008 15:57:02 6.9 C 5.93 g/m*3 6.9 C 0 km/h
1219 18-11-2008 16:09:02 6.9 C 5.85 g/m*3 6.9 C 0 km/h
1220 18-11-2008 16:21:02 6.8 C 5.81 g/m*3 6.8 C 0 km/h
1221 18-11-2008 16:33:02 6.8 C 5.89 g/m*3 6.8 C 0 km/h
1222 18-11-2008 16:45:01 6.8 C 5.89 g/m*3 6.8 C 0 km/h
1223 18-11-2008 16:57:01 6.8 C 5.89 g/m*3 6.8 C 0 km/h
1224 18-11-2008 17:09:02 6.8 C 5.97 g/m*3 6.8 C 0 km/h
1225 18-11-2008 17:21:01 6.8 C 5.97 g/m*3 6.8 C 0 km/h
Sensor: Nr:Datum:Temp:Abs-Feuchte:Windchill:Wind:
Aussen-T/F 1226 18-11-2008 17:33:02 6.9 C 6 g/m*3 6.9 C 0 km/h
1227 18-11-2008 17:45:03 6.8 C 5.97 g/m*3 6.8 C 0 km/h
1228 18-11-2008 17:57:03 6.4 C 6.04 g/m*3 6.4 C 0 km/h
1229 18-11-2008 18:09:02 6.3 C 6.14 g/m*3 6.3 C 0 km/h
1230 18-11-2008 18:21:02 6.3 C 6.29 g/m*3 6.3 C 0 km/h
1231 18-11-2008 18:33:02 6.2 C 6.32 g/m*3 6.2 C 0 km/h
1232 18-11-2008 18:45:02 6.2 C 6.4 g/m*3 6.2 C 0 km/h
1233 18-11-2008 18:57:02 6.2 C 6.4 g/m*3 6.2 C 0 km/h
1234 18-11-2008 19:09:02 6.2 C 6.47 g/m*3 6.2 C 0 km/h
1235 18-11-2008 19:21:02 6.4 C 6.48 g/m*3 6.4 C 0 km/h
1236 18-11-2008 19:33:02 6.4 C 6.48 g/m*3 6.4 C 0 km/h
1237 18-11-2008 19:45:01 6.3 C 6.51 g/m*3 6.3 C 0 km/h
1238 18-11-2008 19:57:01 6.4 C 6.56 g/m*3 6.4 C 0 km/h
1239 18-11-2008 20:09:02 6.5 C 6.6 g/m*3 6.5 C 0 km/h
1240 18-11-2008 20:21:01 6.5 C 6.6 g/m*3 6.5 C 0 km/h
1241 18-11-2008 20:33:02 6.5 C 6.6 g/m*3 6.5 C 0 km/h
1242 18-11-2008 20:45:02 6.6 C 6.64 g/m*3 6.6 C 0 km/h
1243 18-11-2008 20:57:02 6.8 C 6.65 g/m*3 6.8 C 0 km/h
1244 18-11-2008 21:09:02 7 C 6.59 g/m*3 7 C 0 km/h
1245 18-11-2008 21:21:03 6.8 C 6.65 g/m*3 6.8 C 0 km/h
1246 18-11-2008 21:33:02 6.7 C 6.69 g/m*3 6.7 C 0 km/h
1247 18-11-2008 21:45:01 6.6 C 6.79 g/m*3 6.6 C 0 km/h
1248 18-11-2008 21:57:01 6.5 C 6.82 g/m*3 6.5 C 0 km/h
1249 18-11-2008 22:09:02 6.5 C 6.9 g/m*3 6.5 C 0 km/h
1250 18-11-2008 22:21:01 6.6 C 6.95 g/m*3 6.6 C 0 km/h
Sensor: Nr:Datum:Temp:Abs-Feuchte:Windchill:Wind:
Aussen-T/F 1251 18-11-2008 22:33:02 6.6 C 6.95 g/m*3 6.6 C 0 km/h
1252 18-11-2008 22:45:02 6.8 C 7.11 g/m*3 6.8 C 0 km/h
1253 18-11-2008 22:57:02 6.7 C 7.07 g/m*3 6.7 C 0 km/h
1254 18-11-2008 23:09:02 6.7 C 7.07 g/m*3 6.7 C 0 km/h
1255 18-11-2008 23:21:02 6.9 C 7.16 g/m*3 6.9 C 0 km/h
1256 18-11-2008 23:33:02 7.2 C 7.22 g/m*3 7.2 C 0 km/h
1257 18-11-2008 23:45:02 7 C 7.13 g/m*3 7 C 0 km/h
1258 18-11-2008 23:57:02 7.3 C 7.27 g/m*3 7.3 C 0 km/h
1259 19-11-2008 00:09:03 7.3 C 7.27 g/m*3 7.3 C 0 km/h
1260 19-11-2008 00:21:02 7.3 C 7.27 g/m*3 7.3 C 0 km/h
1261 19-11-2008 00:33:02 7.2 C 7.14 g/m*3 7.2 C 0 km/h
1262 19-11-2008 00:45:01 7 C 7.05 g/m*3 7 C 0 km/h
1263 19-11-2008 00:57:01 7.3 C 7.19 g/m*3 7.3 C 0 km/h
1264 19-11-2008 01:09:02 7.2 C 6.99 g/m*3 7.2 C 0 km/h
1265 19-11-2008 01:21:01 7 C 6.9 g/m*3 7 C 0 km/h
1266 19-11-2008 01:33:02 7.5 C 7.04 g/m*3 7.5 C 0 km/h
1267 19-11-2008 01:45:02 7.6 C 6.85 g/m*3 7.6 C 0 km/h
1268 19-11-2008 01:57:02 7.9 C 6.82 g/m*3 7.9 C 0 km/h
1269 19-11-2008 02:09:02 7.6 C 6.44 g/m*3 7.6 C 0 km/h
1270 19-11-2008 02:21:02 7.5 C 6.4 g/m*3 7.5 C 0 km/h
1271 19-11-2008 02:33:02 7.3 C 6.4 g/m*3 7.3 C 0 km/h
1272 19-11-2008 02:45:01 7.1 C 6.4 g/m*3 7.1 C 0 km/h
1273 19-11-2008 02:57:01 6.7 C 6.38 g/m*3 6.7 C 0 km/h
1274 19-11-2008 03:09:01 6.4 C 6.41 g/m*3 6.4 C 0 km/h
1275 19-11-2008 03:21:01 6 C 6.24 g/m*3 6 C 0 km/h
Sensor: Nr:Datum:Temp:Abs-Feuchte:Windchill:Wind:
Aussen-T/F 1276 19-11-2008 03:33:02 5.8 C 6.3 g/m*3 5.8 C 0 km/h
1277 19-11-2008 03:45:02 5.6 C 6.22 g/m*3 5.6 C 0 km/h
1278 19-11-2008 03:57:02 5.7 C 6.33 g/m*3 5.7 C 0 km/h
1279 19-11-2008 04:09:01 5.6 C 6.29 g/m*3 5.6 C 0 km/h
1280 19-11-2008 04:21:02 5.5 C 6.32 g/m*3 5.5 C 0 km/h
1281 19-11-2008 04:33:01 5.1 C 6.09 g/m*3 5.1 C 0 km/h
1282 19-11-2008 04:45:01 4.8 C 6.04 g/m*3 4.8 C 0 km/h
1283 19-11-2008 04:57:01 4.6 C 6.02 g/m*3 4.6 C 0 km/h
1284 19-11-2008 05:09:01 4.4 C 5.94 g/m*3 4.4 C 0 km/h
1285 19-11-2008 05:21:02 4.3 C 5.9 g/m*3 4.3 C 0 km/h
1286 19-11-2008 05:33:01 4.4 C 6.01 g/m*3 4.4 C 0 km/h
1287 19-11-2008 05:45:01 4.5 C 6.05 g/m*3 4.5 C 0 km/h
1288 19-11-2008 05:57:01 4.8 C 6.17 g/m*3 4.8 C 0 km/h
1289 19-11-2008 06:09:01 4.8 C 6.17 g/m*3 4.8 C 0 km/h
1290 19-11-2008 06:21:01 4.7 C 6.06 g/m*3 4.7 C 0 km/h
1291 19-11-2008 06:33:01 4.7 C 6 g/m*3 4.7 C 0 km/h
1292 19-11-2008 06:45:01 5 C 5.98 g/m*3 5 C 0 km/h
1293 19-11-2008 06:57:01 5.3 C 5.82 g/m*3 5.3 C 0 km/h
1294 19-11-2008 07:09:02 5.2 C 5.65 g/m*3 5.2 C 0 km/h
1295 19-11-2008 07:21:02 5.3 C 5.68 g/m*3 5.3 C 0 km/h
1296 19-11-2008 07:33:01 5.6 C 5.66 g/m*3 5.6 C 0 km/h
1297 19-11-2008 07:45:01 5.6 C 5.66 g/m*3 5.6 C 0 km/h
1298 19-11-2008 07:57:01 5.6 C 5.66 g/m*3 5.6 C 0 km/h
1299 19-11-2008 08:09:01 5.6 C 5.73 g/m*3 5.6 C 0 km/h
1300 19-11-2008 08:21:01 5.8 C 5.8 g/m*3 5.8 C 0 km/h
Sensor: Nr:Datum:Temp:Abs-Feuchte:Windchill:Wind:
Aussen-T/F 1301 19-11-2008 08:33:01 5.9 C 5.77 g/m*3 5.9 C 0 km/h
1302 19-11-2008 08:45:01 6.1 C 5.7 g/m*3 6.1 C 0 km/h
1303 19-11-2008 08:57:01 6.3 C 5.7 g/m*3 6.3 C 0 km/h
1304 19-11-2008 09:09:02 6.7 C 5.7 g/m*3 6.7 C 0 km/h
1305 19-11-2008 09:21:01 6.8 C 5.74 g/m*3 6.8 C 0 km/h
1306 19-11-2008 09:33:01 6.8 C 5.74 g/m*3 6.8 C 0 km/h
1307 19-11-2008 09:45:01 7 C 5.66 g/m*3 7 C 0 km/h
1308 19-11-2008 09:57:01 7.2 C 5.81 g/m*3 7.2 C 0 km/h
1309 19-11-2008 10:09:02 7.4 C 5.73 g/m*3 7.4 C 0 km/h
1310 19-11-2008 10:21:01 7.4 C 5.81 g/m*3 7.4 C 0 km/h
1311 19-11-2008 10:33:02 7.5 C 5.84 g/m*3 7.5 C 0 km/h
1312 19-11-2008 10:45:01 7.6 C 5.88 g/m*3 7.6 C 0 km/h
1313 19-11-2008 10:57:01 7.8 C 6.04 g/m*3 7.8 C 0 km/h
1314 19-11-2008 11:09:02 7.8 C 5.96 g/m*3 7.8 C 0 km/h
1315 19-11-2008 11:21:01 7.9 C 6 g/m*3 7.9 C 0 km/h
1316 19-11-2008 11:33:02 8.1 C 5.99 g/m*3 8.1 C 0 km/h
1317 19-11-2008 11:45:02 8.5 C 6.06 g/m*3 8.5 C 0 km/h
1318 19-11-2008 11:57:02 8.9 C 6.13 g/m*3 8.9 C 0 km/h
1319 19-11-2008 12:09:01 9.1 C 6.12 g/m*3 9.1 C 0 km/h
1320 19-11-2008 12:21:01 9 C 6.08 g/m*3 9 C 0 km/h
1321 19-11-2008 12:33:01 9.1 C 6.12 g/m*3 9.1 C 0 km/h
1322 19-11-2008 12:45:01 9.6 C 6.32 g/m*3 9.6 C 0 km/h
1323 19-11-2008 12:57:01 9.8 C 6.22 g/m*3 9.8 C 0 km/h
1324 19-11-2008 13:09:02 9.9 C 6.26 g/m*3 9.9 C 0 km/h
1325 19-11-2008 13:21:01 9.9 C 6.16 g/m*3 9.9 C 0 km/h
Sensor: Nr:Datum:Temp:Abs-Feuchte:Windchill:Wind:
Aussen-T/F 1326 19-11-2008 13:33:02 10 C 6.01 g/m*3 10 C 0 km/h
1327 19-11-2008 13:45:01 9.9 C 5.98 g/m*3 9.9 C 0 km/h
1328 19-11-2008 13:57:01 10 C 5.92 g/m*3 10 C 0 km/h
1329 19-11-2008 14:09:02 10.2 C 5.9 g/m*3 10.2 C 0 km/h
1330 19-11-2008 14:21:01 10 C 5.83 g/m*3 10 C 0 km/h
1331 19-11-2008 14:33:02 10.2 C 6 g/m*3 10.2 C 0 km/h
1332 19-11-2008 14:45:01 10.2 C 5.8 g/m*3 10.2 C 0 km/h
1333 19-11-2008 14:57:01 10.2 C 5.71 g/m*3 10.2 C 0 km/h
1334 19-11-2008 15:09:02 10.1 C 5.58 g/m*3 10.1 C 0 km/h
1335 19-11-2008 15:21:01 10 C 5.45 g/m*3 10 C 0 km/h
1336 19-11-2008 15:33:02 9.8 C 5.38 g/m*3 9.8 C 0 km/h
1337 19-11-2008 15:45:01 9.7 C 5.53 g/m*3 9.7 C 0 km/h
1338 19-11-2008 15:57:01 9.7 C 5.44 g/m*3 9.7 C 0 km/h
1339 19-11-2008 16:09:01 9.7 C 5.53 g/m*3 9.7 C 0 km/h
1340 19-11-2008 16:21:01 9.6 C 5.5 g/m*3 9.6 C 0 km/h
1341 19-11-2008 16:33:02 9.5 C 5.55 g/m*3 9.5 C 0 km/h
1342 19-11-2008 16:45:01 9.5 C 5.55 g/m*3 9.5 C 0 km/h
1343 19-11-2008 16:57:02 9.5 C 5.64 g/m*3 9.5 C 0 km/h
1344 19-11-2008 17:09:01 9.3 C 5.66 g/m*3 9.3 C 0 km/h
1345 19-11-2008 17:21:01 9.3 C 5.66 g/m*3 9.3 C 0 km/h
1346 19-11-2008 17:33:01 9.3 C 5.66 g/m*3 9.3 C 0 km/h
1347 19-11-2008 17:45:02 9.3 C 5.66 g/m*3 9.3 C 0 km/h
1348 19-11-2008 17:57:02 9.2 C 5.71 g/m*3 9.2 C 0 km/h
1349 19-11-2008 18:09:01 9.1 C 5.68 g/m*3 9.1 C 0 km/h
1350 19-11-2008 18:21:02 9.1 C 5.77 g/m*3 9.1 C 0 km/h
Sensor: Nr:Datum:Temp:Abs-Feuchte:Windchill:Wind:
Aussen-T/F 1351 19-11-2008 18:33:01 9 C 5.73 g/m*3 9 C 0 km/h
1352 19-11-2008 18:45:01 9 C 5.73 g/m*3 9 C 0 km/h
1353 19-11-2008 18:57:01 9 C 5.73 g/m*3 9 C 0 km/h
1354 19-11-2008 19:09:01 8.9 C 5.87 g/m*3 8.9 C 0 km/h
1355 19-11-2008 19:21:01 8.9 C 5.96 g/m*3 8.9 C 0 km/h
1356 19-11-2008 19:33:01 8.8 C 5.92 g/m*3 8.8 C 0 km/h
1357 19-11-2008 19:45:01 8.8 C 6.01 g/m*3 8.8 C 0 km/h
1358 19-11-2008 19:57:01 8.7 C 5.97 g/m*3 8.7 C 0 km/h
1359 19-11-2008 20:09:01 8.7 C 6.05 g/m*3 8.7 C 0 km/h
1360 19-11-2008 20:21:01 8.8 C 6.09 g/m*3 8.8 C 0 km/h
1361 19-11-2008 20:33:01 8.8 C 6.09 g/m*3 8.8 C 0 km/h
1362 19-11-2008 20:45:01 8.7 C 6.05 g/m*3 8.7 C 0 km/h
1363 19-11-2008 20:57:01 8.8 C 6.18 g/m*3 8.8 C 0 km/h
1364 19-11-2008 21:09:02 8.8 C 6.18 g/m*3 8.8 C 0 km/h
1365 19-11-2008 21:21:01 8.8 C 6.18 g/m*3 8.8 C 0 km/h
1366 19-11-2008 21:33:01 8.8 C 6.27 g/m*3 8.8 C 0 km/h
1367 19-11-2008 21:45:01 8.7 C 6.23 g/m*3 8.7 C 0 km/h
1368 19-11-2008 21:57:01 8.6 C 6.27 g/m*3 8.6 C 0 km/h
1369 19-11-2008 22:09:02 8.6 C 6.27 g/m*3 8.6 C 0 km/h
1370 19-11-2008 22:21:01 8.5 C 6.23 g/m*3 8.5 C 0 km/h
1371 19-11-2008 22:33:01 8.2 C 6.2 g/m*3 8.2 C 0 km/h
1372 19-11-2008 22:45:02 8.5 C 6.23 g/m*3 8.5 C 0 km/h
1373 19-11-2008 22:57:02 8.6 C 6.19 g/m*3 8.6 C 0 km/h
1374 19-11-2008 23:09:01 8.4 C 6.02 g/m*3 8.4 C 0 km/h
1375 19-11-2008 23:21:02 8.2 C 5.95 g/m*3 8.2 C 0 km/h
Sensor: Nr:Datum:Temp:Abs-Feuchte:Windchill:Wind:
Aussen-T/F 1376 19-11-2008 23:33:01 8.2 C 5.95 g/m*3 8.2 C 0 km/h
1377 19-11-2008 23:45:02 8.4 C 6.02 g/m*3 8.4 C 0 km/h
1378 19-11-2008 23:57:02 8.4 C 5.94 g/m*3 8.4 C 0 km/h
1379 20-11-2008 00:09:01 8.5 C 5.98 g/m*3 8.5 C 0 km/h
1380 20-11-2008 00:21:02 8.5 C 5.98 g/m*3 8.5 C 0 km/h
1381 20-11-2008 00:33:01 8.4 C 6.02 g/m*3 8.4 C 0 km/h
1382 20-11-2008 00:45:01 8.3 C 6.07 g/m*3 8.3 C 0 km/h
1383 20-11-2008 00:57:01 8.5 C 6.06 g/m*3 8.5 C 0 km/h
1384 20-11-2008 01:09:02 8.5 C 5.98 g/m*3 8.5 C 0 km/h
1385 20-11-2008 01:21:01 8.2 C 5.95 g/m*3 8.2 C 0 km/h
1386 20-11-2008 01:33:01 8.4 C 6.02 g/m*3 8.4 C 0 km/h
1387 20-11-2008 01:45:01 8.5 C 5.98 g/m*3 8.5 C 0 km/h
1388 20-11-2008 01:57:01 8.5 C 5.89 g/m*3 8.5 C 0 km/h
1389 20-11-2008 02:09:02 8.5 C 5.89 g/m*3 8.5 C 0 km/h
1390 20-11-2008 02:21:01 8.2 C 5.95 g/m*3 8.2 C 0 km/h
1391 20-11-2008 02:33:02 8.3 C 6.07 g/m*3 8.3 C 0 km/h
1392 20-11-2008 02:46:05 8.5 C 6.06 g/m*3 8.5 C 0 km/h
1393 20-11-2008 02:58:05 8.7 C 6.14 g/m*3 8.7 C 0 km/h
1394 20-11-2008 03:10:05 8.9 C 6.13 g/m*3 8.9 C 0 km/h
1395 20-11-2008 03:22:05 8.9 C 6.13 g/m*3 8.9 C 0 km/h
1396 20-11-2008 03:34:02 9.2 C 6.16 g/m*3 9.2 C 0 km/h
1397 20-11-2008 03:46:02 9.1 C 6.12 g/m*3 9.1 C 0 km/h
1398 20-11-2008 03:58:02 9.2 C 6.07 g/m*3 9.2 C 0 km/h
1399 20-11-2008 04:10:02 9.2 C 6.07 g/m*3 9.2 C 0 km/h
1400 20-11-2008 04:22:02 9.2 C 6.16 g/m*3 9.2 C 0 km/h
Sensor: Nr:Datum:Temp:Abs-Feuchte:Windchill:Wind:
Aussen-T/F 1401 20-11-2008 04:34:02 9.2 C 6.25 g/m*3 9.2 C 0 km/h
1402 20-11-2008 04:46:01 9.3 C 6.29 g/m*3 9.3 C 0 km/h
1403 20-11-2008 04:58:01 9.3 C 6.29 g/m*3 9.3 C 0 km/h
1404 20-11-2008 05:10:02 9.3 C 6.29 g/m*3 9.3 C 0 km/h
1405 20-11-2008 05:22:02 9.4 C 6.33 g/m*3 9.4 C 0 km/h
1406 20-11-2008 05:34:02 9.4 C 6.33 g/m*3 9.4 C 0 km/h
1407 20-11-2008 05:46:01 9.4 C 6.33 g/m*3 9.4 C 0 km/h
1408 20-11-2008 05:58:01 9.4 C 6.42 g/m*3 9.4 C 0 km/h
1409 20-11-2008 06:10:02 9.4 C 6.42 g/m*3 9.4 C 0 km/h
1410 20-11-2008 06:22:01 9.4 C 6.42 g/m*3 9.4 C 0 km/h
1411 20-11-2008 06:34:02 9.3 C 6.38 g/m*3 9.3 C 0 km/h
1412 20-11-2008 06:46:01 9.4 C 6.42 g/m*3 9.4 C 0 km/h
1413 20-11-2008 06:58:01 9.6 C 6.5 g/m*3 9.6 C 0 km/h
1414 20-11-2008 07:10:02 9.7 C 6.45 g/m*3 9.7 C 0 km/h
1415 20-11-2008 07:22:02 9.8 C 6.49 g/m*3 9.8 C 0 km/h
1416 20-11-2008 07:34:03 9.8 C 6.49 g/m*3 9.8 C 0 km/h
1417 20-11-2008 07:46:02 9.4 C 6.6 g/m*3 9.4 C 0 km/h
1418 20-11-2008 07:58:02 9.6 C 6.69 g/m*3 9.6 C 0 km/h
1419 20-11-2008 08:10:03 9.7 C 6.64 g/m*3 9.7 C 0 km/h
1420 20-11-2008 08:22:02 9.8 C 6.59 g/m*3 9.8 C 0 km/h
1421 20-11-2008 08:34:02 9.9 C 6.54 g/m*3 9.9 C 0 km/h
1422 20-11-2008 08:46:02 9.9 C 6.54 g/m*3 9.9 C 0 km/h
1423 20-11-2008 08:58:02 9.9 C 6.54 g/m*3 9.9 C 0 km/h
1424 20-11-2008 09:10:01 10 C 6.39 g/m*3 10 C 0 km/h
1425 20-11-2008 09:22:02 10.1 C 6.52 g/m*3 10.1 C 0 km/h
Sensor: Nr:Datum:Temp:Abs-Feuchte:Windchill:Wind:
Aussen-T/F 1426 20-11-2008 09:34:02 10.2 C 6.57 g/m*3 10.2 C 0 km/h
1427 20-11-2008 09:46:02 10.2 C 6.66 g/m*3 10.2 C 0 km/h
1428 20-11-2008 09:58:02 10.1 C 6.71 g/m*3 10.1 C 0 km/h
1429 20-11-2008 10:10:02 10 C 6.77 g/m*3 10 C 0 km/h
1430 20-11-2008 10:22:02 10 C 6.86 g/m*3 10 C 0 km/h
1431 20-11-2008 10:34:02 10.2 C 6.95 g/m*3 10.2 C 0 km/h
1432 20-11-2008 10:46:02 10.2 C 6.95 g/m*3 10.2 C 0 km/h
1433 20-11-2008 10:58:02 10.2 C 6.95 g/m*3 10.2 C 0 km/h
1434 20-11-2008 11:10:02 10.1 C 7 g/m*3 10.1 C 0 km/h
1435 20-11-2008 11:22:02 9.9 C 7.28 g/m*3 9.9 C 0 km/h
1436 20-11-2008 11:34:01 10 C 7.24 g/m*3 10 C 0 km/h
1437 20-11-2008 11:46:02 9.9 C 7.38 g/m*3 9.9 C 0 km/h
1438 20-11-2008 11:58:02 9.8 C 7.42 g/m*3 9.8 C 0 km/h
1439 20-11-2008 12:10:02 10 C 7.33 g/m*3 10 C 0 km/h
1440 20-11-2008 12:22:01 10 C 7.24 g/m*3 10 C 0 km/h
1441 20-11-2008 12:34:01 10.1 C 7.19 g/m*3 10.1 C 0 km/h
1442 20-11-2008 12:46:01 10.1 C 7.19 g/m*3 10.1 C 0 km/h
1443 20-11-2008 12:58:01 9.6 C 7.42 g/m*3 9.6 C 0 km/h
1444 20-11-2008 13:10:02 9.5 C 7.65 g/m*3 9.5 C 0 km/h
1445 20-11-2008 13:22:01 9.5 C 7.74 g/m*3 9.5 C 0 km/h
1446 20-11-2008 13:34:02 9.6 C 7.79 g/m*3 9.6 C 0 km/h
1447 20-11-2008 13:46:02 9.8 C 7.7 g/m*3 9.8 C 0 km/h
1448 20-11-2008 13:58:02 10 C 7.52 g/m*3 10 C 0 km/h
1449 20-11-2008 14:10:02 10.1 C 7.56 g/m*3 10.1 C 0 km/h
1450 20-11-2008 14:22:02 10 C 7.52 g/m*3 10 C 0 km/h
Sensor: Nr:Datum:Temp:Abs-Feuchte:Windchill:Wind:
Aussen-T/F 1451 20-11-2008 14:34:02 10 C 7.52 g/m*3 10 C 0 km/h
1452 20-11-2008 14:46:02 10.2 C 7.61 g/m*3 10.2 C 0 km/h
1453 20-11-2008 14:58:02 10.5 C 7.37 g/m*3 10.5 C 0 km/h
1454 20-11-2008 15:10:03 10.8 C 7.22 g/m*3 10.8 C 0 km/h
1455 20-11-2008 15:22:02 11 C 6.91 g/m*3 11 C 0 km/h
1456 20-11-2008 15:34:03 11.1 C 6.45 g/m*3 11.1 C 0 km/h
1457 20-11-2008 15:46:02 11.3 C 6.22 g/m*3 11.3 C 0 km/h
1458 20-11-2008 15:58:02 11.3 C 6.02 g/m*3 11.3 C 0 km/h
1459 20-11-2008 16:10:01 11.3 C 5.92 g/m*3 11.3 C 0 km/h
1460 20-11-2008 16:22:02 11.2 C 5.98 g/m*3 11.2 C 0 km/h
1461 20-11-2008 16:34:02 11.1 C 6.04 g/m*3 11.1 C 0 km/h
1462 20-11-2008 16:46:02 10.9 C 6.37 g/m*3 10.9 C 0 km/h
1463 20-11-2008 16:58:02 10.8 C 6.62 g/m*3 10.8 C 0 km/h
1464 20-11-2008 17:10:02 10.7 C 6.68 g/m*3 10.7 C 0 km/h
1465 20-11-2008 17:22:02 10.6 C 6.83 g/m*3 10.6 C 0 km/h
1466 20-11-2008 17:34:02 10.4 C 6.94 g/m*3 10.4 C 0 km/h
1467 20-11-2008 17:46:02 10.3 C 6.99 g/m*3 10.3 C 0 km/h
1468 20-11-2008 17:58:02 10.3 C 6.99 g/m*3 10.3 C 0 km/h
1469 20-11-2008 18:10:02 10 C 7.05 g/m*3 10 C 0 km/h
1470 20-11-2008 18:22:02 9.6 C 7.42 g/m*3 9.6 C 0 km/h
1471 20-11-2008 18:34:02 9.3 C 7.64 g/m*3 9.3 C 0 km/h
1472 20-11-2008 18:46:01 9 C 7.49 g/m*3 9 C 0 km/h
1473 20-11-2008 18:58:01 8.9 C 7.62 g/m*3 8.9 C 0 km/h
1474 20-11-2008 19:10:02 8.7 C 7.7 g/m*3 8.7 C 0 km/h
1475 20-11-2008 19:22:02 8.6 C 7.39 g/m*3 8.6 C 0 km/h
Sensor: Nr:Datum:Temp:Abs-Feuchte:Windchill:Wind:
Aussen-T/F 1476 20-11-2008 19:34:02 9 C 6.88 g/m*3 9 C 0 km/h
1477 20-11-2008 19:46:02 9.1 C 6.74 g/m*3 9.1 C 0 km/h
1478 20-11-2008 19:58:02 9 C 6.7 g/m*3 9 C 0 km/h
1479 20-11-2008 20:10:02 9.2 C 6.43 g/m*3 9.2 C 0 km/h
1480 20-11-2008 20:22:01 9.2 C 6.16 g/m*3 9.2 C 0 km/h
1481 20-11-2008 20:34:02 9.3 C 6.2 g/m*3 9.3 C 0 km/h
1482 20-11-2008 20:46:02 9.3 C 6.11 g/m*3 9.3 C 0 km/h
1483 20-11-2008 20:58:02 9.3 C 6.11 g/m*3 9.3 C 0 km/h
1484 20-11-2008 21:10:02 9.3 C 6.02 g/m*3 9.3 C 0 km/h
1485 20-11-2008 21:22:02 9.4 C 5.97 g/m*3 9.4 C 0 km/h
1486 20-11-2008 21:34:02 9 C 6.17 g/m*3 9 C 0 km/h
1487 20-11-2008 21:46:02 8.7 C 6.31 g/m*3 8.7 C 0 km/h
1488 20-11-2008 21:58:02 8.8 C 6.35 g/m*3 8.8 C 0 km/h
1489 20-11-2008 22:10:03 9.1 C 5.94 g/m*3 9.1 C 0 km/h
1490 20-11-2008 22:23:02 9 C 6.08 g/m*3 9 C 0 km/h
1491 20-11-2008 22:35:02 9.1 C 6.03 g/m*3 9.1 C 0 km/h
1492 20-11-2008 22:47:02 8.9 C 6.13 g/m*3 8.9 C 0 km/h
1493 20-11-2008 22:59:02 8.9 C 6.04 g/m*3 8.9 C 0 km/h
1494 20-11-2008 23:11:02 9.1 C 5.94 g/m*3 9.1 C 0 km/h
1495 20-11-2008 23:23:02 8.9 C 5.96 g/m*3 8.9 C 0 km/h
1496 20-11-2008 23:35:02 8.9 C 5.96 g/m*3 8.9 C 0 km/h
1497 20-11-2008 23:47:02 8.8 C 5.92 g/m*3 8.8 C 0 km/h
1498 20-11-2008 23:59:02 8.9 C 6.04 g/m*3 8.9 C 0 km/h
1499 21-11-2008 00:11:02 8.8 C 6.01 g/m*3 8.8 C 0 km/h
1500 21-11-2008 00:23:02 8.9 C 5.96 g/m*3 8.9 C 0 km/h
Sensor: Nr:Datum:Temp:Abs-Feuchte:Windchill:Wind:
Aussen-T/F 1501 21-11-2008 00:35:02 8.9 C 5.78 g/m*3 8.9 C 0 km/h
1502 21-11-2008 00:47:02 8.6 C 5.76 g/m*3 8.6 C 0 km/h
1503 21-11-2008 00:59:02 8.8 C 5.83 g/m*3 8.8 C 0 km/h
1504 21-11-2008 01:11:02 8.9 C 5.87 g/m*3 8.9 C 0 km/h
1505 21-11-2008 01:23:02 9 C 5.82 g/m*3 9 C 0 km/h
1506 21-11-2008 01:35:02 8.9 C 5.96 g/m*3 8.9 C 0 km/h
1507 21-11-2008 01:47:02 8.9 C 5.96 g/m*3 8.9 C 0 km/h
1508 21-11-2008 01:59:02 8.9 C 5.96 g/m*3 8.9 C 0 km/h
1509 21-11-2008 02:11:02 8.9 C 5.87 g/m*3 8.9 C 0 km/h
1510 21-11-2008 02:23:02 8.9 C 5.78 g/m*3 8.9 C 0 km/h
1511 21-11-2008 02:35:03 8.9 C 5.69 g/m*3 8.9 C 0 km/h
1512 21-11-2008 02:47:03 9 C 5.64 g/m*3 9 C 0 km/h
1513 21-11-2008 02:59:03 8.8 C 5.83 g/m*3 8.8 C 0 km/h
1514 21-11-2008 03:11:03 8.7 C 5.88 g/m*3 8.7 C 0 km/h
1515 21-11-2008 03:23:03 8.6 C 5.84 g/m*3 8.6 C 0 km/h
1516 21-11-2008 03:35:03 8.5 C 5.89 g/m*3 8.5 C 0 km/h
1517 21-11-2008 03:47:03 8.6 C 5.84 g/m*3 8.6 C 0 km/h
1518 21-11-2008 03:59:03 8.3 C 6.07 g/m*3 8.3 C 0 km/h
1519 21-11-2008 04:11:03 7.8 C 6.28 g/m*3 7.8 C 0 km/h
1520 21-11-2008 04:23:03 7.5 C 6.32 g/m*3 7.5 C 0 km/h
1521 21-11-2008 04:35:03 7.9 C 6.24 g/m*3 7.9 C 0 km/h
1522 21-11-2008 04:47:03 8.1 C 6.07 g/m*3 8.1 C 0 km/h
1523 21-11-2008 04:59:03 8 C 6.2 g/m*3 8 C 0 km/h
1524 21-11-2008 05:11:03 8 C 6.12 g/m*3 8 C 0 km/h
1525 21-11-2008 05:23:03 8.1 C 6.24 g/m*3 8.1 C 0 km/h
Sensor: Nr:Datum:Temp:Abs-Feuchte:Windchill:Wind:
Aussen-T/F 1526 21-11-2008 05:35:03 7.8 C 6.45 g/m*3 7.8 C 0 km/h
1527 21-11-2008 05:47:03 7.6 C 6.53 g/m*3 7.6 C 0 km/h
1528 21-11-2008 05:59:03 7.5 C 6.56 g/m*3 7.5 C 0 km/h
1529 21-11-2008 06:11:03 7.4 C 6.6 g/m*3 7.4 C 0 km/h
1530 21-11-2008 06:23:03 7.5 C 6.64 g/m*3 7.5 C 0 km/h
1531 21-11-2008 06:35:04 7.5 C 6.56 g/m*3 7.5 C 0 km/h
1532 21-11-2008 06:47:04 7.5 C 6.56 g/m*3 7.5 C 0 km/h
1533 21-11-2008 06:59:04 7.5 C 6.56 g/m*3 7.5 C 0 km/h
1534 21-11-2008 07:11:03 7.6 C 6.53 g/m*3 7.6 C 0 km/h
1535 21-11-2008 07:23:03 7.8 C 6.53 g/m*3 7.8 C 0 km/h
1536 21-11-2008 07:35:02 8 C 6.37 g/m*3 8 C 0 km/h
1537 21-11-2008 07:47:02 8.1 C 6.24 g/m*3 8.1 C 0 km/h
1538 21-11-2008 07:59:02 8.2 C 6.11 g/m*3 8.2 C 0 km/h
1539 21-11-2008 08:11:02 8.5 C 6.06 g/m*3 8.5 C 0 km/h
1540 21-11-2008 08:23:02 8.7 C 5.88 g/m*3 8.7 C 0 km/h
1541 21-11-2008 08:35:02 8.7 C 5.79 g/m*3 8.7 C 0 km/h
1542 21-11-2008 08:47:01 6.4 C 5.81 g/m*3 6.4 C 0 km/h
1543 21-11-2008 08:59:01 6.5 C 6.07 g/m*3 6.5 C 0 km/h
1544 21-11-2008 09:11:02 6.9 C 6.16 g/m*3 6.9 C 0 km/h
1545 21-11-2008 09:23:01 7.5 C 6.16 g/m*3 7.5 C 0 km/h
1546 21-11-2008 09:35:01 7.4 C 5.65 g/m*3 7.4 C 0 km/h
1547 21-11-2008 09:47:01 5.8 C 5.73 g/m*3 5.8 C 0 km/h
1548 21-11-2008 09:59:01 5.7 C 5.91 g/m*3 5.7 C 0 km/h
1549 21-11-2008 10:11:02 6.3 C 6.14 g/m*3 6.3 C 0 km/h
1550 21-11-2008 10:23:01 6.6 C 6.19 g/m*3 6.6 C 0 km/h
Sensor: Nr:Datum:Temp:Abs-Feuchte:Windchill:Wind:
Aussen-T/F 1551 21-11-2008 10:35:02 4.9 C 5.67 g/m*3 4.9 C 0 km/h
1552 21-11-2008 10:47:02 4.6 C 5.76 g/m*3 4.6 C 0 km/h
1553 21-11-2008 10:59:02 4.8 C 5.9 g/m*3 4.8 C 0 km/h
1554 21-11-2008 11:11:02 5 C 5.84 g/m*3 5 C 0 km/h
1555 21-11-2008 11:23:02 5.2 C 5.85 g/m*3 5.2 C 0 km/h
1556 21-11-2008 11:35:02 5.2 C 5.78 g/m*3 5.2 C 0 km/h
1557 21-11-2008 11:47:01 5.2 C 5.78 g/m*3 5.2 C 0 km/h
1558 21-11-2008 11:59:01 5.4 C 5.44 g/m*3 5.4 C 0 km/h
1559 21-11-2008 12:11:02 5.4 C 4.81 g/m*3 5.4 C 0 km/h
1560 21-11-2008 12:23:01 5.9 C 4.83 g/m*3 5.9 C 0 km/h
1561 21-11-2008 12:35:02 6.6 C 4.91 g/m*3 6.6 C 0 km/h
1562 21-11-2008 12:47:02 7 C 4.49 g/m*3 7 C 0 km/h
1563 21-11-2008 12:59:02 6.6 C 4.38 g/m*3 6.6 C 0 km/h
1564 21-11-2008 13:11:01 5.9 C 4.61 g/m*3 5.9 C 0 km/h
1565 21-11-2008 13:23:02 6.3 C 4.37 g/m*3 6.3 C 0 km/h
1566 21-11-2008 13:35:02 6.6 C 3.93 g/m*3 6.6 C 0 km/h
1567 21-11-2008 13:47:01 5.3 C 4.37 g/m*3 5.3 C 0 km/h
1568 21-11-2008 13:59:02 5.1 C 4.31 g/m*3 5.1 C 0 km/h
1569 21-11-2008 14:11:01 5.5 C 4.07 g/m*3 5.5 C 0 km/h
1570 21-11-2008 14:23:01 5.7 C 3.77 g/m*3 5.7 C 0 km/h
1571 21-11-2008 14:35:02 5.4 C 3.77 g/m*3 5.4 C 0 km/h
1572 21-11-2008 14:47:02 5.3 C 3.74 g/m*3 5.3 C 0 km/h
1573 21-11-2008 14:59:02 5.1 C 3.69 g/m*3 5.1 C 0 km/h
1574 21-11-2008 15:11:02 5.1 C 3.76 g/m*3 5.1 C 0 km/h
1575 21-11-2008 15:23:02 2.6 C 4.34 g/m*3 2.6 C 0 km/h
Sensor: Nr:Datum:Temp:Abs-Feuchte:Windchill:Wind:
Aussen-T/F 1576 21-11-2008 15:35:02 2 C 4.56 g/m*3 2 C 0 km/h
1577 21-11-2008 15:47:02 2.1 C 4.87 g/m*3 2.1 C 0 km/h
1578 21-11-2008 15:59:02 2.1 C 4.92 g/m*3 2.1 C 0 km/h
1579 21-11-2008 16:11:02 2.2 C 5.01 g/m*3 2.2 C 0 km/h
1580 21-11-2008 16:23:02 2.4 C 5.08 g/m*3 2.4 C 0 km/h
1581 21-11-2008 16:35:03 2.2 C 4.9 g/m*3 2.2 C 0 km/h
1582 21-11-2008 16:47:02 2.3 C 4.76 g/m*3 2.3 C 0 km/h
1583 21-11-2008 16:59:02 2.5 C 4.66 g/m*3 2.5 C 0 km/h
1584 21-11-2008 17:11:02 2.3 C 4.48 g/m*3 2.3 C 0 km/h
1585 21-11-2008 17:23:02 2.6 C 4.57 g/m*3 2.6 C 0 km/h
1586 21-11-2008 17:35:02 2.6 C 4.57 g/m*3 2.6 C 0 km/h
1587 21-11-2008 17:47:02 2.1 C 4.53 g/m*3 2.1 C 0 km/h
1588 21-11-2008 17:59:02 2.4 C 4.68 g/m*3 2.4 C 0 km/h
1589 21-11-2008 18:11:02 2.2 C 4.39 g/m*3 2.2 C 0 km/h
1590 21-11-2008 18:23:02 2.3 C 4.37 g/m*3 2.3 C 0 km/h
1591 21-11-2008 18:35:02 2.2 C 4.39 g/m*3 2.2 C 0 km/h
1592 21-11-2008 18:47:02 2.1 C 4.53 g/m*3 2.1 C 0 km/h
1593 21-11-2008 18:59:02 1.7 C 4.46 g/m*3 1.7 C 0 km/h
1594 21-11-2008 19:11:01 1.3 C 4.56 g/m*3 1.3 C 0 km/h
1595 21-11-2008 19:23:02 1.3 C 4.61 g/m*3 1.3 C 0 km/h
1596 21-11-2008 19:35:02 1 C 4.52 g/m*3 1 C 0 km/h
1597 21-11-2008 19:47:02 0.7 C 4.47 g/m*3 0.7 C 0 km/h
1598 21-11-2008 19:59:02 0.7 C 4.53 g/m*3 0.7 C 0 km/h
1599 21-11-2008 20:11:02 1 C 4.67 g/m*3 1 C 0 km/h
1600 21-11-2008 20:23:02 1.1 C 4.76 g/m*3 1.1 C 0 km/h
Sensor: Nr:Datum:Temp:Abs-Feuchte:Windchill:Wind:
Aussen-T/F 1601 21-11-2008 20:35:02 1 C 4.72 g/m*3 1 C 0 km/h
1602 21-11-2008 20:47:02 0.9 C 4.74 g/m*3 0.9 C 0 km/h
1603 21-11-2008 20:59:02 1.1 C 4.6 g/m*3 1.1 C 0 km/h
1604 21-11-2008 21:11:02 1.1 C 4.39 g/m*3 1.1 C 0 km/h
1605 21-11-2008 21:23:02 1.2 C 4.21 g/m*3 1.2 C 0 km/h
1606 21-11-2008 21:35:02 1.2 C 4.1 g/m*3 1.2 C 0 km/h
1607 21-11-2008 21:47:02 1.3 C 4.08 g/m*3 1.3 C 0 km/h
1608 21-11-2008 21:59:02 1.4 C 4.05 g/m*3 1.4 C 0 km/h
1609 21-11-2008 22:11:03 1.4 C 4.11 g/m*3 1.4 C 0 km/h
1610 21-11-2008 22:23:02 1.6 C 4.16 g/m*3 1.6 C 0 km/h
1611 21-11-2008 22:35:03 1.5 C 4.24 g/m*3 1.5 C 0 km/h
1612 21-11-2008 22:47:02 1.5 C 4.3 g/m*3 1.5 C 0 km/h
1613 21-11-2008 22:59:02 1.5 C 4.3 g/m*3 1.5 C 0 km/h
1614 21-11-2008 23:11:02 1.7 C 4.3 g/m*3 1.7 C 0 km/h
1615 21-11-2008 23:23:01 1.8 C 4.33 g/m*3 1.8 C 0 km/h
1616 21-11-2008 23:35:02 1.8 C 4.33 g/m*3 1.8 C 0 km/h
1617 21-11-2008 23:47:02 2 C 4.28 g/m*3 2 C 0 km/h
1618 21-11-2008 23:59:02 2 C 4.22 g/m*3 2 C 0 km/h
1619 22-11-2008 00:11:01 2.2 C 4.11 g/m*3 2.2 C 0 km/h
1620 22-11-2008 00:23:01 2.1 C 4.2 g/m*3 2.1 C 0 km/h
1621 22-11-2008 00:35:01 1.6 C 4.33 g/m*3 1.6 C 0 km/h
1622 22-11-2008 00:48:03 1.2 C 4.42 g/m*3 1.2 C 0 km/h
1623 22-11-2008 01:00:03 0.6 C 4.39 g/m*3 0.6 C 0 km/h
1624 22-11-2008 01:12:03 0.4 C 4.43 g/m*3 0.4 C 0 km/h
1625 22-11-2008 01:24:03 0.3 C 4.45 g/m*3 0.3 C 0 km/h
Sensor: Nr:Datum:Temp:Abs-Feuchte:Windchill:Wind:
Aussen-T/F 1626 22-11-2008 01:36:03 0.1 C 4.44 g/m*3 0.1 C 0 km/h
1627 22-11-2008 01:48:03 0 C 4.41 g/m*3 0 C 0 km/h
1628 22-11-2008 02:00:03 0 C 4.41 g/m*3 0 C 0 km/h
1629 22-11-2008 02:12:03 0 C 4.41 g/m*3 0 C 0 km/h
1630 22-11-2008 02:24:03 -0.1 C 4.38 g/m*3 -0.1 C 0 km/h
1631 22-11-2008 02:36:04 0 C 4.41 g/m*3 0 C 0 km/h
1632 22-11-2008 02:48:04 0 C 4.41 g/m*3 0 C 0 km/h
1633 22-11-2008 03:00:04 0.1 C 4.39 g/m*3 0.1 C 0 km/h
1634 22-11-2008 03:12:04 0.2 C 4.37 g/m*3 0.2 C 0 km/h
1635 22-11-2008 03:24:04 0.2 C 4.32 g/m*3 0.2 C 0 km/h
1636 22-11-2008 03:36:04 0.4 C 4.28 g/m*3 0.4 C 0 km/h
1637 22-11-2008 03:48:04 0.3 C 4.16 g/m*3 0.3 C 0 km/h
1638 22-11-2008 04:00:04 0.3 C 4.16 g/m*3 0.3 C 0 km/h
1639 22-11-2008 04:12:04 0.4 C 4.18 g/m*3 0.4 C 0 km/h
1640 22-11-2008 04:24:04 0.5 C 4.16 g/m*3 0.5 C 0 km/h
1641 22-11-2008 04:36:04 0.6 C 4.04 g/m*3 0.6 C 0 km/h
1642 22-11-2008 04:48:04 0.5 C 3.96 g/m*3 0.5 C 0 km/h
1643 22-11-2008 05:00:04 0.4 C 3.93 g/m*3 0.4 C 0 km/h
1644 22-11-2008 05:12:04 0.5 C 3.86 g/m*3 0.5 C 0 km/h
1645 22-11-2008 05:24:04 0.6 C 3.89 g/m*3 0.6 C 0 km/h
1646 22-11-2008 05:36:04 0.7 C 4.02 g/m*3 0.7 C 0 km/h
1647 22-11-2008 05:48:04 0.3 C 4.11 g/m*3 0.3 C 0 km/h
1648 22-11-2008 06:00:04 -0.1 C 4.19 g/m*3 -0.1 C 0 km/h
1649 22-11-2008 06:12:04 -0.2 C 4.25 g/m*3 -0.2 C 0 km/h
1650 22-11-2008 06:24:04 -0.1 C 4.28 g/m*3 -0.1 C 0 km/h
Sensor: Nr:Datum:Temp:Abs-Feuchte:Windchill:Wind:
Aussen-T/F 1651 22-11-2008 06:36:05 0 C 4.26 g/m*3 0 C 0 km/h
1652 22-11-2008 06:48:05 0 C 4.22 g/m*3 0 C 0 km/h
1653 22-11-2008 07:00:05 0.1 C 4.1 g/m*3 0.1 C 0 km/h
1654 22-11-2008 07:12:05 0.1 C 4 g/m*3 0.1 C 0 km/h
1655 22-11-2008 07:24:05 0 C 3.92 g/m*3 0 C 0 km/h
1656 22-11-2008 07:36:05 0.3 C 3.81 g/m*3 0.3 C 0 km/h
1657 22-11-2008 07:48:05 0.2 C 3.78 g/m*3 0.2 C 0 km/h
1658 22-11-2008 08:00:05 0.4 C 3.79 g/m*3 0.4 C 0 km/h
1659 22-11-2008 08:12:05 -0.1 C 3.66 g/m*3 -0.1 C 0 km/h
1660 22-11-2008 08:24:05 -0.2 C 3.68 g/m*3 -0.2 C 0 km/h
1661 22-11-2008 08:36:05 0.2 C 3.73 g/m*3 0.2 C 0 km/h
1662 22-11-2008 08:48:05 0.4 C 3.64 g/m*3 0.4 C 0 km/h
1663 22-11-2008 09:00:05 0.5 C 3.61 g/m*3 0.5 C 0 km/h
1664 22-11-2008 09:12:03 0.6 C 3.64 g/m*3 0.6 C 0 km/h
1665 22-11-2008 09:24:03 0.8 C 3.74 g/m*3 0.8 C 0 km/h
1666 22-11-2008 09:36:03 0.9 C 3.71 g/m*3 0.9 C 0 km/h
1667 22-11-2008 09:48:02 0.7 C 3.71 g/m*3 0.7 C 0 km/h
1668 22-11-2008 10:00:02 0.7 C 3.71 g/m*3 0.7 C 0 km/h
1669 22-11-2008 10:12:03 0.8 C 3.74 g/m*3 0.8 C 0 km/h
1670 22-11-2008 10:24:02 1 C 3.63 g/m*3 1 C 0 km/h
1671 22-11-2008 10:36:03 1.2 C 3.63 g/m*3 1.2 C 0 km/h
1672 22-11-2008 10:48:02 1.5 C 3.65 g/m*3 1.5 C 0 km/h
1673 22-11-2008 11:00:02 1.6 C 3.62 g/m*3 1.6 C 0 km/h
1674 22-11-2008 11:12:02 1.5 C 3.6 g/m*3 1.5 C 0 km/h
1675 22-11-2008 11:24:02 1.5 C 3.65 g/m*3 1.5 C 0 km/h
Sensor: Nr:Datum:Temp:Abs-Feuchte:Windchill:Wind:
Aussen-T/F 1676 22-11-2008 11:36:01 1.9 C 3.7 g/m*3 1.9 C 0 km/h
1677 22-11-2008 11:48:02 2.1 C 3.64 g/m*3 2.1 C 0 km/h
1678 22-11-2008 12:00:02 1.7 C 3.81 g/m*3 1.7 C 0 km/h
1679 22-11-2008 12:12:01 1 C 4.1 g/m*3 1 C 0 km/h
1680 22-11-2008 12:24:02 1.7 C 4.03 g/m*3 1.7 C 0 km/h
1681 22-11-2008 12:36:01 1.9 C 3.86 g/m*3 1.9 C 0 km/h
1682 22-11-2008 12:48:02 2.2 C 3.72 g/m*3 2.2 C 0 km/h
1683 22-11-2008 13:00:02 2.2 C 3.72 g/m*3 2.2 C 0 km/h
1684 22-11-2008 13:12:01 2.3 C 3.69 g/m*3 2.3 C 0 km/h
1685 22-11-2008 13:24:02 2.2 C 3.72 g/m*3 2.2 C 0 km/h
1686 22-11-2008 13:36:01 2 C 3.67 g/m*3 2 C 0 km/h
1687 22-11-2008 13:48:01 2.2 C 3.72 g/m*3 2.2 C 0 km/h
1688 22-11-2008 14:00:01 2.2 C 3.72 g/m*3 2.2 C 0 km/h
1689 22-11-2008 14:12:02 2.3 C 3.63 g/m*3 2.3 C 0 km/h
1690 22-11-2008 14:24:02 2.5 C 3.74 g/m*3 2.5 C 0 km/h
1691 22-11-2008 14:36:01 2.6 C 3.59 g/m*3 2.6 C 0 km/h
1692 22-11-2008 14:48:02 2.5 C 3.39 g/m*3 2.5 C 0 km/h
1693 22-11-2008 15:00:02 2.6 C 3.47 g/m*3 2.6 C 0 km/h
1694 22-11-2008 15:12:02 2.5 C 3.33 g/m*3 2.5 C 0 km/h
1695 22-11-2008 15:24:01 2.5 C 3.28 g/m*3 2.5 C 0 km/h
1696 22-11-2008 15:36:02 2.2 C 3.27 g/m*3 2.2 C 0 km/h
1697 22-11-2008 15:48:02 2.2 C 3.27 g/m*3 2.2 C 0 km/h
1698 22-11-2008 16:00:02 2.4 C 3.2 g/m*3 2.4 C 0 km/h
1699 22-11-2008 16:12:02 2.3 C 3.23 g/m*3 2.3 C 0 km/h
1700 22-11-2008 16:24:02 2.1 C 3.3 g/m*3 2.1 C 0 km/h
Sensor: Nr:Datum:Temp:Abs-Feuchte:Windchill:Wind:
Aussen-T/F 1701 22-11-2008 16:36:03 1.8 C 3.4 g/m*3 1.8 C 0 km/h
1702 22-11-2008 16:48:02 1.6 C 3.46 g/m*3 1.6 C 0 km/h
1703 22-11-2008 17:00:02 1.3 C 3.44 g/m*3 1.3 C 0 km/h
1704 22-11-2008 17:12:03 1.3 C 3.5 g/m*3 1.3 C 0 km/h
1705 22-11-2008 17:24:02 1.5 C 3.54 g/m*3 1.5 C 0 km/h
1706 22-11-2008 17:36:03 1.5 C 3.54 g/m*3 1.5 C 0 km/h
1707 22-11-2008 17:48:02 1.5 C 3.54 g/m*3 1.5 C 0 km/h
1708 22-11-2008 18:00:02 1.6 C 3.57 g/m*3 1.6 C 0 km/h
1709 22-11-2008 18:12:02 1.7 C 3.54 g/m*3 1.7 C 0 km/h
1710 22-11-2008 18:24:02 1.6 C 3.57 g/m*3 1.6 C 0 km/h
1711 22-11-2008 18:36:02 1.7 C 3.59 g/m*3 1.7 C 0 km/h
1712 22-11-2008 18:48:02 1.6 C 3.62 g/m*3 1.6 C 0 km/h
1713 22-11-2008 19:00:02 1.7 C 3.54 g/m*3 1.7 C 0 km/h
1714 22-11-2008 19:12:01 1.7 C 3.59 g/m*3 1.7 C 0 km/h
1715 22-11-2008 19:24:02 1.4 C 3.57 g/m*3 1.4 C 0 km/h
1716 22-11-2008 19:36:01 1.4 C 3.63 g/m*3 1.4 C 0 km/h
1717 22-11-2008 19:48:02 1.1 C 3.5 g/m*3 1.1 C 0 km/h
1718 22-11-2008 20:00:02 0.7 C 3.56 g/m*3 0.7 C 0 km/h
1719 22-11-2008 20:12:01 0.9 C 3.61 g/m*3 0.9 C 0 km/h
1720 22-11-2008 20:24:02 1.1 C 3.55 g/m*3 1.1 C 0 km/h
1721 22-11-2008 20:36:01 1.3 C 3.55 g/m*3 1.3 C 0 km/h
1722 22-11-2008 20:48:01 1.3 C 3.6 g/m*3 1.3 C 0 km/h
1723 22-11-2008 21:00:01 1.3 C 3.6 g/m*3 1.3 C 0 km/h
1724 22-11-2008 21:12:02 1.2 C 3.58 g/m*3 1.2 C 0 km/h
1725 22-11-2008 21:24:01 1.1 C 3.55 g/m*3 1.1 C 0 km/h
Sensor: Nr:Datum:Temp:Abs-Feuchte:Windchill:Wind:
Aussen-T/F 1726 22-11-2008 21:36:01 1 C 3.53 g/m*3 1 C 0 km/h
1727 22-11-2008 21:48:01 0.9 C 3.56 g/m*3 0.9 C 0 km/h
1728 22-11-2008 22:00:01 0.7 C 3.51 g/m*3 0.7 C 0 km/h
1729 22-11-2008 22:12:02 0.8 C 3.58 g/m*3 0.8 C 0 km/h
1730 22-11-2008 22:24:01 0.8 C 3.58 g/m*3 0.8 C 0 km/h
1731 22-11-2008 22:36:02 1 C 3.53 g/m*3 1 C 0 km/h
1732 22-11-2008 22:48:02 1.1 C 3.5 g/m*3 1.1 C 0 km/h
1733 22-11-2008 23:00:02 1 C 3.53 g/m*3 1 C 0 km/h
1734 22-11-2008 23:12:03 1 C 3.53 g/m*3 1 C 0 km/h
1735 22-11-2008 23:24:02 1.1 C 3.5 g/m*3 1.1 C 0 km/h
1736 22-11-2008 23:36:02 1 C 3.53 g/m*3 1 C 0 km/h
1737 22-11-2008 23:48:02 0.9 C 3.61 g/m*3 0.9 C 0 km/h
1738 23-11-2008 00:00:02 0.8 C 3.58 g/m*3 0.8 C 0 km/h
1739 23-11-2008 00:12:02 0.9 C 3.61 g/m*3 0.9 C 0 km/h
1740 23-11-2008 00:24:02 0.9 C 3.66 g/m*3 0.9 C 0 km/h
1741 23-11-2008 00:36:02 0.8 C 3.74 g/m*3 0.8 C 0 km/h
1742 23-11-2008 00:48:02 0.6 C 3.84 g/m*3 0.6 C 0 km/h
1743 23-11-2008 01:00:02 0.5 C 3.91 g/m*3 0.5 C 0 km/h
1744 23-11-2008 01:12:02 0.4 C 3.93 g/m*3 0.4 C 0 km/h
1745 23-11-2008 01:24:02 0.4 C 3.98 g/m*3 0.4 C 0 km/h
1746 23-11-2008 01:36:02 0.3 C 4.01 g/m*3 0.3 C 0 km/h
1747 23-11-2008 01:48:02 0.1 C 4.05 g/m*3 0.1 C 0 km/h
1748 23-11-2008 02:00:02 0.1 C 4.1 g/m*3 0.1 C 0 km/h
1749 23-11-2008 02:12:03 0.2 C 4.18 g/m*3 0.2 C 0 km/h
1750 23-11-2008 02:24:02 0.2 C 4.22 g/m*3 0.2 C 0 km/h
Sensor: Nr:Datum:Temp:Abs-Feuchte:Windchill:Wind:
Aussen-T/F 1751 23-11-2008 02:36:03 0.1 C 4.24 g/m*3 0.1 C 0 km/h
1752 23-11-2008 02:48:01 0.1 C 4.29 g/m*3 0.1 C 0 km/h
1753 23-11-2008 03:00:01 0.2 C 4.37 g/m*3 0.2 C 0 km/h
1754 23-11-2008 03:12:01 0.2 C 4.42 g/m*3 0.2 C 0 km/h
1755 23-11-2008 03:24:01 0.3 C 4.5 g/m*3 0.3 C 0 km/h
1756 23-11-2008 03:36:01 0.3 C 4.5 g/m*3 0.3 C 0 km/h
1757 23-11-2008 03:48:01 0.3 C 4.5 g/m*3 0.3 C 0 km/h
1758 23-11-2008 04:00:01 0.5 C 4.61 g/m*3 0.5 C 0 km/h
1759 23-11-2008 04:12:02 0.5 C 4.61 g/m*3 0.5 C 0 km/h
1760 23-11-2008 04:24:01 0.5 C 4.61 g/m*3 0.5 C 0 km/h
1761 23-11-2008 04:36:02 0.5 C 4.61 g/m*3 0.5 C 0 km/h
1762 23-11-2008 04:48:01 0.5 C 4.56 g/m*3 0.5 C 0 km/h
1763 23-11-2008 05:00:01 0.5 C 4.51 g/m*3 0.5 C 0 km/h
1764 23-11-2008 05:12:02 0.6 C 4.49 g/m*3 0.6 C 0 km/h
1765 23-11-2008 05:24:01 0.5 C 4.41 g/m*3 0.5 C 0 km/h
1766 23-11-2008 05:36:02 0.5 C 4.36 g/m*3 0.5 C 0 km/h
1767 23-11-2008 05:48:01 0.5 C 4.36 g/m*3 0.5 C 0 km/h
1768 23-11-2008 06:00:01 0.6 C 4.34 g/m*3 0.6 C 0 km/h
1769 23-11-2008 06:12:02 0.7 C 4.37 g/m*3 0.7 C 0 km/h
1770 23-11-2008 06:24:01 0.7 C 4.37 g/m*3 0.7 C 0 km/h
1771 23-11-2008 06:36:02 0.6 C 4.34 g/m*3 0.6 C 0 km/h
1772 23-11-2008 06:48:01 0.6 C 4.34 g/m*3 0.6 C 0 km/h
1773 23-11-2008 07:00:02 0.6 C 4.39 g/m*3 0.6 C 0 km/h
1774 23-11-2008 07:12:01 0.6 C 4.39 g/m*3 0.6 C 0 km/h
1775 23-11-2008 07:24:01 0.6 C 4.44 g/m*3 0.6 C 0 km/h
Sensor: Nr:Datum:Temp:Abs-Feuchte:Windchill:Wind:
Aussen-T/F 1776 23-11-2008 07:36:01 0.6 C 4.44 g/m*3 0.6 C 0 km/h
1777 23-11-2008 07:48:01 0.6 C 4.44 g/m*3 0.6 C 0 km/h
1778 23-11-2008 08:00:01 0.6 C 4.49 g/m*3 0.6 C 0 km/h
1779 23-11-2008 08:12:02 0.7 C 4.53 g/m*3 0.7 C 0 km/h
1780 23-11-2008 08:24:02 0.7 C 4.53 g/m*3 0.7 C 0 km/h
1781 23-11-2008 08:36:01 0.8 C 4.56 g/m*3 0.8 C 0 km/h
1782 23-11-2008 08:48:01 0.7 C 4.53 g/m*3 0.7 C 0 km/h
1783 23-11-2008 09:00:01 0.8 C 4.56 g/m*3 0.8 C 0 km/h
1784 23-11-2008 09:12:02 1.1 C 4.55 g/m*3 1.1 C 0 km/h
1785 23-11-2008 09:24:01 1.2 C 4.42 g/m*3 1.2 C 0 km/h
1786 23-11-2008 09:36:01 1.5 C 4.4 g/m*3 1.5 C 0 km/h
1787 23-11-2008 09:48:01 1.6 C 4.33 g/m*3 1.6 C 0 km/h
1788 23-11-2008 10:00:01 1.7 C 4.3 g/m*3 1.7 C 0 km/h
1789 23-11-2008 10:12:02 1.9 C 4.25 g/m*3 1.9 C 0 km/h
1790 23-11-2008 10:24:01 2.1 C 4.2 g/m*3 2.1 C 0 km/h
1791 23-11-2008 10:36:02 2 C 4.11 g/m*3 2 C 0 km/h
1792 23-11-2008 10:48:02 2.1 C 4.03 g/m*3 2.1 C 0 km/h
1793 23-11-2008 11:00:02 2.2 C 4 g/m*3 2.2 C 0 km/h
1794 23-11-2008 11:12:01 2.4 C 4 g/m*3 2.4 C 0 km/h
1795 23-11-2008 11:24:02 2.5 C 3.97 g/m*3 2.5 C 0 km/h
1796 23-11-2008 11:36:02 2.6 C 3.99 g/m*3 2.6 C 0 km/h
1797 23-11-2008 11:48:02 2.6 C 3.94 g/m*3 2.6 C 0 km/h
1798 23-11-2008 12:00:02 2.5 C 3.85 g/m*3 2.5 C 0 km/h
1799 23-11-2008 12:12:01 2.4 C 3.83 g/m*3 2.4 C 0 km/h
1800 23-11-2008 12:24:02 2.4 C 3.83 g/m*3 2.4 C 0 km/h
Sensor: Nr:Datum:Temp:Abs-Feuchte:Windchill:Wind:
Aussen-T/F 1801 23-11-2008 12:36:02 2.2 C 3.83 g/m*3 2.2 C 0 km/h
1802 23-11-2008 12:48:02 2.3 C 3.91 g/m*3 2.3 C 0 km/h
1803 23-11-2008 13:00:02 2.3 C 3.86 g/m*3 2.3 C 0 km/h
1804 23-11-2008 13:12:01 2.1 C 3.69 g/m*3 2.1 C 0 km/h
1805 23-11-2008 13:24:02 1.8 C 3.67 g/m*3 1.8 C 0 km/h
1806 23-11-2008 13:36:01 2 C 3.72 g/m*3 2 C 0 km/h
1807 23-11-2008 13:48:02 2 C 3.72 g/m*3 2 C 0 km/h
1808 23-11-2008 14:00:02 2 C 3.61 g/m*3 2 C 0 km/h
1809 23-11-2008 14:12:02 1.8 C 3.56 g/m*3 1.8 C 0 km/h
1810 23-11-2008 14:24:02 1.7 C 3.48 g/m*3 1.7 C 0 km/h
1811 23-11-2008 14:36:01 1.6 C 3.46 g/m*3 1.6 C 0 km/h
1812 23-11-2008 14:48:01 1.6 C 3.46 g/m*3 1.6 C 0 km/h
1813 23-11-2008 15:00:01 1.6 C 3.41 g/m*3 1.6 C 0 km/h
1814 23-11-2008 15:12:02 1.6 C 3.41 g/m*3 1.6 C 0 km/h
1815 23-11-2008 15:24:02 1.6 C 3.46 g/m*3 1.6 C 0 km/h
1816 23-11-2008 15:36:01 1.5 C 3.44 g/m*3 1.5 C 0 km/h
1817 23-11-2008 15:48:01 1.5 C 3.44 g/m*3 1.5 C 0 km/h
1818 23-11-2008 16:00:01 1.5 C 3.44 g/m*3 1.5 C 0 km/h
1819 23-11-2008 16:12:02 1.4 C 3.52 g/m*3 1.4 C 0 km/h
1820 23-11-2008 16:24:02 1.2 C 3.47 g/m*3 1.2 C 0 km/h
1821 23-11-2008 16:36:02 1.2 C 3.53 g/m*3 1.2 C 0 km/h
1822 23-11-2008 16:48:02 1.1 C 3.55 g/m*3 1.1 C 0 km/h
1823 23-11-2008 17:00:02 1 C 3.58 g/m*3 1 C 0 km/h
1824 23-11-2008 17:12:01 0.8 C 3.74 g/m*3 0.8 C 0 km/h
1825 23-11-2008 17:24:02 0.5 C 3.86 g/m*3 0.5 C 0 km/h
Sensor: Nr:Datum:Temp:Abs-Feuchte:Windchill:Wind:
Aussen-T/F 1826 23-11-2008 17:36:01 0.3 C 4.01 g/m*3 0.3 C 0 km/h
1827 23-11-2008 17:48:02 0.1 C 4.15 g/m*3 0.1 C 0 km/h
1828 23-11-2008 18:00:02 0.1 C 4.2 g/m*3 0.1 C 0 km/h
1829 23-11-2008 18:12:01 0 C 4.22 g/m*3 0 C 0 km/h
1830 23-11-2008 18:24:02 0 C 4.26 g/m*3 0 C 0 km/h
1831 23-11-2008 18:36:01 0 C 4.26 g/m*3 0 C 0 km/h
1832 23-11-2008 18:48:01 0 C 4.26 g/m*3 0 C 0 km/h
1833 23-11-2008 19:00:01 -0.1 C 4.23 g/m*3 -0.1 C 0 km/h
1834 23-11-2008 19:12:02 -0.2 C 4.21 g/m*3 -0.2 C 0 km/h
1835 23-11-2008 19:24:01 -0.2 C 4.16 g/m*3 -0.2 C 0 km/h
1836 23-11-2008 19:36:02 -0.2 C 4.16 g/m*3 -0.2 C 0 km/h
1837 23-11-2008 19:48:01 -0.2 C 4.16 g/m*3 -0.2 C 0 km/h
1838 23-11-2008 20:00:01 -0.2 C 4.16 g/m*3 -0.2 C 0 km/h
1839 23-11-2008 20:12:02 -0.2 C 4.21 g/m*3 -0.2 C 0 km/h
1840 23-11-2008 20:24:01 -0.2 C 4.21 g/m*3 -0.2 C 0 km/h
1841 23-11-2008 20:36:02 -0.2 C 4.16 g/m*3 -0.2 C 0 km/h
1842 23-11-2008 20:48:01 -0.1 C 4.19 g/m*3 -0.1 C 0 km/h
1843 23-11-2008 21:00:01 -0.1 C 4.19 g/m*3 -0.1 C 0 km/h
1844 23-11-2008 21:12:01 -0.1 C 4.19 g/m*3 -0.1 C 0 km/h
1845 23-11-2008 21:24:01 -0.1 C 4.14 g/m*3 -0.1 C 0 km/h
1846 23-11-2008 21:36:01 -0.1 C 4.14 g/m*3 -0.1 C 0 km/h
1847 23-11-2008 21:49:02 0 C 4.17 g/m*3 0 C 0 km/h
1848 23-11-2008 22:01:02 0 C 4.17 g/m*3 0 C 0 km/h
1849 23-11-2008 22:13:02 0.1 C 4.2 g/m*3 0.1 C 0 km/h
1850 23-11-2008 22:25:02 0.1 C 4.15 g/m*3 0.1 C 0 km/h
Sensor: Nr:Datum:Temp:Abs-Feuchte:Windchill:Wind:
Aussen-T/F 1851 23-11-2008 22:37:02 0.1 C 4.15 g/m*3 0.1 C 0 km/h
1852 23-11-2008 22:49:02 0.1 C 4.15 g/m*3 0.1 C 0 km/h
1853 23-11-2008 23:01:02 0.2 C 4.18 g/m*3 0.2 C 0 km/h
1854 23-11-2008 23:13:02 0.2 C 4.18 g/m*3 0.2 C 0 km/h
1855 23-11-2008 23:25:02 0.2 C 4.22 g/m*3 0.2 C 0 km/h
1856 23-11-2008 23:37:02 0.1 C 4.2 g/m*3 0.1 C 0 km/h
1857 23-11-2008 23:49:02 0.2 C 4.27 g/m*3 0.2 C 0 km/h
1858 24-11-2008 00:01:02 0.3 C 4.3 g/m*3 0.3 C 0 km/h
1859 24-11-2008 00:13:02 0.4 C 4.38 g/m*3 0.4 C 0 km/h
1860 24-11-2008 00:25:02 0.4 C 4.38 g/m*3 0.4 C 0 km/h
1861 24-11-2008 00:37:02 0.5 C 4.46 g/m*3 0.5 C 0 km/h
1862 24-11-2008 00:49:02 0.7 C 4.53 g/m*3 0.7 C 0 km/h
1863 24-11-2008 01:01:03 0.8 C 4.56 g/m*3 0.8 C 0 km/h
1864 24-11-2008 01:13:03 1 C 4.62 g/m*3 1 C 0 km/h
1865 24-11-2008 01:25:03 1.1 C 4.65 g/m*3 1.1 C 0 km/h
1866 24-11-2008 01:37:03 1.1 C 4.65 g/m*3 1.1 C 0 km/h
1867 24-11-2008 01:49:03 1.1 C 4.65 g/m*3 1.1 C 0 km/h
1868 24-11-2008 02:01:03 1.2 C 4.74 g/m*3 1.2 C 0 km/h
1869 24-11-2008 02:13:03 1.3 C 4.77 g/m*3 1.3 C 0 km/h
1870 24-11-2008 02:25:03 1.5 C 4.83 g/m*3 1.5 C 0 km/h
1871 24-11-2008 02:37:03 1.6 C 4.87 g/m*3 1.6 C 0 km/h
1872 24-11-2008 02:49:03 1.4 C 4.8 g/m*3 1.4 C 0 km/h
1873 24-11-2008 03:01:03 1.5 C 4.83 g/m*3 1.5 C 0 km/h
1874 24-11-2008 03:13:03 1.7 C 4.9 g/m*3 1.7 C 0 km/h
1875 24-11-2008 03:25:03 1.9 C 4.97 g/m*3 1.9 C 0 km/h
Sensor: Nr:Datum:Temp:Abs-Feuchte:Windchill:Wind:
Aussen-T/F 1876 24-11-2008 03:37:03 1.8 C 4.88 g/m*3 1.8 C 0 km/h
1877 24-11-2008 03:49:03 1.9 C 4.91 g/m*3 1.9 C 0 km/h
1878 24-11-2008 04:01:03 2.1 C 4.98 g/m*3 2.1 C 0 km/h
1879 24-11-2008 04:13:03 2.4 C 5.02 g/m*3 2.4 C 0 km/h
1880 24-11-2008 04:25:03 2.4 C 4.91 g/m*3 2.4 C 0 km/h
1881 24-11-2008 04:37:03 2.4 C 4.91 g/m*3 2.4 C 0 km/h
1882 24-11-2008 04:49:04 2.6 C 4.92 g/m*3 2.6 C 0 km/h
1883 24-11-2008 05:01:04 2.6 C 4.86 g/m*3 2.6 C 0 km/h
1884 24-11-2008 05:13:04 2.6 C 4.86 g/m*3 2.6 C 0 km/h
1885 24-11-2008 05:25:04 2.5 C 4.83 g/m*3 2.5 C 0 km/h
1886 24-11-2008 05:37:04 2.4 C 4.8 g/m*3 2.4 C 0 km/h
1887 24-11-2008 05:49:04 2.4 C 4.85 g/m*3 2.4 C 0 km/h
1888 24-11-2008 06:01:04 2.3 C 4.82 g/m*3 2.3 C 0 km/h
1889 24-11-2008 06:13:04 2.3 C 4.76 g/m*3 2.3 C 0 km/h
1890 24-11-2008 06:25:04 2.5 C 4.83 g/m*3 2.5 C 0 km/h
1891 24-11-2008 06:37:04 2.1 C 4.7 g/m*3 2.1 C 0 km/h
1892 24-11-2008 06:49:04 2 C 4.78 g/m*3 2 C 0 km/h
1893 24-11-2008 07:01:02 2.1 C 4.87 g/m*3 2.1 C 0 km/h
1894 24-11-2008 07:13:02 2.2 C 4.9 g/m*3 2.2 C 0 km/h
1895 24-11-2008 07:25:02 2.3 C 4.88 g/m*3 2.3 C 0 km/h
1896 24-11-2008 07:37:01 2.6 C 4.92 g/m*3 2.6 C 0 km/h
1897 24-11-2008 07:49:02 2.6 C 4.8 g/m*3 2.6 C 0 km/h
1898 24-11-2008 08:01:01 2.6 C 4.75 g/m*3 2.6 C 0 km/h
1899 24-11-2008 08:13:01 2.6 C 4.75 g/m*3 2.6 C 0 km/h
1900 24-11-2008 08:25:02 2.7 C 4.72 g/m*3 2.7 C 0 km/h
Sensor: Nr:Datum:Temp:Abs-Feuchte:Windchill:Wind:
Aussen-T/F 1901 24-11-2008 08:37:01 2.6 C 4.69 g/m*3 2.6 C 0 km/h
1902 24-11-2008 08:49:01 3 C 4.7 g/m*3 3 C 0 km/h
1903 24-11-2008 09:01:01 3.2 C 4.7 g/m*3 3.2 C 0 km/h
1904 24-11-2008 09:13:01 3.2 C 4.64 g/m*3 3.2 C 0 km/h
1905 24-11-2008 09:25:01 3.4 C 4.64 g/m*3 3.4 C 0 km/h
1906 24-11-2008 09:37:01 3.5 C 4.61 g/m*3 3.5 C 0 km/h
1907 24-11-2008 09:49:01 3.7 C 4.61 g/m*3 3.7 C 0 km/h
1908 24-11-2008 10:01:02 3.8 C 4.58 g/m*3 3.8 C 0 km/h
1909 24-11-2008 10:13:02 3.8 C 4.58 g/m*3 3.8 C 0 km/h
1910 24-11-2008 10:25:01 4 C 4.51 g/m*3 4 C 0 km/h
1911 24-11-2008 10:37:02 4 C 4.51 g/m*3 4 C 0 km/h
1912 24-11-2008 10:49:02 4 C 4.58 g/m*3 4 C 0 km/h
1913 24-11-2008 11:01:02 4 C 4.64 g/m*3 4 C 0 km/h
1914 24-11-2008 11:13:02 4.3 C 4.67 g/m*3 4.3 C 0 km/h
1915 24-11-2008 11:25:02 4.4 C 4.7 g/m*3 4.4 C 0 km/h
1916 24-11-2008 11:37:02 4.7 C 4.73 g/m*3 4.7 C 0 km/h
1917 24-11-2008 11:49:01 4.8 C 4.56 g/m*3 4.8 C 0 km/h
1918 24-11-2008 12:01:02 4.8 C 4.63 g/m*3 4.8 C 0 km/h
1919 24-11-2008 12:13:02 5.1 C 4.72 g/m*3 5.1 C 0 km/h
1920 24-11-2008 12:25:01 5.4 C 4.67 g/m*3 5.4 C 0 km/h
1921 24-11-2008 12:37:02 5.2 C 4.61 g/m*3 5.2 C 0 km/h
1922 24-11-2008 12:49:02 5.3 C 4.64 g/m*3 5.3 C 0 km/h
1923 24-11-2008 13:01:02 5.2 C 4.61 g/m*3 5.2 C 0 km/h
1924 24-11-2008 13:13:02 5.2 C 4.54 g/m*3 5.2 C 0 km/h
1925 24-11-2008 13:25:02 5 C 4.42 g/m*3 5 C 0 km/h
Sensor: Nr:Datum:Temp:Abs-Feuchte:Windchill:Wind:
Aussen-T/F 1926 24-11-2008 13:37:02 4.6 C 4.7 g/m*3 4.6 C 0 km/h
1927 24-11-2008 13:49:02 4.2 C 4.83 g/m*3 4.2 C 0 km/h
1928 24-11-2008 14:01:01 4 C 4.96 g/m*3 4 C 0 km/h
1929 24-11-2008 14:13:01 3.8 C 5.02 g/m*3 3.8 C 0 km/h
1930 24-11-2008 14:25:02 3.7 C 5.11 g/m*3 3.7 C 0 km/h
1931 24-11-2008 14:37:01 3.8 C 5.21 g/m*3 3.8 C 0 km/h
1932 24-11-2008 14:49:01 3.7 C 5.17 g/m*3 3.7 C 0 km/h
1933 24-11-2008 15:01:02 3.5 C 5.16 g/m*3 3.5 C 0 km/h
1934 24-11-2008 15:13:02 2.9 C 5.08 g/m*3 2.9 C 0 km/h
1935 24-11-2008 15:25:02 2.6 C 5.09 g/m*3 2.6 C 0 km/h
1936 24-11-2008 15:37:01 2.4 C 5.08 g/m*3 2.4 C 0 km/h
1937 24-11-2008 15:49:01 2.1 C 5.04 g/m*3 2.1 C 0 km/h
1938 24-11-2008 16:01:02 2 C 5 g/m*3 2 C 0 km/h
1939 24-11-2008 16:13:02 1.8 C 4.99 g/m*3 1.8 C 0 km/h
1940 24-11-2008 16:25:01 1.7 C 5.01 g/m*3 1.7 C 0 km/h
1941 24-11-2008 16:37:02 1.6 C 4.97 g/m*3 1.6 C 0 km/h
1942 24-11-2008 16:49:02 1.5 C 4.94 g/m*3 1.5 C 0 km/h
1943 24-11-2008 17:01:02 1.4 C 4.96 g/m*3 1.4 C 0 km/h
1944 24-11-2008 17:13:02 1.3 C 4.93 g/m*3 1.3 C 0 km/h
1945 24-11-2008 17:25:01 1.1 C 4.86 g/m*3 1.1 C 0 km/h
1946 24-11-2008 17:37:02 0.7 C 4.73 g/m*3 0.7 C 0 km/h
1947 24-11-2008 17:49:02 0.6 C 4.7 g/m*3 0.6 C 0 km/h
1948 24-11-2008 18:01:02 0.4 C 4.68 g/m*3 0.4 C 0 km/h
1949 24-11-2008 18:13:02 0.5 C 4.71 g/m*3 0.5 C 0 km/h
1950 24-11-2008 18:25:02 0.5 C 4.71 g/m*3 0.5 C 0 km/h
Sensor: Nr:Datum:Temp:Abs-Feuchte:Windchill:Wind:
Aussen-T/F 1951 24-11-2008 18:37:02 0.6 C 4.8 g/m*3 0.6 C 0 km/h
1952 24-11-2008 18:49:02 0.6 C 4.8 g/m*3 0.6 C 0 km/h
1953 24-11-2008 19:01:02 0.7 C 4.78 g/m*3 0.7 C 0 km/h
1954 24-11-2008 19:13:02 0.5 C 4.71 g/m*3 0.5 C 0 km/h
1955 24-11-2008 19:25:02 0.3 C 4.6 g/m*3 0.3 C 0 km/h
1956 24-11-2008 19:37:02 0.1 C 4.54 g/m*3 0.1 C 0 km/h
1957 24-11-2008 19:49:02 -0.2 C 4.4 g/m*3 -0.2 C 0 km/h
1958 24-11-2008 20:01:02 -0.3 C 4.37 g/m*3 -0.3 C 0 km/h
1959 24-11-2008 20:13:02 -0.7 C 4.25 g/m*3 -0.7 C 0 km/h
1960 24-11-2008 20:25:02 -0.5 C 4.31 g/m*3 -0.5 C 0 km/h
1961 24-11-2008 20:37:02 -0.3 C 4.37 g/m*3 -0.3 C 0 km/h
1962 24-11-2008 20:49:02 -0.3 C 4.32 g/m*3 -0.3 C 0 km/h
1963 24-11-2008 21:01:02 -0.4 C 4.24 g/m*3 -0.4 C 0 km/h
1964 24-11-2008 21:13:02 -0.5 C 4.21 g/m*3 -0.5 C 0 km/h
1965 24-11-2008 21:25:02 -0.6 C 4.09 g/m*3 -0.6 C 0 km/h
1966 24-11-2008 21:37:02 -0.7 C 4.06 g/m*3 -0.7 C 0 km/h
1967 24-11-2008 21:49:02 -0.6 C 4.09 g/m*3 -0.6 C 0 km/h
1968 24-11-2008 22:01:02 -0.7 C 4.06 g/m*3 -0.7 C 0 km/h
1969 24-11-2008 22:13:02 -0.8 C 3.99 g/m*3 -0.8 C 0 km/h
1970 24-11-2008 22:25:02 -1 C 3.93 g/m*3 -1 C 0 km/h
1971 24-11-2008 22:37:02 -0.8 C 3.99 g/m*3 -0.8 C 0 km/h
1972 24-11-2008 22:49:02 -0.7 C 3.97 g/m*3 -0.7 C 0 km/h
1973 24-11-2008 23:02:05 -0.6 C 4 g/m*3 -0.6 C 0 km/h
1974 24-11-2008 23:14:05 -0.6 C 4 g/m*3 -0.6 C 0 km/h
1975 24-11-2008 23:26:05 -0.7 C 3.88 g/m*3 -0.7 C 0 km/h
Sensor: Nr:Datum:Temp:Abs-Feuchte:Windchill:Wind:
Aussen-T/F 1976 24-11-2008 23:38:05 -0.6 C 3.95 g/m*3 -0.6 C 0 km/h
1977 24-11-2008 23:50:05 -0.5 C 3.98 g/m*3 -0.5 C 0 km/h
1978 25-11-2008 00:02:05 -0.5 C 3.98 g/m*3 -0.5 C 0 km/h
1979 25-11-2008 00:14:05 -0.5 C 4.03 g/m*3 -0.5 C 0 km/h
1980 25-11-2008 00:26:05 -0.4 C 4.05 g/m*3 -0.4 C 0 km/h
1981 25-11-2008 00:38:05 -0.5 C 4.03 g/m*3 -0.5 C 0 km/h
1982 25-11-2008 00:50:05 -0.5 C 3.98 g/m*3 -0.5 C 0 km/h
1983 25-11-2008 01:02:05 -0.6 C 3.86 g/m*3 -0.6 C 0 km/h
1984 25-11-2008 01:14:05 -0.6 C 3.86 g/m*3 -0.6 C 0 km/h
1985 25-11-2008 01:26:05 -0.5 C 3.84 g/m*3 -0.5 C 0 km/h
1986 25-11-2008 01:38:05 -0.5 C 3.84 g/m*3 -0.5 C 0 km/h
1987 25-11-2008 01:50:06 -0.5 C 3.84 g/m*3 -0.5 C 0 km/h
1988 25-11-2008 02:02:06 -0.6 C 3.86 g/m*3 -0.6 C 0 km/h
1989 25-11-2008 02:14:06 -0.6 C 3.81 g/m*3 -0.6 C 0 km/h
1990 25-11-2008 02:26:06 -0.6 C 3.76 g/m*3 -0.6 C 0 km/h
1991 25-11-2008 02:38:06 -0.5 C 3.84 g/m*3 -0.5 C 0 km/h
1992 25-11-2008 02:50:06 -0.4 C 3.91 g/m*3 -0.4 C 0 km/h
1993 25-11-2008 03:02:06 -0.4 C 3.91 g/m*3 -0.4 C 0 km/h
1994 25-11-2008 03:14:06 -0.4 C 3.96 g/m*3 -0.4 C 0 km/h
1995 25-11-2008 03:26:06 -0.4 C 4.01 g/m*3 -0.4 C 0 km/h
1996 25-11-2008 03:38:06 -0.5 C 3.93 g/m*3 -0.5 C 0 km/h
1997 25-11-2008 03:50:06 -0.7 C 3.88 g/m*3 -0.7 C 0 km/h
1998 25-11-2008 04:02:06 -0.8 C 3.85 g/m*3 -0.8 C 0 km/h
1999 25-11-2008 04:14:06 -0.9 C 3.87 g/m*3 -0.9 C 0 km/h
2000 25-11-2008 04:26:06 -0.9 C 3.87 g/m*3 -0.9 C 0 km/h
Sensor: Nr:Datum:Temp:Abs-Feuchte:Windchill:Wind:
Aussen-T/F 2001 25-11-2008 04:38:06 -0.9 C 3.87 g/m*3 -0.9 C 0 km/h
2002 25-11-2008 04:50:06 -0.9 C 3.82 g/m*3 -0.9 C 0 km/h
2003 25-11-2008 05:02:06 -0.9 C 3.82 g/m*3 -0.9 C 0 km/h
2004 25-11-2008 05:14:06 -0.8 C 3.8 g/m*3 -0.8 C 0 km/h
2005 25-11-2008 05:26:06 -0.7 C 3.83 g/m*3 -0.7 C 0 km/h
2006 25-11-2008 05:38:06 -0.7 C 3.83 g/m*3 -0.7 C 0 km/h
2007 25-11-2008 05:50:07 -0.7 C 3.83 g/m*3 -0.7 C 0 km/h
2008 25-11-2008 06:02:07 -0.6 C 3.86 g/m*3 -0.6 C 0 km/h
2009 25-11-2008 06:14:07 -0.7 C 3.88 g/m*3 -0.7 C 0 km/h
2010 25-11-2008 06:26:07 -0.8 C 3.99 g/m*3 -0.8 C 0 km/h
2011 25-11-2008 06:38:07 -0.8 C 4.03 g/m*3 -0.8 C 0 km/h
2012 25-11-2008 06:50:07 -0.9 C 4.01 g/m*3 -0.9 C 0 km/h
2013 25-11-2008 07:02:02 -0.8 C 4.08 g/m*3 -0.8 C 0 km/h
2014 25-11-2008 07:14:02 -0.8 C 4.13 g/m*3 -0.8 C 0 km/h
2015 25-11-2008 07:26:01 -0.4 C 4.29 g/m*3 -0.4 C 0 km/h
2016 25-11-2008 07:38:02 -0.4 C 4.29 g/m*3 -0.4 C 0 km/h
2017 25-11-2008 07:50:02 -0.7 C 4.2 g/m*3 -0.7 C 0 km/h
2018 25-11-2008 08:02:03 -0.6 C 4.28 g/m*3 -0.6 C 0 km/h
2019 25-11-2008 08:14:03 -0.6 C 4.28 g/m*3 -0.6 C 0 km/h
2020 25-11-2008 08:26:02 -0.6 C 4.32 g/m*3 -0.6 C 0 km/h
2021 25-11-2008 08:38:02 -0.5 C 4.35 g/m*3 -0.5 C 0 km/h
2022 25-11-2008 08:50:02 -0.4 C 4.38 g/m*3 -0.4 C 0 km/h
2023 25-11-2008 09:02:01 -0.4 C 4.38 g/m*3 -0.4 C 0 km/h
2024 25-11-2008 09:14:01 -0.3 C 4.41 g/m*3 -0.3 C 0 km/h
2025 25-11-2008 09:26:02 -0.2 C 4.44 g/m*3 -0.2 C 0 km/h
Sensor: Nr:Datum:Temp:Abs-Feuchte:Windchill:Wind:
Aussen-T/F 2026 25-11-2008 09:38:01 -0.2 C 4.44 g/m*3 -0.2 C 0 km/h
2027 25-11-2008 09:50:02 -0.1 C 4.47 g/m*3 -0.1 C 0 km/h
2028 25-11-2008 10:02:01 0 C 4.51 g/m*3 0 C 0 km/h
2029 25-11-2008 10:14:01 0.1 C 4.49 g/m*3 0.1 C 0 km/h
2030 25-11-2008 10:26:02 0.1 C 4.49 g/m*3 0.1 C 0 km/h
2031 25-11-2008 10:38:01 0.1 C 4.49 g/m*3 0.1 C 0 km/h
2032 25-11-2008 10:50:03 0.2 C 4.52 g/m*3 0.2 C 0 km/h
2033 25-11-2008 11:02:02 0.5 C 4.61 g/m*3 0.5 C 0 km/h
2034 25-11-2008 11:14:02 0.7 C 4.68 g/m*3 0.7 C 0 km/h
2035 25-11-2008 11:26:02 0.7 C 4.63 g/m*3 0.7 C 0 km/h
2036 25-11-2008 11:38:02 0.8 C 4.66 g/m*3 0.8 C 0 km/h
2037 25-11-2008 11:50:02 0.9 C 4.64 g/m*3 0.9 C 0 km/h
2038 25-11-2008 12:02:02 1 C 4.62 g/m*3 1 C 0 km/h
2039 25-11-2008 12:14:02 1.2 C 4.63 g/m*3 1.2 C 0 km/h
2040 25-11-2008 12:26:02 1.3 C 4.66 g/m*3 1.3 C 0 km/h
2041 25-11-2008 12:38:02 1.3 C 4.61 g/m*3 1.3 C 0 km/h
2042 25-11-2008 12:50:02 1.6 C 4.76 g/m*3 1.6 C 0 km/h
2043 25-11-2008 13:02:02 1.7 C 4.74 g/m*3 1.7 C 0 km/h
2044 25-11-2008 13:14:02 1.8 C 4.77 g/m*3 1.8 C 0 km/h
2045 25-11-2008 13:26:02 1.8 C 4.71 g/m*3 1.8 C 0 km/h
2046 25-11-2008 13:38:02 1.8 C 4.71 g/m*3 1.8 C 0 km/h
2047 25-11-2008 13:50:01 1.8 C 4.77 g/m*3 1.8 C 0 km/h
2048 25-11-2008 14:02:02 1.9 C 4.75 g/m*3 1.9 C 0 km/h
2049 25-11-2008 14:14:02 1.9 C 4.75 g/m*3 1.9 C 0 km/h
2050 25-11-2008 14:26:01 2 C 4.72 g/m*3 2 C 0 km/h
Sensor: Nr:Datum:Temp:Abs-Feuchte:Windchill:Wind:
Aussen-T/F 2051 25-11-2008 14:38:02 2 C 4.72 g/m*3 2 C 0 km/h
2052 25-11-2008 14:50:02 2.1 C 4.81 g/m*3 2.1 C 0 km/h
2053 25-11-2008 15:02:02 2.1 C 4.81 g/m*3 2.1 C 0 km/h
2054 25-11-2008 15:14:02 2.2 C 4.84 g/m*3 2.2 C 0 km/h
2055 25-11-2008 15:26:02 2.2 C 4.84 g/m*3 2.2 C 0 km/h
2056 25-11-2008 15:38:02 2.2 C 4.79 g/m*3 2.2 C 0 km/h
2057 25-11-2008 15:50:02 2.1 C 4.81 g/m*3 2.1 C 0 km/h
2058 25-11-2008 16:02:01 2 C 4.78 g/m*3 2 C 0 km/h
2059 25-11-2008 16:14:01 1.9 C 4.86 g/m*3 1.9 C 0 km/h
2060 25-11-2008 16:26:01 1.9 C 4.86 g/m*3 1.9 C 0 km/h
2061 25-11-2008 16:38:01 1.9 C 4.86 g/m*3 1.9 C 0 km/h
2062 25-11-2008 16:50:02 1.9 C 4.91 g/m*3 1.9 C 0 km/h
2063 25-11-2008 17:02:02 2 C 4.89 g/m*3 2 C 0 km/h
2064 25-11-2008 17:14:02 2 C 4.89 g/m*3 2 C 0 km/h
2065 25-11-2008 17:26:02 2 C 4.95 g/m*3 2 C 0 km/h
2066 25-11-2008 17:38:02 2 C 4.95 g/m*3 2 C 0 km/h
2067 25-11-2008 17:50:02 2.1 C 4.98 g/m*3 2.1 C 0 km/h
2068 25-11-2008 18:02:02 2.1 C 4.98 g/m*3 2.1 C 0 km/h
2069 25-11-2008 18:14:02 2.1 C 4.98 g/m*3 2.1 C 0 km/h
2070 25-11-2008 18:26:02 2.1 C 4.98 g/m*3 2.1 C 0 km/h
2071 25-11-2008 18:38:02 2.2 C 5.01 g/m*3 2.2 C 0 km/h
2072 25-11-2008 18:50:02 2.2 C 5.01 g/m*3 2.2 C 0 km/h
2073 25-11-2008 19:02:02 2.1 C 4.98 g/m*3 2.1 C 0 km/h
2074 25-11-2008 19:14:02 2.1 C 4.98 g/m*3 2.1 C 0 km/h
2075 25-11-2008 19:26:02 2.2 C 5.01 g/m*3 2.2 C 0 km/h
Sensor: Nr:Datum:Temp:Abs-Feuchte:Windchill:Wind:
Aussen-T/F 2076 25-11-2008 19:38:02 2.2 C 5.07 g/m*3 2.2 C 0 km/h
2077 25-11-2008 19:50:02 2.3 C 5.1 g/m*3 2.3 C 0 km/h
2078 25-11-2008 20:02:02 2.3 C 5.1 g/m*3 2.3 C 0 km/h
2079 25-11-2008 20:14:02 2.2 C 5.07 g/m*3 2.2 C 0 km/h
2080 25-11-2008 20:26:02 2.2 C 5.07 g/m*3 2.2 C 0 km/h
2081 25-11-2008 20:38:02 2.2 C 5.07 g/m*3 2.2 C 0 km/h
2082 25-11-2008 20:50:02 2.2 C 5.13 g/m*3 2.2 C 0 km/h
2083 25-11-2008 21:02:02 2.2 C 5.13 g/m*3 2.2 C 0 km/h
2084 25-11-2008 21:14:02 2.2 C 5.13 g/m*3 2.2 C 0 km/h
2085 25-11-2008 21:26:02 2.2 C 5.13 g/m*3 2.2 C 0 km/h
2086 25-11-2008 21:38:02 2.2 C 5.18 g/m*3 2.2 C 0 km/h
2087 25-11-2008 21:51:02 2.2 C 5.18 g/m*3 2.2 C 0 km/h
2088 25-11-2008 22:03:02 2.1 C 5.15 g/m*3 2.1 C 0 km/h
2089 25-11-2008 22:15:03 2.1 C 5.15 g/m*3 2.1 C 0 km/h
2090 25-11-2008 22:27:03 2.1 C 5.15 g/m*3 2.1 C 0 km/h
2091 25-11-2008 22:39:03 2.1 C 5.15 g/m*3 2.1 C 0 km/h
2092 25-11-2008 22:51:03 2.1 C 5.2 g/m*3 2.1 C 0 km/h
2093 25-11-2008 23:03:03 2.2 C 5.24 g/m*3 2.2 C 0 km/h
2094 25-11-2008 23:15:03 2.1 C 5.2 g/m*3 2.1 C 0 km/h
2095 25-11-2008 23:27:03 2.1 C 5.2 g/m*3 2.1 C 0 km/h
2096 25-11-2008 23:39:03 2.2 C 5.24 g/m*3 2.2 C 0 km/h
2097 25-11-2008 23:51:03 2.2 C 5.24 g/m*3 2.2 C 0 km/h
2098 26-11-2008 00:03:03 2.2 C 5.24 g/m*3 2.2 C 0 km/h
2099 26-11-2008 00:15:03 2.2 C 5.24 g/m*3 2.2 C 0 km/h
2100 26-11-2008 00:27:03 2.2 C 5.24 g/m*3 2.2 C 0 km/h
Sensor: Nr:Datum:Temp:Abs-Feuchte:Windchill:Wind:
Aussen-T/F 2101 26-11-2008 00:39:03 2.1 C 5.2 g/m*3 2.1 C 0 km/h
2102 26-11-2008 00:51:03 2.1 C 5.2 g/m*3 2.1 C 0 km/h
2103 26-11-2008 01:03:03 2.1 C 5.2 g/m*3 2.1 C 0 km/h
2104 26-11-2008 01:15:03 2 C 5.17 g/m*3 2 C 0 km/h
2105 26-11-2008 01:27:03 2 C 5.17 g/m*3 2 C 0 km/h
2106 26-11-2008 01:39:03 2 C 5.17 g/m*3 2 C 0 km/h
2107 26-11-2008 01:51:03 1.9 C 5.13 g/m*3 1.9 C 0 km/h
2108 26-11-2008 02:03:04 1.9 C 5.13 g/m*3 1.9 C 0 km/h
2109 26-11-2008 02:15:04 1.9 C 5.13 g/m*3 1.9 C 0 km/h
2110 26-11-2008 02:27:04 2 C 5.11 g/m*3 2 C 0 km/h
2111 26-11-2008 02:39:04 2 C 5.11 g/m*3 2 C 0 km/h
2112 26-11-2008 02:51:04 2 C 5.11 g/m*3 2 C 0 km/h
2113 26-11-2008 03:03:04 2 C 5.11 g/m*3 2 C 0 km/h
2114 26-11-2008 03:15:04 2 C 5.11 g/m*3 2 C 0 km/h
2115 26-11-2008 03:27:04 2 C 5.11 g/m*3 2 C 0 km/h
2116 26-11-2008 03:39:04 2 C 5.11 g/m*3 2 C 0 km/h
2117 26-11-2008 03:51:04 2 C 5.06 g/m*3 2 C 0 km/h
2118 26-11-2008 04:03:04 2.1 C 5.09 g/m*3 2.1 C 0 km/h
2119 26-11-2008 04:15:04 2.1 C 5.09 g/m*3 2.1 C 0 km/h
2120 26-11-2008 04:27:04 2.1 C 5.09 g/m*3 2.1 C 0 km/h
2121 26-11-2008 04:39:04 2.1 C 5.09 g/m*3 2.1 C 0 km/h
2122 26-11-2008 04:51:04 2.2 C 5.07 g/m*3 2.2 C 0 km/h
2123 26-11-2008 05:03:04 2.2 C 5.07 g/m*3 2.2 C 0 km/h
2124 26-11-2008 05:15:04 2.2 C 5.07 g/m*3 2.2 C 0 km/h
2125 26-11-2008 05:27:04 2.2 C 5.07 g/m*3 2.2 C 0 km/h
Sensor: Nr:Datum:Temp:Abs-Feuchte:Windchill:Wind:
Aussen-T/F 2126 26-11-2008 05:39:04 2.2 C 5.01 g/m*3 2.2 C 0 km/h
2127 26-11-2008 05:51:04 2.2 C 5.01 g/m*3 2.2 C 0 km/h
2128 26-11-2008 06:03:04 2.3 C 5.05 g/m*3 2.3 C 0 km/h
2129 26-11-2008 06:15:05 2.3 C 5.05 g/m*3 2.3 C 0 km/h
2130 26-11-2008 06:27:05 2.3 C 5.05 g/m*3 2.3 C 0 km/h
2131 26-11-2008 06:39:05 2.3 C 5.1 g/m*3 2.3 C 0 km/h
2132 26-11-2008 06:51:05 2.3 C 5.1 g/m*3 2.3 C 0 km/h
2133 26-11-2008 07:03:03 2.3 C 5.05 g/m*3 2.3 C 0 km/h
2134 26-11-2008 07:15:03 2.4 C 5.14 g/m*3 2.4 C 0 km/h
2135 26-11-2008 07:27:03 2.4 C 5.14 g/m*3 2.4 C 0 km/h
2136 26-11-2008 07:39:02 2.3 C 5.05 g/m*3 2.3 C 0 km/h
2137 26-11-2008 07:51:02 2.2 C 5.01 g/m*3 2.2 C 0 km/h
2138 26-11-2008 08:03:02 2.2 C 5.01 g/m*3 2.2 C 0 km/h
2139 26-11-2008 08:15:02 2.1 C 4.98 g/m*3 2.1 C 0 km/h
2140 26-11-2008 08:27:02 2 C 4.95 g/m*3 2 C 0 km/h
2141 26-11-2008 08:39:02 1.9 C 4.97 g/m*3 1.9 C 0 km/h
2142 26-11-2008 08:51:01 1.9 C 4.97 g/m*3 1.9 C 0 km/h
2143 26-11-2008 09:03:02 2 C 4.95 g/m*3 2 C 0 km/h
2144 26-11-2008 09:15:01 2.1 C 4.92 g/m*3 2.1 C 0 km/h
2145 26-11-2008 09:27:01 2.1 C 4.92 g/m*3 2.1 C 0 km/h
2146 26-11-2008 09:39:02 2.2 C 4.96 g/m*3 2.2 C 0 km/h
2147 26-11-2008 09:51:02 2.3 C 4.99 g/m*3 2.3 C 0 km/h
2148 26-11-2008 10:03:02 2.4 C 4.97 g/m*3 2.4 C 0 km/h
2149 26-11-2008 10:15:02 2.4 C 4.97 g/m*3 2.4 C 0 km/h
2150 26-11-2008 10:27:02 2.4 C 4.91 g/m*3 2.4 C 0 km/h
Sensor: Nr:Datum:Temp:Abs-Feuchte:Windchill:Wind:
Aussen-T/F 2151 26-11-2008 10:39:02 2.7 C 5.01 g/m*3 2.7 C 0 km/h
2152 26-11-2008 10:51:02 3 C 4.99 g/m*3 3 C 0 km/h
2153 26-11-2008 11:03:03 2.8 C 4.87 g/m*3 2.8 C 0 km/h
2154 26-11-2008 11:15:02 2.9 C 4.96 g/m*3 2.9 C 0 km/h
2155 26-11-2008 11:27:02 3 C 4.88 g/m*3 3 C 0 km/h
2156 26-11-2008 11:39:03 3.2 C 4.94 g/m*3 3.2 C 0 km/h
2157 26-11-2008 11:51:02 3 C 4.82 g/m*3 3 C 0 km/h
2158 26-11-2008 12:03:02 3 C 4.88 g/m*3 3 C 0 km/h
2159 26-11-2008 12:15:02 3.2 C 4.88 g/m*3 3.2 C 0 km/h
2160 26-11-2008 12:27:03 3.1 C 4.85 g/m*3 3.1 C 0 km/h
2161 26-11-2008 12:39:01 3.2 C 4.94 g/m*3 3.2 C 0 km/h
2162 26-11-2008 12:51:02 3.3 C 4.91 g/m*3 3.3 C 0 km/h
2163 26-11-2008 13:03:02 3.2 C 4.88 g/m*3 3.2 C 0 km/h
2164 26-11-2008 13:15:02 3.4 C 4.95 g/m*3 3.4 C 0 km/h
2165 26-11-2008 13:27:02 3.3 C 4.85 g/m*3 3.3 C 0 km/h
2166 26-11-2008 13:39:02 3.2 C 4.88 g/m*3 3.2 C 0 km/h
2167 26-11-2008 13:51:01 3.4 C 4.95 g/m*3 3.4 C 0 km/h
2168 26-11-2008 14:03:02 3.4 C 4.83 g/m*3 3.4 C 0 km/h
2169 26-11-2008 14:15:02 3.3 C 4.79 g/m*3 3.3 C 0 km/h
2170 26-11-2008 14:27:02 3.3 C 4.85 g/m*3 3.3 C 0 km/h
2171 26-11-2008 14:39:02 3.3 C 4.85 g/m*3 3.3 C 0 km/h
2172 26-11-2008 14:51:01 3.6 C 4.95 g/m*3 3.6 C 0 km/h
2173 26-11-2008 15:03:02 3.4 C 4.83 g/m*3 3.4 C 0 km/h
2174 26-11-2008 15:15:01 3.4 C 4.83 g/m*3 3.4 C 0 km/h
2175 26-11-2008 15:27:01 3.6 C 4.89 g/m*3 3.6 C 0 km/h
Sensor: Nr:Datum:Temp:Abs-Feuchte:Windchill:Wind:
Aussen-T/F 2176 26-11-2008 15:39:02 3.5 C 4.86 g/m*3 3.5 C 0 km/h
2177 26-11-2008 15:51:02 3.5 C 4.86 g/m*3 3.5 C 0 km/h
2178 26-11-2008 16:03:02 3.4 C 4.76 g/m*3 3.4 C 0 km/h
2179 26-11-2008 16:15:02 3.1 C 4.73 g/m*3 3.1 C 0 km/h
2180 26-11-2008 16:27:02 2.8 C 4.75 g/m*3 2.8 C 0 km/h
2181 26-11-2008 16:39:02 2.5 C 4.71 g/m*3 2.5 C 0 km/h
2182 26-11-2008 16:51:02 2.4 C 4.74 g/m*3 2.4 C 0 km/h
2183 26-11-2008 17:03:03 2.3 C 4.71 g/m*3 2.3 C 0 km/h
2184 26-11-2008 17:15:02 2.1 C 4.64 g/m*3 2.1 C 0 km/h
2185 26-11-2008 17:27:02 2.2 C 4.68 g/m*3 2.2 C 0 km/h
2186 26-11-2008 17:39:02 2.2 C 4.68 g/m*3 2.2 C 0 km/h
2187 26-11-2008 17:51:02 2.2 C 4.68 g/m*3 2.2 C 0 km/h
2188 26-11-2008 18:03:02 2.1 C 4.64 g/m*3 2.1 C 0 km/h
2189 26-11-2008 18:15:02 2 C 4.67 g/m*3 2 C 0 km/h
2190 26-11-2008 18:27:02 2 C 4.67 g/m*3 2 C 0 km/h
2191 26-11-2008 18:39:02 1.9 C 4.69 g/m*3 1.9 C 0 km/h
2192 26-11-2008 18:51:02 1.8 C 4.66 g/m*3 1.8 C 0 km/h
2193 26-11-2008 19:03:02 1.9 C 4.75 g/m*3 1.9 C 0 km/h
2194 26-11-2008 19:15:02 2 C 4.72 g/m*3 2 C 0 km/h
2195 26-11-2008 19:27:02 2 C 4.67 g/m*3 2 C 0 km/h
2196 26-11-2008 19:39:03 2.1 C 4.7 g/m*3 2.1 C 0 km/h
2197 26-11-2008 19:51:04 2.1 C 4.7 g/m*3 2.1 C 0 km/h
2198 26-11-2008 20:03:04 2.1 C 4.7 g/m*3 2.1 C 0 km/h
2199 26-11-2008 20:15:02 2 C 4.67 g/m*3 2 C 0 km/h
2200 26-11-2008 20:27:02 2 C 4.67 g/m*3 2 C 0 km/h
Sensor: Nr:Datum:Temp:Abs-Feuchte:Windchill:Wind:
Aussen-T/F 2201 26-11-2008 20:39:02 2 C 4.67 g/m*3 2 C 0 km/h
2202 26-11-2008 20:51:01 2.1 C 4.7 g/m*3 2.1 C 0 km/h
2203 26-11-2008 21:03:02 1.9 C 4.69 g/m*3 1.9 C 0 km/h
2204 26-11-2008 21:15:02 1.9 C 4.69 g/m*3 1.9 C 0 km/h
2205 26-11-2008 21:27:02 2 C 4.72 g/m*3 2 C 0 km/h
2206 26-11-2008 21:39:02 2 C 4.72 g/m*3 2 C 0 km/h
2207 26-11-2008 21:51:02 2 C 4.72 g/m*3 2 C 0 km/h
2208 26-11-2008 22:04:03 2 C 4.67 g/m*3 2 C 0 km/h
2209 26-11-2008 22:16:03 1.9 C 4.69 g/m*3 1.9 C 0 km/h
2210 26-11-2008 22:28:03 2 C 4.67 g/m*3 2 C 0 km/h
2211 26-11-2008 22:40:03 2 C 4.67 g/m*3 2 C 0 km/h
2212 26-11-2008 22:52:03 2 C 4.67 g/m*3 2 C 0 km/h
2213 26-11-2008 23:04:03 2.1 C 4.7 g/m*3 2.1 C 0 km/h
2214 26-11-2008 23:16:03 2.1 C 4.7 g/m*3 2.1 C 0 km/h
2215 26-11-2008 23:28:03 2.1 C 4.7 g/m*3 2.1 C 0 km/h
2216 26-11-2008 23:40:03 2.1 C 4.7 g/m*3 2.1 C 0 km/h
2217 26-11-2008 23:52:03 2.1 C 4.7 g/m*3 2.1 C 0 km/h
2218 27-11-2008 00:04:03 2.1 C 4.7 g/m*3 2.1 C 0 km/h
2219 27-11-2008 00:16:03 2.1 C 4.7 g/m*3 2.1 C 0 km/h
2220 27-11-2008 00:28:03 2.1 C 4.7 g/m*3 2.1 C 0 km/h
2221 27-11-2008 00:40:03 2.1 C 4.7 g/m*3 2.1 C 0 km/h
2222 27-11-2008 00:52:03 2.2 C 4.73 g/m*3 2.2 C 0 km/h
2223 27-11-2008 01:04:03 2.2 C 4.73 g/m*3 2.2 C 0 km/h
2224 27-11-2008 01:16:03 2.2 C 4.73 g/m*3 2.2 C 0 km/h
2225 27-11-2008 01:28:03 2.2 C 4.73 g/m*3 2.2 C 0 km/h
Sensor: Nr:Datum:Temp:Abs-Feuchte:Windchill:Wind:
Aussen-T/F 2226 27-11-2008 01:40:03 2.2 C 4.73 g/m*3 2.2 C 0 km/h
2227 27-11-2008 01:52:04 2.3 C 4.71 g/m*3 2.3 C 0 km/h
2228 27-11-2008 02:04:04 2.3 C 4.71 g/m*3 2.3 C 0 km/h
2229 27-11-2008 02:16:04 2.3 C 4.71 g/m*3 2.3 C 0 km/h
2230 27-11-2008 02:28:04 2.3 C 4.76 g/m*3 2.3 C 0 km/h
2231 27-11-2008 02:40:04 2.3 C 4.76 g/m*3 2.3 C 0 km/h
2232 27-11-2008 02:52:04 2.3 C 4.76 g/m*3 2.3 C 0 km/h
2233 27-11-2008 03:04:04 2.3 C 4.76 g/m*3 2.3 C 0 km/h
2234 27-11-2008 03:16:04 2.4 C 4.8 g/m*3 2.4 C 0 km/h
2235 27-11-2008 03:28:04 2.4 C 4.8 g/m*3 2.4 C 0 km/h
2236 27-11-2008 03:40:04 2.4 C 4.8 g/m*3 2.4 C 0 km/h
2237 27-11-2008 03:52:04 2.4 C 4.8 g/m*3 2.4 C 0 km/h
2238 27-11-2008 04:04:04 2.4 C 4.8 g/m*3 2.4 C 0 km/h
2239 27-11-2008 04:16:04 2.4 C 4.8 g/m*3 2.4 C 0 km/h
2240 27-11-2008 04:28:04 2.4 C 4.8 g/m*3 2.4 C 0 km/h
2241 27-11-2008 04:40:04 2.4 C 4.74 g/m*3 2.4 C 0 km/h
2242 27-11-2008 04:52:04 2.4 C 4.74 g/m*3 2.4 C 0 km/h
2243 27-11-2008 05:04:04 2.5 C 4.77 g/m*3 2.5 C 0 km/h
2244 27-11-2008 05:16:04 2.5 C 4.77 g/m*3 2.5 C 0 km/h
2245 27-11-2008 05:28:04 2.4 C 4.74 g/m*3 2.4 C 0 km/h
2246 27-11-2008 05:40:04 2.4 C 4.74 g/m*3 2.4 C 0 km/h
2247 27-11-2008 05:52:04 2.4 C 4.74 g/m*3 2.4 C 0 km/h
2248 27-11-2008 06:04:05 2.4 C 4.8 g/m*3 2.4 C 0 km/h
2249 27-11-2008 06:16:05 2.5 C 4.77 g/m*3 2.5 C 0 km/h
2250 27-11-2008 06:28:05 2.5 C 4.77 g/m*3 2.5 C 0 km/h
Sensor: Nr:Datum:Temp:Abs-Feuchte:Windchill:Wind:
Aussen-T/F 2251 27-11-2008 06:40:05 2.5 C 4.77 g/m*3 2.5 C 0 km/h
2252 27-11-2008 06:52:05 2.5 C 4.77 g/m*3 2.5 C 0 km/h
2253 27-11-2008 07:04:03 2.5 C 4.77 g/m*3 2.5 C 0 km/h
2254 27-11-2008 07:16:03 2.5 C 4.77 g/m*3 2.5 C 0 km/h
2255 27-11-2008 07:28:03 2.5 C 4.77 g/m*3 2.5 C 0 km/h
2256 27-11-2008 07:40:03 2.3 C 4.71 g/m*3 2.3 C 0 km/h
2257 27-11-2008 07:52:02 2.2 C 4.73 g/m*3 2.2 C 0 km/h
2258 27-11-2008 08:04:01 2.3 C 4.82 g/m*3 2.3 C 0 km/h
2259 27-11-2008 08:16:02 2.3 C 4.82 g/m*3 2.3 C 0 km/h
2260 27-11-2008 08:28:02 2.4 C 4.85 g/m*3 2.4 C 0 km/h
2261 27-11-2008 08:40:01 2.5 C 4.89 g/m*3 2.5 C 0 km/h
2262 27-11-2008 08:52:01 2.6 C 4.86 g/m*3 2.6 C 0 km/h
2263 27-11-2008 09:04:02 2.7 C 4.84 g/m*3 2.7 C 0 km/h
2264 27-11-2008 09:16:02 2.8 C 4.87 g/m*3 2.8 C 0 km/h
2265 27-11-2008 09:28:02 3 C 4.88 g/m*3 3 C 0 km/h
2266 27-11-2008 09:40:02 3.2 C 4.94 g/m*3 3.2 C 0 km/h
2267 27-11-2008 09:52:01 3.6 C 5.01 g/m*3 3.6 C 0 km/h
2268 27-11-2008 10:04:02 3.8 C 5.02 g/m*3 3.8 C 0 km/h
2269 27-11-2008 10:16:01 3.8 C 4.89 g/m*3 3.8 C 0 km/h
2270 27-11-2008 10:28:01 3.6 C 4.77 g/m*3 3.6 C 0 km/h
2271 27-11-2008 10:40:02 3.7 C 4.8 g/m*3 3.7 C 0 km/h
2272 27-11-2008 10:52:02 3.8 C 4.83 g/m*3 3.8 C 0 km/h
2273 27-11-2008 11:04:02 3.9 C 4.8 g/m*3 3.9 C 0 km/h
2274 27-11-2008 11:16:02 4.1 C 4.8 g/m*3 4.1 C 0 km/h
2275 27-11-2008 11:28:02 4.4 C 4.83 g/m*3 4.4 C 0 km/h
Sensor: Nr:Datum:Temp:Abs-Feuchte:Windchill:Wind:
Aussen-T/F 2276 27-11-2008 11:40:02 4.5 C 4.86 g/m*3 4.5 C 0 km/h
2277 27-11-2008 11:52:02 4.8 C 4.83 g/m*3 4.8 C 0 km/h
2278 27-11-2008 12:04:03 5.1 C 4.99 g/m*3 5.1 C 0 km/h
2279 27-11-2008 12:16:02 5.4 C 4.88 g/m*3 5.4 C 0 km/h
2280 27-11-2008 12:28:02 5.5 C 4.85 g/m*3 5.5 C 0 km/h
2281 27-11-2008 12:40:03 5.3 C 4.64 g/m*3 5.3 C 0 km/h
2282 27-11-2008 12:52:02 5.3 C 4.71 g/m*3 5.3 C 0 km/h
2283 27-11-2008 13:04:01 5.1 C 4.65 g/m*3 5.1 C 0 km/h
2284 27-11-2008 13:16:02 5 C 4.62 g/m*3 5 C 0 km/h
2285 27-11-2008 13:28:02 5 C 4.69 g/m*3 5 C 0 km/h
2286 27-11-2008 13:40:02 4.8 C 4.69 g/m*3 4.8 C 0 km/h
2287 27-11-2008 13:52:02 4.9 C 4.79 g/m*3 4.9 C 0 km/h
2288 27-11-2008 14:04:01 4.9 C 4.73 g/m*3 4.9 C 0 km/h
2289 27-11-2008 14:16:01 4.6 C 4.7 g/m*3 4.6 C 0 km/h
2290 27-11-2008 14:28:02 4.7 C 4.73 g/m*3 4.7 C 0 km/h
2291 27-11-2008 14:40:01 4.7 C 4.8 g/m*3 4.7 C 0 km/h
2292 27-11-2008 14:52:02 4.6 C 4.76 g/m*3 4.6 C 0 km/h
2293 27-11-2008 15:04:02 4.6 C 4.76 g/m*3 4.6 C 0 km/h
2294 27-11-2008 15:16:02 4.6 C 4.76 g/m*3 4.6 C 0 km/h
2295 27-11-2008 15:28:02 4.6 C 4.83 g/m*3 4.6 C 0 km/h
2296 27-11-2008 15:40:02 4.5 C 4.8 g/m*3 4.5 C 0 km/h
2297 27-11-2008 15:52:02 4.4 C 4.7 g/m*3 4.4 C 0 km/h
2298 27-11-2008 16:04:02 4.4 C 4.7 g/m*3 4.4 C 0 km/h
2299 27-11-2008 16:16:02 4.4 C 4.77 g/m*3 4.4 C 0 km/h
2300 27-11-2008 16:28:02 4.4 C 4.77 g/m*3 4.4 C 0 km/h
Sensor: Nr:Datum:Temp:Abs-Feuchte:Windchill:Wind:
Aussen-T/F 2301 27-11-2008 16:40:02 4.4 C 4.77 g/m*3 4.4 C 0 km/h
2302 27-11-2008 16:52:02 4.3 C 4.74 g/m*3 4.3 C 0 km/h
2303 27-11-2008 17:04:02 4.2 C 4.7 g/m*3 4.2 C 0 km/h
2304 27-11-2008 17:16:02 4.2 C 4.51 g/m*3 4.2 C 0 km/h
2305 27-11-2008 17:28:02 4.2 C 4.32 g/m*3 4.2 C 0 km/h
2306 27-11-2008 17:40:02 4.2 C 4.32 g/m*3 4.2 C 0 km/h
2307 27-11-2008 17:52:02 4.2 C 4.19 g/m*3 4.2 C 0 km/h
2308 27-11-2008 18:04:03 4.2 C 4.06 g/m*3 4.2 C 0 km/h
2309 27-11-2008 18:16:02 4.2 C 4.06 g/m*3 4.2 C 0 km/h
2310 27-11-2008 18:28:02 4.2 C 3.93 g/m*3 4.2 C 0 km/h
2311 27-11-2008 18:40:03 4.2 C 3.87 g/m*3 4.2 C 0 km/h
2312 27-11-2008 18:52:02 4.1 C 3.9 g/m*3 4.1 C 0 km/h
2313 27-11-2008 19:04:02 4.1 C 3.84 g/m*3 4.1 C 0 km/h
2314 27-11-2008 19:16:02 4.1 C 3.84 g/m*3 4.1 C 0 km/h
2315 27-11-2008 19:28:02 4.1 C 3.84 g/m*3 4.1 C 0 km/h
2316 27-11-2008 19:40:02 4 C 3.88 g/m*3 4 C 0 km/h
2317 27-11-2008 19:52:03 4 C 3.88 g/m*3 4 C 0 km/h
2318 27-11-2008 20:04:03 4 C 3.88 g/m*3 4 C 0 km/h
2319 27-11-2008 20:16:02 4 C 3.88 g/m*3 4 C 0 km/h
2320 27-11-2008 20:28:02 4.1 C 3.84 g/m*3 4.1 C 0 km/h
2321 27-11-2008 20:40:03 4 C 3.81 g/m*3 4 C 0 km/h
2322 27-11-2008 20:52:02 4.1 C 3.84 g/m*3 4.1 C 0 km/h
2323 27-11-2008 21:04:02 4 C 3.94 g/m*3 4 C 0 km/h
2324 27-11-2008 21:16:02 3.9 C 4.04 g/m*3 3.9 C 0 km/h
2325 27-11-2008 21:28:02 3.9 C 3.98 g/m*3 3.9 C 0 km/h
Sensor: Nr:Datum:Temp:Abs-Feuchte:Windchill:Wind:
Aussen-T/F 2326 27-11-2008 21:40:02 3.9 C 4.04 g/m*3 3.9 C 0 km/h
2327 27-11-2008 21:52:02 3.9 C 4.11 g/m*3 3.9 C 0 km/h
2328 27-11-2008 22:04:01 3.9 C 4.17 g/m*3 3.9 C 0 km/h
2329 27-11-2008 22:16:01 3.8 C 4.14 g/m*3 3.8 C 0 km/h
2330 27-11-2008 22:28:02 3.7 C 4.18 g/m*3 3.7 C 0 km/h
2331 27-11-2008 22:41:02 3.5 C 4.12 g/m*3 3.5 C 0 km/h
2332 27-11-2008 22:53:02 3.2 C 4.04 g/m*3 3.2 C 0 km/h
2333 27-11-2008 23:05:02 2.7 C 4.02 g/m*3 2.7 C 0 km/h
2334 27-11-2008 23:17:02 2.5 C 4.08 g/m*3 2.5 C 0 km/h
2335 27-11-2008 23:29:02 2.2 C 4.06 g/m*3 2.2 C 0 km/h
2336 27-11-2008 23:41:02 2 C 4.06 g/m*3 2 C 0 km/h
2337 27-11-2008 23:53:02 1.7 C 4.03 g/m*3 1.7 C 0 km/h
2338 28-11-2008 00:05:02 1.4 C 4.05 g/m*3 1.4 C 0 km/h
2339 28-11-2008 00:17:02 1.2 C 4 g/m*3 1.2 C 0 km/h
2340 28-11-2008 00:29:02 1 C 4 g/m*3 1 C 0 km/h
2341 28-11-2008 00:41:02 0.9 C 4.07 g/m*3 0.9 C 0 km/h
2342 28-11-2008 00:53:02 0.7 C 4.07 g/m*3 0.7 C 0 km/h
2343 28-11-2008 01:05:02 0.5 C 4.01 g/m*3 0.5 C 0 km/h
2344 28-11-2008 01:17:02 0.4 C 3.98 g/m*3 0.4 C 0 km/h
2345 28-11-2008 01:29:02 0.2 C 3.93 g/m*3 0.2 C 0 km/h
2346 28-11-2008 01:41:02 0.1 C 3.9 g/m*3 0.1 C 0 km/h
2347 28-11-2008 01:53:02 0 C 3.92 g/m*3 0 C 0 km/h
2348 28-11-2008 02:05:02 -0.2 C 3.87 g/m*3 -0.2 C 0 km/h
2349 28-11-2008 02:17:02 -0.3 C 3.84 g/m*3 -0.3 C 0 km/h
2350 28-11-2008 02:29:02 -0.4 C 3.86 g/m*3 -0.4 C 0 km/h
Sensor: Nr:Datum:Temp:Abs-Feuchte:Windchill:Wind:
Aussen-T/F 2351 28-11-2008 02:41:03 -0.5 C 3.84 g/m*3 -0.5 C 0 km/h
2352 28-11-2008 02:53:03 -0.4 C 3.91 g/m*3 -0.4 C 0 km/h
2353 28-11-2008 03:05:03 -0.4 C 3.91 g/m*3 -0.4 C 0 km/h
2354 28-11-2008 03:17:03 -0.4 C 3.91 g/m*3 -0.4 C 0 km/h
2355 28-11-2008 03:29:03 -0.6 C 3.86 g/m*3 -0.6 C 0 km/h
2356 28-11-2008 03:41:03 -0.7 C 3.83 g/m*3 -0.7 C 0 km/h
2357 28-11-2008 03:53:03 -0.7 C 3.88 g/m*3 -0.7 C 0 km/h
2358 28-11-2008 04:05:03 -0.7 C 3.88 g/m*3 -0.7 C 0 km/h
2359 28-11-2008 04:17:03 -0.6 C 3.95 g/m*3 -0.6 C 0 km/h
2360 28-11-2008 04:29:03 -0.6 C 3.95 g/m*3 -0.6 C 0 km/h
2361 28-11-2008 04:41:03 -0.6 C 3.9 g/m*3 -0.6 C 0 km/h
2362 28-11-2008 04:53:03 -0.9 C 3.82 g/m*3 -0.9 C 0 km/h
2363 28-11-2008 05:05:03 -1 C 3.84 g/m*3 -1 C 0 km/h
2364 28-11-2008 05:17:03 -0.9 C 3.87 g/m*3 -0.9 C 0 km/h
2365 28-11-2008 05:29:03 -0.8 C 3.94 g/m*3 -0.8 C 0 km/h
2366 28-11-2008 05:41:03 -0.6 C 4 g/m*3 -0.6 C 0 km/h
2367 28-11-2008 05:53:03 -0.5 C 4.03 g/m*3 -0.5 C 0 km/h
2368 28-11-2008 06:05:03 -0.3 C 4.08 g/m*3 -0.3 C 0 km/h
2369 28-11-2008 06:17:03 0 C 4.07 g/m*3 0 C 0 km/h
2370 28-11-2008 06:29:03 0.1 C 4 g/m*3 0.1 C 0 km/h
2371 28-11-2008 06:41:04 0.2 C 3.93 g/m*3 0.2 C 0 km/h
2372 28-11-2008 06:53:04 0.2 C 3.83 g/m*3 0.2 C 0 km/h
2373 28-11-2008 07:05:02 0.2 C 3.78 g/m*3 0.2 C 0 km/h
2374 28-11-2008 07:17:02 0.2 C 3.78 g/m*3 0.2 C 0 km/h
2375 28-11-2008 07:29:02 0.2 C 3.78 g/m*3 0.2 C 0 km/h
Sensor: Nr:Datum:Temp:Abs-Feuchte:Windchill:Wind:
Aussen-T/F 2376 28-11-2008 07:41:02 0.2 C 3.78 g/m*3 0.2 C 0 km/h
2377 28-11-2008 07:53:02 0.3 C 3.76 g/m*3 0.3 C 0 km/h
2378 28-11-2008 08:05:02 0.3 C 3.76 g/m*3 0.3 C 0 km/h
2379 28-11-2008 08:17:02 0.3 C 3.76 g/m*3 0.3 C 0 km/h
2380 28-11-2008 08:29:02 0.3 C 3.71 g/m*3 0.3 C 0 km/h
2381 28-11-2008 08:41:01 0.3 C 3.71 g/m*3 0.3 C 0 km/h
2382 28-11-2008 08:53:02 0.3 C 3.71 g/m*3 0.3 C 0 km/h
2383 28-11-2008 09:05:01 0.4 C 3.69 g/m*3 0.4 C 0 km/h
2384 28-11-2008 09:17:01 0.6 C 3.74 g/m*3 0.6 C 0 km/h
2385 28-11-2008 09:29:02 0.7 C 3.71 g/m*3 0.7 C 0 km/h
2386 28-11-2008 09:41:01 0.7 C 3.71 g/m*3 0.7 C 0 km/h
2387 28-11-2008 09:53:03 0.8 C 3.74 g/m*3 0.8 C 0 km/h
2388 28-11-2008 10:05:02 1 C 3.74 g/m*3 1 C 0 km/h
2389 28-11-2008 10:17:02 1.2 C 3.74 g/m*3 1.2 C 0 km/h
2390 28-11-2008 10:29:02 1.4 C 3.79 g/m*3 1.4 C 0 km/h
2391 28-11-2008 10:41:02 1.4 C 3.68 g/m*3 1.4 C 0 km/h
2392 28-11-2008 10:53:02 1.4 C 3.63 g/m*3 1.4 C 0 km/h
2393 28-11-2008 11:05:02 1.3 C 3.55 g/m*3 1.3 C 0 km/h
2394 28-11-2008 11:17:02 1.7 C 3.65 g/m*3 1.7 C 0 km/h
2395 28-11-2008 11:29:02 1.6 C 3.57 g/m*3 1.6 C 0 km/h
2396 28-11-2008 11:41:02 1.5 C 3.54 g/m*3 1.5 C 0 km/h
2397 28-11-2008 11:53:02 1.7 C 3.59 g/m*3 1.7 C 0 km/h
2398 28-11-2008 12:05:02 1.4 C 3.57 g/m*3 1.4 C 0 km/h
2399 28-11-2008 12:17:02 1.7 C 3.65 g/m*3 1.7 C 0 km/h
2400 28-11-2008 12:29:02 1.7 C 3.65 g/m*3 1.7 C 0 km/h
Sensor: Nr:Datum:Temp:Abs-Feuchte:Windchill:Wind:
Aussen-T/F 2401 28-11-2008 12:41:02 1.7 C 3.65 g/m*3 1.7 C 0 km/h
2402 28-11-2008 12:53:02 1.7 C 3.65 g/m*3 1.7 C 0 km/h
2403 28-11-2008 13:05:02 1.7 C 3.65 g/m*3 1.7 C 0 km/h
2404 28-11-2008 13:17:02 1.7 C 3.65 g/m*3 1.7 C 0 km/h
2405 28-11-2008 13:29:02 1.8 C 3.73 g/m*3 1.8 C 0 km/h
2406 28-11-2008 13:41:02 2 C 3.72 g/m*3 2 C 0 km/h
2407 28-11-2008 13:53:01 1.8 C 3.73 g/m*3 1.8 C 0 km/h
2408 28-11-2008 14:05:02 1.8 C 3.73 g/m*3 1.8 C 0 km/h
2409 28-11-2008 14:17:01 1.8 C 3.78 g/m*3 1.8 C 0 km/h
2410 28-11-2008 14:29:01 1.7 C 3.76 g/m*3 1.7 C 0 km/h
2411 28-11-2008 14:41:01 1.7 C 3.76 g/m*3 1.7 C 0 km/h
2412 28-11-2008 14:53:01 1.8 C 3.73 g/m*3 1.8 C 0 km/h
2413 28-11-2008 15:05:02 1.7 C 3.7 g/m*3 1.7 C 0 km/h
2414 28-11-2008 15:17:02 1.7 C 3.76 g/m*3 1.7 C 0 km/h
2415 28-11-2008 15:29:02 1.5 C 3.71 g/m*3 1.5 C 0 km/h
2416 28-11-2008 15:41:01 1.4 C 3.68 g/m*3 1.4 C 0 km/h
2417 28-11-2008 15:53:01 1.2 C 3.63 g/m*3 1.2 C 0 km/h
2418 28-11-2008 16:05:02 1 C 3.63 g/m*3 1 C 0 km/h
2419 28-11-2008 16:17:01 0.8 C 3.63 g/m*3 0.8 C 0 km/h
2420 28-11-2008 16:29:01 0.7 C 3.61 g/m*3 0.7 C 0 km/h
2421 28-11-2008 16:41:02 0.6 C 3.64 g/m*3 0.6 C 0 km/h
2422 28-11-2008 16:53:02 0.5 C 3.61 g/m*3 0.5 C 0 km/h
2423 28-11-2008 17:05:03 0.3 C 3.56 g/m*3 0.3 C 0 km/h
2424 28-11-2008 17:17:02 0.3 C 3.61 g/m*3 0.3 C 0 km/h
2425 28-11-2008 17:29:02 0.3 C 3.61 g/m*3 0.3 C 0 km/h
Sensor: Nr:Datum:Temp:Abs-Feuchte:Windchill:Wind:
Aussen-T/F 2426 28-11-2008 17:41:03 0.3 C 3.61 g/m*3 0.3 C 0 km/h
2427 28-11-2008 17:53:02 0.3 C 3.61 g/m*3 0.3 C 0 km/h
2428 28-11-2008 18:05:01 0.3 C 3.61 g/m*3 0.3 C 0 km/h
2429 28-11-2008 18:17:02 0.3 C 3.66 g/m*3 0.3 C 0 km/h
2430 28-11-2008 18:29:03 0.3 C 3.66 g/m*3 0.3 C 0 km/h
2431 28-11-2008 18:41:01 0.2 C 3.64 g/m*3 0.2 C 0 km/h
2432 28-11-2008 18:53:02 0.1 C 3.66 g/m*3 0.1 C 0 km/h
2433 28-11-2008 19:05:01 0.1 C 3.66 g/m*3 0.1 C 0 km/h
2434 28-11-2008 19:17:02 0.2 C 3.73 g/m*3 0.2 C 0 km/h
2435 28-11-2008 19:29:02 0.3 C 3.76 g/m*3 0.3 C 0 km/h
2436 28-11-2008 19:41:01 0.1 C 3.71 g/m*3 0.1 C 0 km/h
2437 28-11-2008 19:53:01 0.1 C 3.71 g/m*3 0.1 C 0 km/h
2438 28-11-2008 20:05:02 -0.1 C 3.66 g/m*3 -0.1 C 0 km/h
2439 28-11-2008 20:17:01 -0.1 C 3.71 g/m*3 -0.1 C 0 km/h
2440 28-11-2008 20:29:01 -0.1 C 3.71 g/m*3 -0.1 C 0 km/h
2441 28-11-2008 20:41:01 0 C 3.73 g/m*3 0 C 0 km/h
2442 28-11-2008 20:53:02 0 C 3.78 g/m*3 0 C 0 km/h
2443 28-11-2008 21:05:02 0 C 3.78 g/m*3 0 C 0 km/h
2444 28-11-2008 21:17:02 -0.1 C 3.75 g/m*3 -0.1 C 0 km/h
2445 28-11-2008 21:29:02 -0.1 C 3.75 g/m*3 -0.1 C 0 km/h
2446 28-11-2008 21:41:02 0.1 C 3.81 g/m*3 0.1 C 0 km/h
2447 28-11-2008 21:53:01 0.1 C 3.81 g/m*3 0.1 C 0 km/h
2448 28-11-2008 22:05:02 0 C 3.78 g/m*3 0 C 0 km/h
2449 28-11-2008 22:17:01 0 C 3.78 g/m*3 0 C 0 km/h
2450 28-11-2008 22:29:01 0.1 C 3.85 g/m*3 0.1 C 0 km/h
Sensor: Nr:Datum:Temp:Abs-Feuchte:Windchill:Wind:
Aussen-T/F 2451 28-11-2008 22:41:01 0.2 C 3.88 g/m*3 0.2 C 0 km/h
2452 28-11-2008 22:53:02 0.2 C 3.88 g/m*3 0.2 C 0 km/h
2453 28-11-2008 23:05:02 0.3 C 3.86 g/m*3 0.3 C 0 km/h
2454 28-11-2008 23:17:02 0.3 C 3.86 g/m*3 0.3 C 0 km/h
2455 28-11-2008 23:29:02 0.3 C 3.86 g/m*3 0.3 C 0 km/h
2456 28-11-2008 23:41:02 0.3 C 3.86 g/m*3 0.3 C 0 km/h
2457 28-11-2008 23:53:02 0.4 C 3.88 g/m*3 0.4 C 0 km/h

Legende:
   Min
   Max


Maximal/Minimal-Werte vom 17.04.2019 - 19.05.2019

Sensor Min Max Avg
Temp
(Aussen-T/F)
2.2 °C
13-05-2019  06:50:00
26.6 °C
24-04-2019  17:05:00
11.51 °C

Die Daten stammen von einer Davis Vantage Pro 2 Wetter-Station und werden unter Linux mit der Software wview2wettercgi und aufbereitet. Alle Angaben erfolgen ohne Gewähr für ihre Vollständigkeit oder Richtigkeit.
Kontakt: Rainer Krienke krienke@uni-koblenz.de . Meine Webseiten an der Uni Koblenz oder privat.
Version: $Revision: 0.78 $